[[{"header":{"parameterUnit":"m.s-1","parameterCategory":1,"la1":30.6,"la2":28.766,"lo1":-90.7593,"lo2":-88.6598,"dy":0.0162,"dx":0.0183,"nx":116,"ny":114,"refTime":"2023-04-04T12:00:00:Z","depth":0,"parameterNumber":2,"parameterNumberName":"U-component_of_WINDS"},"data":[0.0,0.0,0.0,0.0,0.0,0.0,0.0,0.0,0.0,0.0,0.0,0.0,0.0,0.0,0.0,0.0,0.0,0.0,0.0,0.0,0.0,0.0,0.0,0.0,0.0,0.0,0.0,0.0,0.0,0.0,0.0,0.0,0.0,0.0,0.0,0.0,0.0,0.0,0.0,0.0,0.0,0.0,0.0,0.0,0.0,0.0,0.0,0.0,0.0,0.0,0.0,0.0,0.0,0.0,0.0,0.0,0.0,0.0,0.0,0.0,0.0,0.0,0.0,0.0,0.0,0.0,0.0,0.0,0.0,0.0,0.0,0.0,0.0,0.0,0.0,0.0,0.0,0.0,0.0,0.0,0.0,0.0,0.0,0.0,0.0,0.0,0.0,0.0,0.0,0.0,0.0,0.0,0.0,0.0,0.0,0.0,0.0,0.0,0.0,0.0,0.0,0.0,0.0,0.0,0.0,0.0,0.0,0.0,0.0,0.0,0.0,0.0,0.0,0.0,0.0,0.0,0.0,0.0,0.0,0.0,0.0,0.0,0.0,0.0,0.0,0.0,0.0,0.0,0.0,0.0,0.0,0.0,0.0,0.0,0.0,0.0,0.0,0.0,0.0,0.0,0.0,0.0,0.0,0.0,0.0,0.0,0.0,0.0,0.0,0.0,0.0,0.0,0.0,0.0,0.0,0.0,0.0,0.0,0.0,0.0,0.0,0.0,0.0,0.0,0.0,0.0,0.0,0.0,0.0,0.0,0.0,0.0,0.0,0.0,0.0,0.0,0.0,0.0,0.0,0.0,0.0,0.0,0.0,0.0,0.0,0.0,0.0,0.0,0.0,0.0,0.0,0.0,0.0,0.0,0.0,0.0,0.0,0.0,0.0,0.0,0.0,0.0,0.0,0.0,0.0,0.0,0.0,0.0,0.0,0.0,0.0,0.0,0.0,0.0,0.0,0.0,0.0,0.0,0.0,0.0,0.0,0.0,0.0,0.0,0.0,0.0,0.0,0.0,0.0,0.0,0.0,0.0,0.0,0.0,0.0,0.0,0.0,0.0,0.0,0.0,0.0,0.0,0.0,0.0,0.0,0.0,0.0,0.0,0.0,0.0,0.0,0.0,0.0,0.0,0.0,0.0,0.0,0.0,0.0,0.0,0.0,0.0,0.0,0.0,0.0,0.0,0.0,0.0,0.0,0.0,0.0,0.0,0.0,0.0,0.0,0.0,0.0,0.0,0.0,0.0,0.0,0.0,0.0,0.0,0.0,0.0,0.0,0.0,0.0,0.0,0.0,0.0,0.0,0.0,0.0,0.0,0.0,0.0,0.0,0.0,0.0,0.0,0.0,0.0,0.0,0.0,0.0,0.0,0.0,0.0,0.0,0.0,0.0,0.0,0.0,0.0,0.0,0.0,0.0,0.0,0.0,0.0,0.0,0.0,0.0,0.0,0.0,0.0,0.0,0.0,0.0,0.0,0.0,0.0,0.0,0.0,0.0,0.0,0.0,0.0,0.0,0.0,0.0,0.0,0.0,0.0,0.0,0.0,0.0,0.0,0.0,0.0,0.0,0.0,0.0,0.0,0.0,0.0,0.0,0.0,0.0,0.0,0.0,0.0,0.0,0.0,0.0,0.0,0.0,0.0,0.0,0.0,0.0,0.0,0.0,0.0,0.0,0.0,0.0,0.0,0.0,0.0,0.0,0.0,0.0,0.0,0.0,0.0,0.0,0.0,0.0,0.0,0.0,0.0,0.0,0.0,0.0,0.0,0.0,0.0,0.0,0.0,0.0,0.0,0.0,0.0,0.0,0.0,0.0,0.0,0.0,0.0,0.0,0.0,0.0,0.0,0.0,0.0,0.0,0.0,0.0,0.0,0.0,0.0,0.0,0.0,0.0,0.0,0.0,0.0,0.0,0.0,0.0,0.0,0.0,0.0,0.0,0.0,0.0,0.0,0.0,0.0,0.0,0.0,0.0,0.0,0.0,0.0,0.0,0.0,0.0,0.0,0.0,0.0,0.0,0.0,0.0,0.0,0.0,0.0,0.0,0.0,0.0,0.0,0.0,0.0,0.0,0.0,0.0,0.0,0.0,0.0,0.0,0.0,0.0,0.0,0.0,0.0,0.0,0.0,0.0,0.0,0.0,0.0,0.0,0.0,0.0,0.0,0.0,0.0,0.0,0.0,0.0,0.0,0.0,0.0,0.0,0.0,0.0,0.0,0.0,0.0,0.0,0.0,0.0,0.0,0.0,0.0,0.0,0.0,0.0,0.0,0.0,0.0,0.0,0.0,0.0,0.0,0.0,0.0,0.0,0.0,0.0,0.0,0.0,0.0,0.0,0.0,0.0,0.0,0.0,0.0,0.0,0.0,0.0,0.0,0.0,0.0,0.0,0.0,0.0,0.0,0.0,0.0,0.0,0.0,0.0,0.0,0.0,0.0,0.0,0.0,0.0,0.0,0.0,0.0,0.0,0.0,0.0,0.0,0.0,0.0,0.0,0.0,0.0,0.0,0.0,0.0,0.0,0.0,0.0,0.0,0.0,0.0,0.0,0.0,0.0,0.0,0.0,0.0,0.0,0.0,0.0,0.0,0.0,0.0,0.0,0.0,0.0,0.0,0.0,0.0,0.0,0.0,0.0,0.0,0.0,0.0,0.0,0.0,0.0,0.0,0.0,0.0,0.0,0.0,0.0,0.0,0.0,0.0,0.0,0.0,0.0,0.0,0.0,0.0,0.0,0.0,0.0,0.0,0.0,0.0,0.0,0.0,0.0,0.0,0.0,0.0,0.0,0.0,0.0,0.0,0.0,0.0,0.0,0.0,0.0,0.0,0.0,0.0,0.0,0.0,0.0,0.0,0.0,0.0,0.0,0.0,0.0,0.0,0.0,0.0,0.0,0.0,0.0,0.0,0.0,0.0,0.0,0.0,0.0,0.0,0.0,0.0,0.0,0.0,0.0,0.0,0.0,0.0,0.0,0.0,0.0,0.0,0.0,0.0,0.0,0.0,0.0,0.0,0.0,0.0,0.0,0.0,0.0,0.0,0.0,0.0,0.0,0.0,0.0,0.0,0.0,0.0,0.0,0.0,0.0,0.0,0.0,0.0,0.0,0.0,0.0,0.0,0.0,0.0,0.0,0.0,0.0,0.0,0.0,0.0,0.0,0.0,0.0,0.0,0.0,0.0,0.0,0.0,0.0,0.0,0.0,0.0,0.0,0.0,0.0,0.0,0.0,0.0,0.0,0.0,0.0,0.0,0.0,0.0,0.0,0.0,0.0,0.0,0.0,0.0,0.0,0.0,0.0,0.0,0.0,0.0,0.0,0.0,0.0,0.0,0.0,0.0,0.0,0.0,0.0,0.0,0.0,0.0,0.0,0.0,0.0,0.0,0.0,0.0,0.0,0.0,0.0,0.0,0.0,0.0,0.0,0.0,0.0,0.0,0.0,0.0,0.0,0.0,0.0,0.0,0.0,0.0,0.0,0.0,0.0,0.0,0.0,0.0,0.0,0.0,0.0,0.0,0.0,0.0,0.0,0.0,0.0,0.0,0.0,0.0,0.0,0.0,0.0,0.0,0.0,0.0,0.0,0.0,0.0,0.0,0.0,0.0,0.0,0.0,0.0,0.0,0.0,0.0,0.0,0.0,0.0,0.0,0.0,0.0,0.0,0.0,0.0,0.0,0.0,0.0,0.0,0.0,0.0,0.0,0.0,0.0,0.0,0.0,0.0,0.0,0.0,0.0,0.0,0.0,0.0,0.0,0.0,0.0,0.0,0.0,0.0,0.0,0.0,0.0,0.0,0.0,0.0,0.0,0.0,0.0,0.0,0.0,0.0,0.0,0.0,0.0,0.0,0.0,0.0,0.0,0.0,0.0,0.0,0.0,0.0,0.0,0.0,0.0,0.0,0.0,0.0,0.0,0.0,0.0,0.0,0.0,0.0,0.0,0.0,0.0,0.0,0.0,0.0,0.0,0.0,0.0,0.0,0.0,0.0,0.0,0.0,0.0,0.0,0.0,0.0,0.0,0.0,0.0,0.0,0.0,0.0,0.0,0.0,0.0,0.0,0.0,0.0,0.0,0.0,0.0,0.0,0.0,0.0,0.0,0.0,0.0,0.0,0.0,0.0,0.0,0.0,0.0,0.0,0.0,0.0,0.0,0.0,0.0,0.0,0.0,0.0,0.0,0.0,0.0,0.0,0.0,0.0,0.0,0.0,0.0,0.0,0.0,0.0,0.0,0.0,0.0,0.0,0.0,0.0,0.0,0.0,0.0,0.0,0.0,0.0,0.0,0.0,0.0,0.0,0.0,0.0,0.0,0.0,0.0,0.0,0.0,0.0,0.0,0.0,0.0,0.0,0.0,0.0,0.0,0.0,0.0,0.0,0.0,0.0,0.0,0.0,0.0,0.0,0.0,0.0,0.0,0.0,0.0,0.0,0.0,0.0,0.0,0.0,0.0,0.0,0.0,0.0,0.0,0.0,0.0,0.0,0.0,0.0,0.0,0.0,0.0,0.0,0.0,0.0,0.0,0.0,0.0,0.0,0.0,0.0,0.0,0.0,0.0,0.0,0.0,0.0,0.0,0.0,0.0,0.0,0.0,0.0,0.0,0.0,0.0,0.0,0.0,0.0,0.0,0.0,0.0,0.0,0.0,0.0,0.0,0.0,0.0,0.0,0.0,0.0,0.0,0.0,0.0,0.0,0.0,0.0,0.0,0.0,0.0,0.0,0.0,0.0,0.0,0.0,0.0,0.0,0.0,0.0,0.0,0.0,0.0,0.0,0.0,0.0,0.0,0.0,0.0,0.0,0.0,0.0,0.0,0.0,0.0,0.0,0.0,0.0,0.0,0.0,0.0,0.0,0.0,0.0,0.0,0.0,0.0,0.0,0.0,0.0,0.0,0.0,0.0,0.0,0.0,0.0,0.0,0.0,0.0,0.0,0.0,0.0,0.0,0.0,0.0,0.0,0.0,0.0,0.0,0.0,0.0,0.0,0.0,0.0,0.0,0.0,0.0,0.0,0.0,0.0,0.0,0.0,0.0,0.0,0.0,0.0,0.0,0.0,0.0,0.0,0.0,0.0,0.0,0.0,0.0,0.0,0.0,0.0,0.0,0.0,0.0,0.0,0.0,0.0,0.0,0.0,0.0,0.0,0.0,0.0,0.0,0.0,0.0,0.0,0.0,0.0,0.0,0.0,0.0,0.0,0.0,0.0,0.0,0.0,0.0,0.0,0.0,0.0,0.0,0.0,0.0,0.0,0.0,0.0,0.0,0.0,0.0,0.0,0.0,0.0,0.0,0.0,0.0,0.0,0.0,0.0,0.0,0.0,0.0,0.0,0.0,0.0,0.0,0.0,0.0,0.0,0.0,0.0,0.0,0.0,0.0,0.0,0.0,0.0,0.0,0.0,0.0,0.0,0.0,0.0,0.0,0.0,0.0,0.0,0.0,0.0,0.0,0.0,0.0,0.0,0.0,0.0,0.0,0.0,0.0,0.0,0.0,0.0,0.0,0.0,0.0,0.0,0.0,0.0,0.0,0.0,0.0,0.0,0.0,0.0,0.0,0.0,0.0,0.0,0.0,0.0,0.0,0.0,0.0,0.0,0.0,0.0,0.0,0.0,0.0,0.0,0.0,0.0,0.0,0.0,0.0,0.0,0.0,0.0,0.0,0.0,0.0,0.0,0.0,0.0,0.0,0.0,0.0,0.0,0.0,0.0,0.0,0.0,0.0,0.0,0.0,0.0,0.0,0.0,0.0,0.0,0.0,0.0,0.0,0.0,0.0,0.0,0.0,0.0,0.0,0.0,0.0,0.0,0.0,0.0,0.0,0.0,0.0,0.0,0.0,0.0,0.0,0.0,0.0,0.0,0.0,0.0,0.0,0.0,0.0,0.0,0.0,0.0,0.0,0.0,0.0,0.0,0.0,0.0,0.0,0.0,0.0,0.0,0.0,0.0,0.0,0.0,0.0,0.0,0.0,0.0,0.0,0.0,0.0,0.0,0.0,0.0,0.0,0.0,0.0,0.0,0.0,0.0,0.0,0.0,0.0,0.0,0.0,0.0,0.0,0.0,0.0,0.0,0.0,0.0,0.0,0.0,0.0,0.0,0.0,3.6152,0.0,0.0,0.0,0.0,0.0,0.0,0.0,0.0,0.0,0.0,0.0,0.0,0.0,0.0,0.0,0.0,0.0,0.0,0.0,0.0,0.0,0.0,0.0,0.0,0.0,0.0,0.0,0.0,0.0,0.0,0.0,0.0,0.0,0.0,0.0,0.0,0.0,0.0,0.0,2.5994,2.6639,2.7447,2.7264,2.696,2.6568,0.0,0.0,0.0,0.0,0.0,0.0,0.0,0.0,0.0,0.0,0.0,0.0,0.0,0.0,0.0,0.0,0.0,0.0,0.0,0.0,0.0,0.0,0.0,0.0,0.0,0.0,0.0,0.0,0.0,0.0,0.0,0.0,0.0,0.0,0.0,0.0,0.0,0.0,0.0,0.0,0.0,0.0,0.0,0.0,0.0,0.0,0.0,0.0,0.0,0.0,0.0,0.0,0.0,0.0,0.0,0.0,0.0,0.0,0.0,0.0,0.0,0.0,0.0,0.0,0.0,0.0,0.0,0.0,0.0,0.0,0.0,3.6285,0.0,0.0,0.0,0.0,0.0,0.0,0.0,0.0,0.0,0.0,0.0,0.0,0.0,0.0,0.0,0.0,0.0,0.0,0.0,0.0,0.0,0.0,0.0,2.259,2.2351,2.2351,2.3047,2.3473,0.0,0.0,0.0,0.0,0.0,0.0,0.0,2.5201,2.5471,2.6103,2.7015,2.7852,2.861,2.861,2.7892,2.6627,2.6669,0.0,0.0,0.0,0.0,0.0,0.0,0.0,0.0,0.0,0.0,0.0,0.0,0.0,0.0,0.0,0.0,0.0,0.0,0.0,0.0,0.0,0.0,0.0,0.0,0.0,0.0,0.0,0.0,0.0,0.0,0.0,0.0,0.0,0.0,0.0,0.0,0.0,0.0,0.0,0.0,0.0,0.0,0.0,0.0,0.0,0.0,0.0,0.0,0.0,0.0,0.0,0.0,0.0,0.0,0.0,0.0,0.0,0.0,0.0,0.0,0.0,0.0,0.0,3.6413,3.6534,3.6863,3.8143,3.8176,3.7213,3.6948,3.628,3.5425,3.6122,0.0,0.0,0.0,0.0,0.0,0.0,0.0,0.0,0.0,0.0,0.0,0.0,0.0,0.0,0.0,0.0,0.0,0.0,0.0,0.0,0.0,2.2716,2.2971,2.2971,2.371,2.4216,2.4328,0.0,0.0,0.0,0.0,0.0,2.5808,2.578,2.6158,2.6946,2.7712,2.814,2.8269,2.8269,2.814,2.7954,2.8124,2.8181,2.811,0.0,0.0,0.0,0.0,0.0,0.0,0.0,0.0,0.0,0.0,0.0,0.0,0.0,0.0,0.0,0.0,0.0,0.0,0.0,0.0,0.0,0.0,0.0,0.0,0.0,0.0,0.0,0.0,0.0,0.0,0.0,0.0,0.0,0.0,0.0,0.0,0.0,0.0,0.0,0.0,0.0,3.178,3.1279,0.0,0.0,0.0,0.0,0.0,0.0,0.0,0.0,0.0,0.0,0.0,0.0,0.0,3.6137,3.5902,3.6426,3.6849,3.7167,3.7441,3.7896,3.8498,3.8679,3.8705,3.8544,3.8509,0.0,3.7315,3.8157,0.0,0.0,0.0,0.0,0.0,0.0,0.0,0.0,0.0,0.0,0.0,0.0,0.0,0.0,0.0,0.0,0.0,0.0,0.0,0.0,0.0,2.365,2.4278,2.4278,2.5391,2.5976,2.5697,2.5999,0.0,0.0,0.0,2.5801,2.6016,2.6465,2.7298,2.8555,2.8771,2.9102,2.955,2.955,2.955,2.955,2.9638,2.916,2.8297,2.8297,0.0,0.0,0.0,0.0,0.0,0.0,0.0,0.0,0.0,0.0,0.0,0.0,0.0,0.0,0.0,0.0,0.0,0.0,0.0,0.0,0.0,0.0,0.0,0.0,0.0,0.0,0.0,0.0,0.0,0.0,0.0,0.0,0.0,0.0,0.0,0.0,0.0,0.0,0.0,3.1814,3.2146,3.1925,3.1971,3.2146,0.0,0.0,0.0,0.0,0.0,0.0,0.0,0.0,0.0,3.5436,3.6159,3.6613,3.6729,3.7296,3.7715,3.7974,3.8109,3.8422,3.88,3.88,3.88,3.88,3.88,3.8531,3.8124,3.8439,3.823,3.775,0.0,0.0,0.0,0.0,3.7688,3.7567,0.0,0.0,0.0,0.0,0.0,0.0,0.0,0.0,0.0,0.0,0.0,0.0,2.3671,2.4777,2.5567,2.5724,2.6978,2.7475,2.6815,2.7204,2.7133,0.0,2.6164,2.6043,2.6043,2.7014,2.8225,2.9624,2.9681,3.0014,3.0598,3.0757,3.0829,3.0844,3.1004,3.02,2.8741,2.8741,2.8583,2.8396,0.0,0.0,0.0,0.0,0.0,0.0,0.0,0.0,0.0,0.0,0.0,0.0,0.0,0.0,0.0,0.0,0.0,0.0,0.0,0.0,0.0,0.0,0.0,0.0,0.0,0.0,0.0,0.0,0.0,0.0,0.0,0.0,0.0,0.0,0.0,0.0,0.0,3.2327,3.2734,3.2707,3.2609,3.2889,0.0,0.0,0.0,0.0,0.0,0.0,3.4887,3.5729,3.6166,3.6044,3.6707,3.7222,3.7535,3.8022,3.8329,3.8422,3.8598,3.8764,3.8899,3.906,3.9134,3.9119,3.8972,3.882,3.8664,3.8539,3.8118,3.7567,3.8022,3.8105,3.795,3.7773,3.7642,3.7625,0.0,0.0,0.0,0.0,0.0,0.0,0.0,0.0,0.0,0.0,0.0,2.4778,2.525,2.5922,2.6566,2.714,2.7966,2.8109,2.7324,2.7296,2.6942,2.6152,2.5989,2.5907,2.5907,2.7385,2.8569,2.942,3.0174,3.0554,3.0612,3.1192,3.1452,3.1481,3.2119,3.1576,3.0181,3.0181,2.9865,2.9275,2.8541,0.0,0.0,0.0,0.0,0.0,0.0,0.0,0.0,0.0,0.0,0.0,0.0,0.0,0.0,0.0,0.0,0.0,0.0,0.0,0.0,0.0,0.0,0.0,0.0,0.0,0.0,0.0,0.0,0.0,0.0,0.0,0.0,0.0,0.0,0.0,0.0,0.0,0.0,3.3878,3.3151,0.0,0.0,0.0,0.0,3.391,3.5875,3.6647,3.5615,3.7208,3.7869,3.7219,3.7995,3.8316,3.8159,3.8371,3.8385,3.8221,3.8874,3.9165,3.9194,3.978,4.0041,4.0012,3.9431,3.9165,3.916,3.9088,3.9214,3.9477,3.9693,4.0008,4.019,3.8983,3.8579,3.8552,0.0,0.0,0.0,0.0,0.0,0.0,0.0,0.0,2.3486,2.3438,2.4807,2.5859,2.6035,2.7407,2.8426,2.8627,2.9392,2.9551,2.8828,2.8211,2.7583,2.69,2.6241,2.6438,2.7554,2.8928,3.0055,3.0934,3.1527,3.183,3.183,3.2047,3.2148,3.2148,3.2395,3.2218,3.1721,3.1721,3.1545,3.1236,3.0943,3.03,0.0,0.0,0.0,0.0,0.0,0.0,0.0,0.0,0.0,0.0,0.0,0.0,0.0,0.0,0.0,0.0,0.0,0.0,0.0,0.0,0.0,0.0,0.0,0.0,0.0,0.0,0.0,0.0,0.0,0.0,0.0,0.0,0.0,0.0,0.0,0.0,0.0,3.4252,3.4062,0.0,3.4377,3.47,3.5032,3.5372,3.6551,3.7111,3.671,3.7678,3.8146,3.7883,3.8578,3.8913,3.8841,3.931,3.9499,3.9421,3.9654,3.977,3.9784,4.0002,4.0104,4.0089,3.9871,3.977,3.9775,3.9904,3.9455,3.8727,3.8929,3.9093,3.9172,3.8847,3.8736,3.873,0.0,0.0,0.0,0.0,0.0,0.0,0.0,0.0,2.3712,2.4154,2.5568,2.6771,2.7419,2.867,2.9565,2.9796,3.0291,3.0175,2.9189,2.8555,2.7783,2.6873,2.6494,2.7186,2.9103,2.9967,3.094,3.2045,3.2357,3.2497,3.2497,3.2729,3.2846,3.2846,3.3048,3.3135,3.3135,3.3135,3.284,3.234,3.2075,3.1355,3.0374,0.0,0.0,0.0,0.0,0.0,0.0,0.0,0.0,0.0,0.0,0.0,0.0,0.0,0.0,0.0,0.0,0.0,0.0,0.0,0.0,0.0,0.0,0.0,0.0,0.0,0.0,0.0,0.0,0.0,0.0,0.0,0.0,0.0,0.0,0.0,3.4328,3.508,3.4995,3.5089,3.5622,3.5769,3.6043,3.6532,3.7218,3.7709,3.7941,3.8318,3.8638,3.8826,3.9276,3.9509,3.9509,3.99,4.0104,4.0104,4.0321,4.0437,4.0437,4.067,4.0771,4.0757,4.0539,4.0437,4.0457,4.0576,4.0061,3.9179,3.9152,3.914,3.914,3.922,3.9276,3.9314,0.0,0.0,0.0,0.0,0.0,0.0,0.0,2.3226,2.4149,2.544,2.6308,2.752,2.9406,2.9624,2.9885,3.0539,3.0598,2.9927,2.834,2.8211,2.7527,2.6033,2.6749,2.8211,3.0385,3.0472,3.1169,3.2526,3.2555,3.2555,3.2569,3.3226,3.3532,3.3547,3.4138,3.4397,3.4397,3.4397,3.3686,3.2481,3.1702,3.1005,3.0383,0.0,0.0,0.0,0.0,0.0,0.0,0.0,0.0,0.0,0.0,0.0,0.0,0.0,0.0,0.0,0.0,0.0,0.0,0.0,0.0,0.0,0.0,0.0,0.0,0.0,0.0,0.0,0.0,0.0,0.0,0.0,0.0,0.0,3.511,3.528,3.5601,3.6409,3.5886,3.5782,3.6549,3.6466,3.6617,3.7288,3.7897,3.8507,3.9175,3.9218,3.9494,4.0075,4.0118,4.0133,4.0133,4.0147,4.0162,4.0162,4.0815,4.1134,4.1149,4.1816,4.2121,4.2092,4.1453,4.1192,4.1192,4.1163,4.1149,4.1111,4.0635,4.0437,4.0402,4.0192,4.0236,4.0393,0.0,0.0,0.0,0.0,0.0,0.0,0.0,2.3156,2.4001,2.5668,2.6551,2.7721,2.9609,3.0119,3.0394,3.0568,3.0598,3.016,2.9145,2.8526,2.7968,2.7456,2.8842,3.0084,3.102,3.2098,3.2845,3.3226,3.3659,3.3875,3.3875,3.4066,3.4153,3.4167,3.4324,3.4397,3.4397,3.4397,3.4194,3.386,3.3639,3.3189,3.255,0.0,0.0,0.0,0.0,0.0,0.0,0.0,0.0,0.0,0.0,0.0,0.0,0.0,0.0,0.0,0.0,0.0,0.0,0.0,0.0,0.0,0.0,0.0,0.0,0.0,0.0,0.0,0.0,0.0,0.0,0.0,0.0,3.5652,3.6078,3.5696,3.5673,3.6475,3.6689,3.6856,3.7099,3.7437,3.7752,3.7941,3.8565,3.9,3.9189,3.961,3.9929,4.0089,4.0568,4.0829,4.0829,4.1308,4.1555,4.1555,4.1729,4.1816,4.1845,4.2469,4.2745,4.276,4.3065,4.3195,4.3166,4.2673,4.2469,4.2432,4.1849,4.1346,4.0909,4.0849,4.055,4.0202,0.0,0.0,0.0,0.0,0.0,0.0,0.0,2.316,2.404,2.6255,2.6879,2.791,3.0032,3.0483,3.0598,3.0598,3.0598,3.0116,2.8972,2.8169,2.8125,2.8968,2.9982,3.1042,3.2214,3.3062,3.3634,3.3879,3.424,3.4397,3.4397,3.4397,3.4397,3.4397,3.4397,3.4397,3.4412,3.4704,3.482,3.4835,3.5096,3.445,3.333,3.2936,3.2338,3.1685,3.1556,3.1503,3.1475,3.1217,0.0,0.0,0.0,0.0,0.0,0.0,0.0,0.0,0.0,0.0,0.0,0.0,0.0,0.0,0.0,0.0,0.0,0.0,0.0,0.0,0.0,0.0,0.0,0.0,3.6486,3.6795,3.7165,3.6635,3.6456,3.7172,3.7503,3.768,3.768,3.826,3.8623,3.8623,3.9218,3.9697,3.9987,4.0321,4.0641,4.0931,4.1308,4.1628,4.1889,4.2281,4.2615,4.289,4.289,4.289,4.2905,4.3274,4.3413,4.3427,4.3819,4.3993,4.3979,4.3855,4.3812,0.0,0.0,0.0,0.0,0.0,4.1265,4.0951,0.0,0.0,0.0,0.0,0.0,0.0,0.0,2.3231,2.4211,2.6981,2.7199,2.804,3.0542,3.0687,3.0598,3.0598,3.048,2.9737,2.824,2.7755,2.8412,3.0413,3.0675,3.1664,3.356,3.3605,3.3864,3.4397,3.4397,3.4397,3.4397,3.4397,3.4397,3.4397,3.4397,3.4397,3.4426,3.5026,3.529,3.5348,3.5938,3.5097,3.3458,3.3458,3.2955,3.2311,3.2617,3.2714,3.2716,3.2772,0.0,0.0,0.0,0.0,0.0,0.0,0.0,0.0,0.0,0.0,0.0,0.0,0.0,0.0,0.0,0.0,0.0,0.0,0.0,0.0,0.0,0.0,0.0,0.0,3.7333,3.7622,3.8231,3.7854,3.768,3.8144,3.8275,3.8318,3.8318,3.8913,3.9305,3.9305,3.9871,4.0466,4.1062,0.0,0.0,0.0,0.0,4.2484,4.3108,4.3108,4.3398,4.3993,4.3993,4.3993,4.3993,4.4066,4.4095,4.4117,4.4168,4.4197,4.4262,4.4712,4.4872,4.4654,4.3036,4.2411,4.2397,4.2339,4.2289,4.2268,0.0,0.0,0.0,0.0,0.0,0.0,0.0,2.3411,2.4335,2.7238,2.7309,2.8039,3.0542,3.0687,3.0598,3.0598,2.9671,2.8686,2.7776,2.9202,3.0393,3.1093,3.237,3.3425,3.4211,3.424,3.4283,3.4397,3.4397,3.4397,3.4397,3.4397,3.4397,3.4397,3.4397,3.4397,3.4412,3.4545,3.4588,3.4646,3.5302,3.5328,3.4977,3.4977,3.4537,3.3936,3.4003,3.4034,3.3964,3.3491,3.3592,3.376,3.3025,0.0,0.0,0.0,0.0,0.0,0.0,0.0,0.0,0.0,0.0,0.0,0.0,0.0,0.0,0.0,0.0,0.0,0.0,0.0,0.0,3.7386,3.7773,3.826,3.8913,3.8913,3.8681,3.826,3.8681,3.9015,3.9015,3.9567,3.9929,3.9929,4.0539,4.096,4.1091,4.1613,4.2179,4.2803,4.2818,4.3137,4.379,4.3805,4.3863,4.3993,0.0,0.0,4.403,4.4487,4.4741,4.477,4.5308,4.554,4.5511,4.5053,4.4603,4.4182,4.432,4.4364,4.4306,4.3805,4.3487,4.3301,0.0,0.0,0.0,0.0,0.0,0.0,0.0,2.3845,2.4576,2.6843,2.6919,2.7484,2.9382,2.9222,2.9061,2.9358,2.8685,2.8355,2.8634,2.9876,3.1148,3.236,3.3173,3.3846,3.4399,3.4397,3.4397,3.4397,3.4312,3.4247,3.4247,3.4247,3.4247,3.4247,3.4363,3.4397,3.4412,3.4762,3.491,3.4997,3.597,3.6159,3.5825,3.5508,3.5051,3.4563,3.4563,3.4563,3.4505,3.4201,3.4215,3.4273,3.3836,3.3645,3.3532,0.0,0.0,0.0,0.0,0.0,0.0,0.0,0.0,0.0,0.0,0.0,0.0,0.0,0.0,3.6571,0.0,0.0,3.7469,3.7802,3.8331,3.8826,3.916,3.9465,3.9523,3.9189,3.945,3.9654,3.9654,4.0234,4.0597,4.0597,4.1221,4.1599,4.1599,4.2194,4.2687,4.2977,4.3333,4.3812,4.4451,4.4465,4.4625,4.4959,4.4959,4.4959,4.4951,4.5242,4.5409,4.5424,4.5758,4.5903,4.5866,4.554,4.5235,4.4966,4.5271,4.5017,4.44,4.4095,4.3827,4.3596,0.0,0.0,0.0,0.0,0.0,0.0,0.0,2.4338,2.4942,2.6554,2.6566,2.6882,2.819,2.7706,2.7419,2.7729,2.7954,2.8458,2.9414,3.0331,3.1636,3.3431,3.362,3.3908,3.4382,3.4397,3.4397,3.4397,3.423,3.4162,3.4162,3.4162,3.4162,3.4162,3.4329,3.4397,3.4426,3.4983,3.5218,3.5317,3.6591,3.6707,3.6098,3.5854,3.5447,3.4998,3.49,3.4961,3.5034,3.4804,3.4821,3.4909,3.4777,3.4481,3.4038,3.3351,3.3389,0.0,0.0,0.0,0.0,0.0,0.0,0.0,0.0,0.0,3.6635,3.696,3.6929,3.7128,3.8112,3.8028,3.7958,3.8337,3.8942,3.9421,3.9552,3.9987,4.0336,4.0466,4.0365,4.0292,4.0292,4.0902,4.1279,4.1279,4.1903,4.2266,4.2266,4.2861,4.326,4.3355,4.3877,4.4458,4.5104,4.5104,4.538,4.5903,4.5903,4.5903,4.5903,4.5903,4.5903,4.5903,4.5903,4.5903,4.5903,4.5903,4.5903,4.588,4.5835,4.519,4.4291,4.4356,4.4167,4.3904,0.0,0.0,0.0,0.0,0.0,0.0,0.0,0.0,2.5583,2.7193,2.6821,2.6816,2.7923,2.7602,2.6999,2.6224,2.7931,2.8919,2.8656,3.1015,3.2757,3.346,3.4008,3.4324,3.4397,3.4397,3.4397,3.4397,3.438,3.438,3.438,3.438,3.438,3.438,3.4397,3.4397,3.4397,3.4486,3.4499,3.4615,3.5909,3.6057,3.5625,3.6678,3.6696,3.6078,3.5653,3.5883,3.6236,3.5215,3.5268,3.5653,3.5062,3.4826,3.4565,3.3373,0.0,3.3864,3.2631,3.3241,0.0,3.4323,3.4672,3.4916,0.0,0.0,3.6552,3.6435,3.7266,3.8057,3.8202,3.8655,3.9034,3.9088,3.9596,4.0205,4.08,4.0945,4.1207,4.1802,4.1352,4.0989,4.0989,4.1584,4.199,4.199,4.2542,4.289,4.289,4.3529,4.4124,4.4683,4.4748,4.5133,4.5787,4.5801,4.583,4.5903,4.5903,4.5903,4.5903,4.5903,4.5903,4.5903,4.5903,4.5903,4.5903,4.5903,4.5903,4.588,4.564,4.5463,4.537,4.561,4.537,4.4932,0.0,0.0,0.0,0.0,0.0,0.0,0.0,0.0,0.0,2.6584,2.6176,2.6019,2.6538,2.6223,2.5639,2.4816,2.6902,2.8408,2.877,3.1254,3.3109,3.3995,3.4283,3.4397,3.4397,3.4397,3.4397,3.4397,3.4281,3.423,3.423,3.423,3.423,3.423,3.4346,3.4397,3.4426,3.4823,3.4983,3.5099,3.6373,3.6736,3.6591,3.7491,3.7721,3.7412,3.6204,3.595,0.0,3.5326,3.5259,3.5513,3.5616,3.5661,3.55,3.4695,3.5222,0.0,3.5405,0.0,0.0,0.0,3.6165,3.6511,3.6263,3.6978,3.7653,3.7455,3.7839,3.8318,3.871,3.9015,3.9305,0.0,4.0263,4.0771,4.1062,4.1439,4.1787,4.2063,4.1845,4.1671,4.1671,4.1932,4.2237,4.2586,4.2868,4.3166,4.3558,4.4168,4.4654,4.4901,4.5293,4.5627,4.5903,4.5903,4.5903,4.5903,4.5903,4.5903,4.5903,4.5903,4.5903,4.5903,4.5903,4.5903,4.588,4.5722,4.5768,4.5858,4.5435,4.5367,4.5481,4.5458,4.5207,4.4945,0.0,0.0,0.0,0.0,0.0,0.0,0.0,0.0,0.0,0.0,2.5674,2.5212,2.5179,2.4935,2.4599,2.4239,2.6193,2.7986,2.9256,3.1381,3.3129,3.4339,3.4397,3.4397,3.4397,3.4397,3.4397,3.4397,3.4247,3.4179,3.4193,3.4384,3.4456,3.447,3.4781,3.4919,3.4965,3.5447,3.5636,3.5738,3.6852,3.7302,3.7375,3.797,3.8157,3.7886,3.6435,3.6163,3.6332,3.5283,3.5167,3.5553,3.6045,3.606,3.5883,3.5684,3.6233,3.6896,3.6896,0.0,0.0,3.6734,3.7421,3.7872,3.7722,3.8068,3.8429,3.8472,3.8478,3.8681,3.9334,3.9596,3.9871,4.0307,4.0931,4.1381,4.1381,4.1787,4.2092,4.2092,4.2092,4.2092,4.2092,4.2237,4.2528,4.2963,4.3333,4.3754,4.4211,4.4843,4.5191,4.5191,4.5656,4.5903,4.5903,4.5903,4.5903,4.5903,4.5903,4.5903,4.5903,4.5903,4.5903,4.5903,4.5813,4.579,4.5768,4.5504,4.5504,4.5595,4.4949,4.4787,4.4903,4.4425,4.4476,4.4797,0.0,0.0,0.0,0.0,0.0,0.0,0.0,0.0,0.0,0.0,0.0,0.0,0.0,2.4124,2.4344,2.4919,2.6281,2.7984,3.0025,3.1519,3.2932,3.4339,3.4397,3.4397,3.4397,3.4397,3.4397,3.4397,3.4397,3.4397,3.4412,3.507,3.5363,3.5392,3.5981,3.6225,3.6225,3.6254,3.6272,3.6326,3.7027,3.7302,3.7375,3.797,3.7728,3.6941,3.6183,3.682,3.7643,3.5094,3.508,3.6164,3.6195,3.5748,0.0,3.5754,3.5791,0.0,0.0,0.0,3.7401,3.7314,3.7742,3.8192,3.8173,3.8188,3.8391,3.9044,3.9175,3.9349,3.9958,4.0597,4.1047,4.1062,4.1628,4.2063,4.2063,4.2092,4.2092,4.2092,4.2092,4.2092,0.0,4.2629,4.2977,4.2992,4.4146,4.4857,4.4872,4.5525,4.5874,4.5874,4.5903,4.5903,4.5903,4.5903,4.5903,4.5903,4.5903,4.5903,4.5903,4.5903,4.5903,4.588,4.5617,4.5504,4.5481,4.5216,4.5124,4.5032,4.4026,4.3648,4.3529,4.2466,4.3228,4.4797,0.0,0.0,0.0,0.0,0.0,0.0,0.0,0.0,0.0,0.0,0.0,0.0,0.0,0.0,0.0,0.0,2.615,2.7685,2.8743,3.1085,3.2777,3.358,3.4114,3.4397,3.4397,3.4397,3.4397,3.4397,3.4397,3.4397,3.4397,3.4632,3.4968,3.5407,3.5625,3.5941,3.6326,3.6762,3.695,3.7027,3.7651,3.7897,3.7864,3.7531,3.7314,3.6986,0.0,3.5563,3.6266,0.0,0.0,0.0,3.6259,0.0,0.0,3.7608,0.0,0.0,0.0,0.0,3.8709,3.9078,3.9015,3.887,3.887,3.887,3.8928,3.916,3.9204,3.9378,3.9987,4.0278,4.0583,4.1018,4.1657,4.2092,4.2092,4.2092,4.2092,4.2092,4.2092,0.0,0.0,0.0,0.0,4.3616,4.3976,4.4592,4.5495,4.5269,4.5095,4.5087,4.5617,4.5625,4.5118,4.5625,4.5903,4.5903,4.5903,4.5367,4.4378,4.4888,4.5026,4.4903,4.481,4.4949,4.523,4.5,4.4977,4.4986,4.379,4.3433,4.3481,4.2406,4.2661,4.3473,0.0,0.0,0.0,0.0,0.0,0.0,0.0,0.0,0.0,0.0,0.0,0.0,0.0,0.0,0.0,0.0,0.0,2.7557,2.8435,3.0521,3.2022,3.2735,3.3268,3.3549,3.3549,3.3816,3.3965,3.3965,3.4264,3.4397,3.4397,3.4646,3.4983,3.5407,3.5622,3.5941,3.6326,3.7027,3.7302,3.7327,3.7649,3.7808,3.7792,3.6966,3.6544,0.0,3.5392,3.5232,3.5379,0.0,0.0,0.0,0.0,0.0,0.0,0.0,0.0,0.0,0.0,3.9882,3.961,4.0002,3.9813,3.9523,3.9523,3.9523,3.9596,3.9828,3.9697,3.9712,4.0336,4.0263,4.0321,4.0989,4.1453,4.1816,4.2063,4.2092,4.2092,4.2092,4.2281,4.2277,0.0,0.0,0.0,4.3912,4.404,4.4522,4.5415,4.498,4.4712,4.4703,4.5201,4.5361,4.5127,4.564,4.5768,4.5452,4.5361,4.468,4.3467,4.3843,4.3937,4.3823,4.3729,4.4012,4.4555,4.4312,4.4298,4.4308,4.3204,4.2833,4.2802,4.1835,4.1836,4.2331,0.0,0.0,0.0,0.0,0.0,0.0,0.0,0.0,0.0,0.0,0.0,0.0,0.0,0.0,0.0,0.0,0.0,0.0,2.9009,2.989,3.0815,3.1895,3.1984,3.1999,3.1999,3.275,3.3134,3.3134,3.389,3.4279,3.4293,3.4936,3.5244,3.5302,3.5906,3.6193,3.6265,3.6932,3.7222,3.7204,3.7024,3.7042,3.7131,3.627,3.5457,3.4924,3.5883,3.5742,0.0,0.0,0.0,0.0,0.0,0.0,0.0,0.0,0.0,3.9987,3.9513,3.9755,4.0191,4.0191,4.0176,4.0147,4.0147,4.0147,4.0321,4.096,4.0568,4.0292,0.0,0.0,4.0321,4.0989,4.1134,4.1381,4.2049,4.2121,4.2121,0.0,0.0,0.0,0.0,0.0,0.0,4.3726,0.0,4.4591,4.4638,4.4597,4.4573,4.4606,4.4615,4.4989,4.5708,4.5768,4.5375,4.4568,4.4359,4.3829,4.3081,4.2827,4.2744,4.2719,4.2452,4.2781,4.3505,4.3242,4.3173,4.3091,4.23,4.1877,4.1647,4.084,4.0876,4.1479,0.0,0.0,0.0,0.0,0.0,0.0,0.0,0.0,0.0,0.0,0.0,0.0,0.0,0.0,0.0,0.0,0.0,0.0,2.79,2.9792,3.0952,3.1093,3.1677,3.1999,3.1999,3.2205,3.2307,3.2307,3.2514,3.2616,3.2616,3.2791,3.3123,3.3645,3.4229,3.4757,3.5228,3.5906,3.6179,3.6179,3.6124,3.6142,3.6089,3.5375,3.4982,3.4849,3.5269,3.5366,0.0,0.0,0.0,0.0,0.0,0.0,3.9053,0.0,0.0,4.0317,4.1306,4.1596,4.1584,4.1584,4.1207,4.0844,4.0844,4.0844,4.0887,4.1062,4.0568,4.0292,0.0,0.0,0.0,4.0989,4.1512,0.0,4.2673,4.2382,0.0,4.3398,0.0,4.2238,4.242,4.223,0.0,0.0,4.2954,4.33,4.3847,4.331,4.2999,4.306,4.3586,4.3705,4.331,4.3894,4.3776,4.2985,4.3307,4.2792,4.1508,4.179,4.1815,4.1668,4.1594,4.1891,4.2393,4.2319,4.2577,4.2893,4.2089,4.1983,4.2202,4.1382,4.148,4.2001,0.0,0.0,0.0,0.0,0.0,0.0,0.0,0.0,0.0,0.0,0.0,0.0,0.0,0.0,0.0,0.0,0.0,0.0,0.0,2.9377,3.0298,3.0265,3.0715,3.0947,3.0947,3.1297,3.1472,3.1472,3.1823,3.187,3.1646,3.1887,3.2072,3.2248,3.3089,3.3642,3.4042,3.4957,3.5415,0.0,0.0,3.5343,3.5397,3.459,3.4277,3.4355,3.4893,0.0,0.0,0.0,0.0,3.9364,3.9235,3.9605,4.01,4.028,0.0,4.1175,4.2038,4.2195,4.2092,4.2092,4.1816,4.1453,4.1163,4.1091,4.1018,4.0713,4.0147,0.0,0.0,0.0,0.0,0.0,0.0,0.0,4.2861,4.2469,4.2452,0.0,4.2771,0.0,4.2135,4.1977,4.1887,0.0,4.2286,4.2677,4.3098,4.2687,4.2455,4.2468,4.2881,4.3074,4.294,4.3372,4.3132,4.2222,4.2415,4.1815,4.0567,4.0938,4.1054,4.0965,0.0,4.1633,4.2207,4.2207,4.2404,4.2693,4.2229,4.2173,4.2327,4.1856,4.2045,4.2549,0.0,0.0,0.0,0.0,0.0,0.0,0.0,0.0,0.0,0.0,2.6792,0.0,0.0,0.0,0.0,0.0,0.0,0.0,0.0,0.0,2.9428,2.9665,2.9665,2.9665,2.9665,3.0312,3.0674,3.0674,3.1358,3.1454,3.1,3.147,3.1438,3.1028,3.2089,3.2628,3.2784,3.4005,3.4652,3.4844,3.4512,3.4565,3.4769,0.0,3.3623,0.0,0.0,0.0,0.0,0.0,3.9576,4.0249,4.0336,4.1163,4.186,4.0713,4.1192,4.2092,4.2092,4.2092,4.2092,4.2092,4.2092,4.1918,4.125,4.1091,4.0902,4.0234,0.0,3.9407,4.0104,3.9726,3.9741,4.1018,0.0,4.1709,4.2727,4.2416,4.2258,4.2725,4.2618,4.2254,4.1672,4.2013,4.2003,4.1336,4.1955,4.2335,4.2335,4.2335,4.2297,4.2246,4.2297,4.2652,4.329,4.329,4.2819,4.1891,4.1606,4.1021,4.0249,4.0418,4.0537,4.0625,4.1102,4.1704,4.2355,4.2355,4.2393,4.2457,4.2457,4.2417,4.2313,4.2313,4.26,4.3002,0.0,0.0,0.0,0.0,0.0,0.0,0.0,0.0,0.0,0.0,2.6792,2.6766,0.0,0.0,0.0,0.0,0.0,0.0,0.0,0.0,0.0,2.9991,3.0004,3.0004,3.0004,2.9982,2.9963,2.9963,3.0107,3.007,2.988,3.0086,3.007,2.9908,3.0604,3.1216,3.1812,3.2684,3.3276,3.3607,3.3726,3.3709,3.3607,3.3613,0.0,0.0,0.0,0.0,0.0,0.0,3.9406,4.1018,4.157,4.1903,4.2049,4.1816,4.1918,4.2092,4.2092,4.2092,4.2092,4.2092,4.2092,4.1918,4.125,4.1091,0.0,0.0,3.9625,3.9552,4.0713,4.0379,4.0379,4.17,0.0,0.0,0.0,0.0,4.2196,0.0,0.0,0.0,0.0,0.0,0.0,0.0,0.0,4.1511,4.1511,4.1511,4.1498,4.1498,4.1498,4.1572,4.1696,4.1696,4.1597,4.1436,4.0908,4.0837,4.1066,4.0673,4.0738,4.1177,4.1277,0.0,4.1517,4.1517,4.1809,4.2252,4.2252,4.2511,4.2864,4.2864,4.2926,4.3002,0.0,0.0,0.0,0.0,0.0,0.0,0.0,2.6951,2.6886,2.6806,2.6792,2.6792,2.6792,2.6608,2.654,0.0,0.0,0.0,0.0,0.0,0.0,0.0,0.0,0.0,0.0,2.9853,0.0,0.0,0.0,0.0,0.0,0.0,0.0,0.0,0.0,3.0682,3.105,3.2106,3.2755,3.3106,3.3446,3.3605,0.0,0.0,0.0,0.0,0.0,0.0,0.0,0.0,3.8124,3.9775,4.0877,4.1622,4.2055,4.1808,4.1913,4.2092,4.2092,4.2092,4.2092,4.2092,4.2092,4.1831,4.08,0.0,0.0,0.0,3.8884,3.8971,3.9929,0.0,0.0,0.0,0.0,0.0,0.0,0.0,0.0,0.0,0.0,0.0,0.0,0.0,0.0,0.0,0.0,4.1286,4.1286,4.1286,4.1286,4.1286,4.1286,4.1286,4.1286,4.1286,4.1161,4.0884,4.0631,4.0619,4.0881,4.092,4.1214,4.1781,4.207,4.2195,4.2195,4.2195,4.2346,4.2612,4.2612,4.2776,4.3002,4.3002,4.3002,4.3002,0.0,0.0,0.0,0.0,0.0,0.0,2.7081,2.7016,2.6951,2.6819,2.6792,2.6792,2.6792,2.6792,2.6792,0.0,0.0,0.0,0.0,0.0,0.0,0.0,0.0,0.0,0.0,0.0,0.0,0.0,0.0,0.0,0.0,0.0,0.0,0.0,0.0,0.0,0.0,3.1617,3.2277,0.0,0.0,0.0,0.0,0.0,0.0,0.0,0.0,0.0,0.0,0.0,3.658,3.7839,3.9082,4.0406,4.1436,4.1159,4.1346,4.1703,4.202,4.2092,4.2092,4.2092,4.2092,4.1744,4.0349,4.0064,0.0,0.0,3.8146,3.8387,3.9015,0.0,0.0,0.0,0.0,0.0,0.0,0.0,0.0,0.0,0.0,0.0,0.0,0.0,0.0,0.0,0.0,4.1286,4.1286,4.1286,4.1286,4.1286,4.1286,4.1286,4.1286,4.1236,4.101,4.058,4.0478,4.0516,4.0781,4.1141,4.1706,4.2374,4.2813,4.3002,4.3002,4.3002,4.3002,4.3002,4.3002,4.3002,4.3002,4.3002,4.3002,4.3002,0.0,0.0,0.0,0.0,0.0,0.0,2.7207,2.708,2.6951,2.6819,2.6792,2.6792,2.6792,2.6792,2.6792,0.0,0.0,0.0,0.0,0.0,0.0,0.0,0.0,0.0,0.0,0.0,0.0,0.0,0.0,0.0,0.0,0.0,0.0,0.0,0.0,0.0,0.0,0.0,0.0,0.0,0.0,0.0,0.0,0.0,0.0,0.0,0.0,0.0,0.0,0.0,0.0,3.5848,3.6342,3.7862,3.9542,3.9937,0.0,0.0,4.1732,4.2092,4.2092,4.2092,4.2092,4.1697,4.0164,0.0,0.0,3.7983,3.7953,3.8349,3.8842,3.9054,3.931,0.0,0.0,4.0377,0.0,0.0,0.0,0.0,0.0,0.0,0.0,0.0,0.0,0.0,0.0,4.1286,4.1286,4.1286,4.1286,4.1286,4.1286,4.1286,4.1286,4.1047,4.0908,4.0858,4.0377,4.0641,4.1589,4.1385,4.1879,4.2926,4.2977,4.3002,0.0,4.3002,4.3002,4.3002,4.3002,4.3002,4.3002,4.3002,4.3002,4.3002,0.0,0.0,0.0,0.0,0.0,0.0,2.7335,2.7209,2.7067,2.6938,2.6859,2.6792,2.6792,2.6792,2.6792,2.6792,0.0,0.0,0.0,0.0,0.0,0.0,0.0,0.0,0.0,0.0,0.0,0.0,0.0,0.0,0.0,0.0,0.0,0.0,0.0,0.0,0.0,0.0,0.0,0.0,0.0,0.0,0.0,0.0,0.0,0.0,0.0,0.0,0.0,0.0,0.0,0.0,3.4686,3.549,0.0,0.0,3.9691,4.0224,4.1703,4.2092,4.2092,4.2092,4.2092,4.1723,4.0289,0.0,3.95,3.8074,3.7801,3.793,3.8241,3.8265,3.8333,3.8596,0.0,0.0,0.0,0.0,0.0,0.0,0.0,0.0,0.0,0.0,0.0,0.0,0.0,4.1286,4.1286,4.1286,4.1286,4.1286,4.1286,4.1286,4.1286,4.1186,4.0972,4.0669,4.044,4.0718,4.1463,4.1369,4.1917,4.3002,4.3002,4.3002,0.0,4.3002,4.3002,4.3002,4.3002,4.3002,4.3002,4.3002,4.3002,4.3002,0.0,0.0,0.0,0.0,0.0,2.7549,2.7427,2.731,2.7207,2.7081,2.6951,2.6859,2.6859,2.6819,2.6819,2.6859,2.6859,0.0,0.0,0.0,0.0,0.0,0.0,0.0,0.0,0.0,3.0234,3.0402,0.0,0.0,0.0,0.0,0.0,0.0,0.0,0.0,0.0,0.0,0.0,0.0,0.0,0.0,0.0,0.0,0.0,0.0,0.0,0.0,0.0,0.0,0.0,0.0,0.0,0.0,0.0,0.0,3.8991,3.9668,4.1581,4.2092,4.2092,4.2092,4.1906,4.1395,0.0,0.0,3.9108,3.7954,3.7701,3.7739,3.7872,3.7777,3.772,3.7796,0.0,3.7946,0.0,0.0,0.0,0.0,0.0,0.0,0.0,0.0,0.0,0.0,4.1286,4.1286,4.1286,4.1286,4.1286,4.1286,4.1286,4.1261,4.1186,4.111,4.0833,4.0377,4.03,4.0539,4.1076,4.124,4.1856,4.2776,4.2926,4.3002,0.0,4.3002,4.3002,4.3002,4.3002,4.3002,4.3002,4.3002,4.3002,4.3002,0.0,0.0,0.0,0.0,0.0,0.0,2.7427,2.7401,2.735,2.722,2.708,2.7003,2.7003,2.6886,2.6859,2.699,2.7003,0.0,0.0,0.0,0.0,0.0,0.0,0.0,0.0,0.0,3.0402,3.0598,3.0402,3.0402,0.0,0.0,0.0,0.0,0.0,0.0,0.0,0.0,0.0,0.0,0.0,0.0,0.0,0.0,0.0,0.0,0.0,0.0,0.0,0.0,0.0,0.0,0.0,0.0,0.0,0.0,3.7715,3.837,4.1314,4.2092,4.2092,4.2092,4.1441,4.0573,0.0,0.0,3.8362,3.7488,3.7625,3.7891,3.7891,3.7891,3.7834,3.7644,3.7558,0.0,0.0,0.0,0.0,0.0,0.0,0.0,0.0,0.0,0.0,0.0,4.1286,0.0,4.1286,4.1286,4.1286,4.1286,4.1286,4.1186,4.0908,4.0643,4.0377,4.0096,3.9839,3.9986,4.0512,4.1064,4.1643,4.225,4.2763,4.3002,0.0,4.3002,4.3002,4.3002,4.3002,4.3002,4.3002,4.3002,4.3002,4.3002,0.0,0.0,0.0,0.0,0.0,0.0,2.7537,2.7463,2.7389,2.735,2.7222,2.7106,2.7003,2.7041,2.7091,2.713,2.7041,0.0,0.0,0.0,0.0,0.0,0.0,0.0,0.0,0.0,2.9929,3.0134,3.0379,3.0568,3.0747,3.0672,3.0522,0.0,0.0,0.0,0.0,0.0,0.0,0.0,0.0,0.0,0.0,0.0,0.0,0.0,0.0,0.0,0.0,0.0,0.0,0.0,0.0,0.0,0.0,3.5634,0.0,0.0,3.8691,3.9792,4.042,4.0022,4.0125,4.011,3.9272,0.0,3.8557,3.7681,3.7625,3.7701,3.7701,3.7701,3.7883,3.8409,3.7686,0.0,0.0,0.0,0.0,0.0,0.0,0.0,0.0,0.0,0.0,4.1286,4.1286,4.1286,4.1286,4.1286,4.1286,4.1286,4.1286,4.1186,4.0908,4.082,4.0542,4.0096,4.0006,4.0155,4.0499,4.0675,4.1279,4.2213,4.2389,4.2663,4.3002,4.3002,4.3002,4.3002,4.3002,4.3002,4.3002,4.3002,4.3002,4.3002,0.0,0.0,0.0,0.0,0.0,0.0,2.76,2.7539,2.7476,2.7476,2.7361,2.7233,2.7172,2.7181,2.722,2.7271,2.7196,0.0,0.0,0.0,0.0,0.0,0.0,0.0,2.8303,2.8985,2.9521,2.9899,3.0236,3.0572,3.091,3.0836,3.0687,3.0492,3.0627,0.0,0.0,0.0,0.0,0.0,0.0,0.0,3.1486,0.0,0.0,0.0,0.0,0.0,0.0,0.0,0.0,0.0,0.0,0.0,0.0,0.0,3.5101,3.5877,0.0,3.8504,3.9256,3.8869,3.9109,0.0,0.0,0.0,3.781,3.7634,3.7348,3.7263,3.7639,3.7605,3.7604,3.8022,3.7512,0.0,0.0,0.0,0.0,0.0,0.0,0.0,0.0,0.0,4.1286,4.1286,4.1286,4.1286,4.1286,4.1286,4.1261,4.1147,4.1236,4.111,4.0744,4.0744,4.0491,3.9955,3.9955,4.0041,4.0212,4.0425,4.089,4.1582,4.1997,4.2374,0.0,4.2926,4.3002,4.3002,4.3002,4.3002,4.3002,4.3002,4.3002,4.3002,0.0,0.0,0.0,0.0,0.0,0.0,0.0,2.76,2.76,2.76,2.7526,2.744,2.7401,2.7323,2.731,2.7389,2.744,0.0,0.0,0.0,0.0,0.0,0.0,0.0,2.7637,2.8427,2.9182,2.984,3.0028,3.0453,3.1102,3.091,3.0821,3.0791,3.0806,3.0642,3.0297,0.0,0.0,0.0,0.0,0.0,0.0,0.0,0.0,0.0,0.0,0.0,0.0,0.0,0.0,0.0,0.0,0.0,0.0,0.0,0.0,0.0,0.0,3.7887,0.0,0.0,0.0,0.0,0.0,0.0,0.0,3.7367,3.6959,3.6717,3.7682,3.7515,3.7162,3.6833,3.7099,0.0,0.0,0.0,0.0,0.0,0.0,0.0,0.0,0.0,4.1286,4.1286,4.1286,4.1286,4.1286,4.1286,4.1186,4.0933,4.1186,4.1035,4.0504,4.0478,4.0224,3.9723,3.9723,3.9697,3.971,4.0224,4.0449,0.0,4.162,4.2137,4.225,4.2738,4.2977,4.3002,4.3002,4.3002,4.3002,4.3002,4.3002,4.3002,0.0,0.0,0.0,0.0,0.0,0.0,0.0,0.0,0.0,0.0,2.7838,2.7853,2.7437,2.774,2.7815,0.0,0.0,0.0,0.0,0.0,0.0,0.0,0.0,0.0,2.7012,2.7904,2.8672,2.9278,2.9948,3.0597,3.1249,3.1205,3.1043,3.0806,3.0955,3.0836,3.0522,3.0507,0.0,0.0,0.0,0.0,0.0,0.0,0.0,0.0,3.1418,3.1195,0.0,0.0,0.0,0.0,0.0,0.0,0.0,0.0,3.3406,3.3635,3.4178,0.0,3.6822,3.6338,3.6669,0.0,0.0,0.0,0.0,0.0,0.0,3.6807,3.7343,3.7109,3.6957,3.7332,3.7137,0.0,0.0,0.0,0.0,0.0,0.0,0.0,0.0,0.0,4.1286,4.1286,4.1286,4.1286,4.1286,4.1286,4.1261,4.1211,4.1261,4.1035,4.0504,4.0287,4.0134,4.0006,3.9788,3.9697,3.9697,3.9823,4.0111,4.0499,4.0789,4.1379,4.2213,4.2351,4.2625,4.3002,4.3002,4.3002,4.3002,4.3002,4.3002,4.3002,0.0,0.0,0.0,0.0,0.0,0.0,0.0,0.0,0.0,0.0,2.8204,2.831,2.803,2.8122,2.8076,0.0,0.0,0.0,0.0,0.0,0.0,0.0,0.0,2.7028,2.6884,2.7457,2.8088,2.8779,2.9582,3.0321,3.0947,3.1173,3.1205,3.1029,3.1073,3.1028,3.091,3.0762,3.0687,0.0,3.0507,0.0,0.0,0.0,0.0,0.0,3.0973,3.0741,0.0,3.0124,3.097,3.2078,0.0,0.0,0.0,0.0,3.3308,3.3308,3.3308,3.4325,3.5318,3.4979,3.5508,3.6206,0.0,0.0,0.0,0.0,0.0,0.0,3.6958,3.656,0.0,3.6414,3.643,0.0,0.0,0.0,0.0,0.0,0.0,0.0,0.0,0.0,4.1286,4.1286,4.1286,4.1286,4.1286,4.1286,4.1236,4.1122,4.1135,4.0972,4.0694,4.0415,4.0211,4.0096,3.9839,3.9697,3.9697,3.9697,3.986,4.0162,4.0386,4.0852,4.1444,4.1681,4.1957,4.2258,4.2524,4.2625,4.2663,4.2914,4.3002,4.3002,0.0,0.0,0.0,0.0,0.0,0.0,0.0,0.0,0.0,0.0,0.0,0.0,0.0,0.0,0.0,0.0,0.0,0.0,0.0,0.0,0.0,0.0,2.7433,2.717,2.7029,2.717,2.761,2.8393,2.9092,2.9817,3.0507,3.0962,3.1217,3.1263,3.1146,3.1117,3.1175,3.091,3.0791,3.0762,3.0598,0.0,0.0,0.0,0.0,0.0,0.0,0.0,0.0,2.9665,3.0543,3.1688,3.1551,0.0,0.0,0.0,0.0,0.0,3.3308,3.3704,3.413,3.4185,3.4705,3.5346,0.0,0.0,0.0,0.0,0.0,0.0,0.0,0.0,0.0,0.0,0.0,0.0,0.0,0.0,0.0,0.0,0.0,0.0,4.1234,4.1286,4.1286,4.1286,4.1286,4.1286,4.1286,4.1286,4.1211,4.0972,4.0959,4.0959,4.0959,4.0643,4.0415,4.0224,3.9916,3.9762,3.9762,3.9723,3.9697,3.9722,0.0,0.0,4.0551,4.0989,4.124,4.1352,4.1844,4.211,4.2263,4.2713,4.2926,4.3002,0.0,0.0,0.0,0.0,0.0,0.0,0.0,0.0,0.0,0.0,0.0,0.0,0.0,0.0,0.0,0.0,0.0,0.0,0.0,0.0,0.0,2.8391,2.7738,2.7312,2.7168,2.7297,2.77,2.8393,2.8644,2.9355,3.0507,3.0584,3.08,3.1117,3.1117,3.0955,3.0702,3.0777,3.0732,3.0598,3.0417,0.0,0.0,0.0,0.0,0.0,0.0,0.0,0.0,2.9696,3.0543,3.1688,3.1551,0.0,0.0,0.0,0.0,0.0,3.3308,3.3493,3.3785,3.4112,3.4291,3.4552,0.0,0.0,0.0,0.0,0.0,0.0,0.0,0.0,0.0,0.0,0.0,0.0,0.0,0.0,0.0,0.0,0.0,4.1194,4.1286,4.1286,4.1286,4.1286,4.1286,4.1286,4.1286,4.1286,4.1286,4.1236,4.1236,4.1236,4.1236,4.0757,4.0593,4.0782,4.0287,4.0032,4.0032,3.9788,3.9697,3.9697,0.0,4.0086,4.0499,4.0587,4.0888,4.1327,4.1403,4.1743,4.2213,4.2273,4.26,4.3002,0.0,0.0,0.0,0.0,0.0,0.0,0.0,0.0,0.0,0.0,0.0,0.0,0.0,0.0,0.0,0.0,0.0,0.0,0.0,0.0,2.9186,2.8939,2.8232,2.7665,2.731,2.7376,2.7601,2.7974,2.8386,2.8906,2.949,3.0096,3.0711,3.1307,3.1161,3.1058,3.097,3.0851,3.0821,3.0836,0.0,0.0,0.0,0.0,0.0,0.0,0.0,0.0,0.0,0.0,3.0607,3.1821,3.1655,0.0,0.0,0.0,0.0,0.0,3.3308,3.3363,3.3583,3.415,3.4224,3.4283,0.0,0.0,0.0,0.0,0.0,0.0,0.0,0.0,0.0,0.0,0.0,0.0,0.0,0.0,0.0,0.0,0.0,4.1286,4.1286,4.1286,4.1286,4.1286,4.1286,4.1286,4.1286,4.1286,4.1286,4.1286,4.1286,4.1286,4.1286,4.106,4.0921,4.0883,4.0351,4.0096,4.0096,3.9813,3.9697,3.9697,0.0,3.9835,4.0074,4.0074,4.0224,4.0487,4.1076,4.1465,4.1794,4.2411,4.2788,4.3002,0.0,0.0,0.0,0.0,0.0,0.0,0.0,0.0,0.0,0.0,0.0,0.0,0.0,0.0,0.0,0.0,0.0,0.0,0.0,2.9441,2.9362,2.9175,2.8625,2.8085,2.759,2.7488,2.7501,2.76,2.8111,2.8532,2.8861,2.9874,3.0739,3.1438,3.1205,3.1132,3.1161,3.0881,3.0836,3.0969,0.0,0.0,0.0,0.0,0.0,0.0,0.0,0.0,0.0,0.0,0.0,0.0,0.0,0.0,0.0,3.3605,3.3466,3.3308,3.3308,3.3336,3.3585,3.4505,3.4586,0.0,0.0,0.0,0.0,0.0,0.0,0.0,0.0,0.0,0.0,0.0,0.0,0.0,0.0,0.0,0.0,3.956,4.0618,4.1286,4.1286,4.1286,4.1286,4.1286,4.1286,4.1286,4.1286,4.1286,4.1286,4.1286,4.1286,4.1286,4.1286,4.1286,4.1186,4.0883,4.0415,4.0147,4.0096,3.9813,3.9697,3.9697,3.9697,3.9697,3.9697,3.9697,3.9697,3.9772,4.06,4.1001,4.1252,4.2384,4.2738,4.261,0.0,0.0,0.0,0.0,0.0,0.0,0.0,0.0,0.0,0.0,0.0,0.0,0.0,0.0,0.0,0.0,0.0,0.0,0.0,2.9863,2.9515,2.8783,2.8685,2.8503,2.8149,2.7775,2.76,2.76,2.7645,2.8319,2.9533,3.0179,3.0781,3.1307,3.1161,3.0999,3.0821,3.0687,3.0627,3.0642,3.0627,0.0,0.0,0.0,0.0,0.0,0.0,0.0,0.0,0.0,0.0,0.0,0.0,0.0,3.3605,3.3605,3.3466,3.3308,3.3308,3.343,3.3914,3.5346,3.5555,0.0,3.5524,3.6022,0.0,0.0,0.0,0.0,0.0,0.0,0.0,0.0,0.0,0.0,0.0,0.0,3.9536,3.9599,4.0618,4.1286,4.1286,4.1286,4.1286,4.1286,4.1286,4.1286,4.1286,4.1286,4.1286,4.1286,4.1286,4.1286,4.1286,4.1286,4.1186,4.0908,4.0605,4.0338,4.0096,3.9813,3.9697,3.9697,3.9697,3.9697,3.9697,3.9697,3.9697,3.9697,3.9785,4.0124,4.0714,4.1833,4.1894,4.1503,0.0,0.0,0.0,0.0,0.0,0.0,0.0,0.0,0.0,0.0,0.0,0.0,0.0,0.0,0.0,0.0,0.0,0.0,0.0,2.9907,2.9643,2.9101,2.8842,2.8535,2.821,2.7813,2.76,2.76,2.76,2.8079,2.8981,2.9516,3.0129,3.0797,3.0998,3.1058,3.0984,3.0791,3.0687,3.0598,3.0598,3.0598,0.0,0.0,0.0,0.0,0.0,0.0,0.0,0.0,3.0971,3.2193,3.2177,3.2851,3.3623,3.3744,3.3553,3.3308,3.3308,3.3439,3.3937,3.5325,3.6016,0.0,0.0,3.6433,3.6098,3.5414,0.0,0.0,0.0,0.0,0.0,0.0,0.0,0.0,0.0,3.8893,3.9612,3.9612,4.0618,4.1286,4.1286,4.1286,4.1286,4.1286,4.1286,4.1286,4.1286,4.1286,4.1286,4.1286,4.1286,4.1286,4.1286,4.1122,4.0921,4.0643,4.0555,4.0377,4.0096,3.9813,3.9697,3.9697,3.9697,3.9697,3.9697,3.9697,3.9697,3.9722,4.0074,4.0512,4.1051,4.1492,4.149,4.134,0.0,0.0,0.0,0.0,0.0,0.0,0.0,0.0,0.0,0.0,0.0,0.0,0.0,0.0,0.0,0.0,0.0,0.0,2.9907,2.9907,2.9654,2.9124,2.8854,2.8475,2.8011,2.7738,2.76,2.76,2.76,2.7931,2.8607,2.9158,2.9784,3.0523,3.0923,3.1102,3.1087,3.0836,3.0687,3.0598,3.0598,3.0553,0.0,0.0,0.0,0.0,0.0,0.0,0.0,0.0,3.1063,3.2,3.2152,3.2615,3.3112,3.318,3.2873,3.2521,3.2681,3.2745,3.3197,0.0,0.0,0.0,3.73,3.7217,3.6762,3.5999,0.0,0.0,0.0,0.0,0.0,0.0,0.0,3.79,3.79,3.8893,3.9612,3.9612,4.0618,4.1286,4.1286,4.1286,4.1286,4.1286,4.1286,4.1286,4.1286,4.1286,4.1286,4.1286,4.1286,4.1286,4.1286,4.1022,4.077,4.0504,4.0415,4.0236,3.9981,3.9788,3.9697,3.9697,3.9697,3.9697,3.9697,3.9697,3.9697,3.9735,4.0111,4.0462,4.0813,4.0989,4.0938,4.0826,0.0,0.0,0.0,0.0,0.0,0.0,0.0,0.0,0.0,0.0,0.0,0.0,0.0,0.0,0.0,0.0,0.0,0.0,2.988,2.988,2.9542,2.8732,2.8697,2.8355,2.7625,2.76,2.76,2.76,2.76,2.7931,2.8607,2.9279,2.9922,3.0508,3.0923,3.1102,3.1087,3.0747,3.0598,3.0598,3.0598,3.0477,3.0297,0.0,0.0,0.0,0.0,0.0,0.0,0.0,3.1104,3.1549,3.1881,3.1999,3.1966,3.1756,3.1244,3.0829,3.1363,3.1277,0.0,0.0,0.0,0.0,3.7641,3.8505,3.8697,3.8024,0.0,0.0,0.0,0.0,0.0,3.6907,3.7508,3.79,3.79,3.888,3.9599,3.9612,4.0594,4.1286,4.1286,4.1286,4.1286,4.1286,4.1286,4.1286,4.1286,4.1286,4.1286,4.1286,4.1286,4.1286,4.1286,4.1022,4.077,4.0478,4.0211,3.9955,3.9697,3.9697,3.9697,3.9697,3.9697,3.9697,3.9697,3.9697,3.9697,3.9697,3.9697,3.9697,3.976,4.0312,4.0162,3.9772,0.0,0.0,0.0,0.0,0.0,0.0,0.0,0.0,0.0,0.0,0.0,0.0,0.0,0.0,0.0,0.0,0.0,0.0,2.9497,2.9475,2.914,2.8374,2.835,2.8107,2.7612,2.76,2.76,2.76,2.76,2.7705,2.7916,2.9082,2.9698,2.9922,3.0917,3.1278,3.1102,3.0984,3.0821,3.0583,3.0447,3.0447,3.0492,0.0,0.0,0.0,0.0,0.0,0.0,0.0,0.0,0.0,3.1427,3.1641,3.1772,3.1723,3.149,3.138,3.196,0.0,0.0,0.0,0.0,0.0,0.0,3.8075,0.0,0.0,0.0,0.0,0.0,0.0,0.0,3.6972,3.7508,3.79,3.79,3.8527,3.9128,3.956,4.0215,4.0816,4.1247,4.1286,4.1286,4.1286,4.1286,4.1286,4.1286,4.1286,4.1286,4.1286,4.1286,4.1211,4.1022,4.0744,4.0491,4.0211,3.9968,3.9788,3.9697,3.9697,3.9697,3.9697,3.9697,3.9697,3.9697,3.9697,3.9697,3.9697,3.9697,3.9697,3.971,3.9873,3.9835,3.9722,0.0,0.0,0.0,0.0,0.0,0.0,0.0,0.0,0.0,0.0,0.0,0.0,0.0,0.0,0.0,0.0,0.0,0.0,0.0,2.9305,2.8982,2.8235,2.8198,2.7999,2.7612,2.76,2.76,2.76,2.76,2.76,2.7642,2.8964,2.9593,2.9653,3.0828,3.1249,3.1102,3.0955,3.0777,3.0583,3.0477,3.0447,3.0477,0.0,0.0,0.0,0.0,0.0,0.0,0.0,0.0,0.0,3.1015,3.103,3.0892,3.062,3.0721,3.1051,3.1646,0.0,0.0,0.0,0.0,0.0,0.0,0.0,0.0,0.0,0.0,0.0,3.7341,3.7364,0.0,3.7364,3.7665,3.79,3.79,3.837,3.8817,3.9207,3.9939,4.0528,4.0919,4.1142,4.1286,4.1286,4.1286,4.1286,4.1286,4.1286,4.1286,4.1286,4.1211,4.1047,4.0908,4.0516,4.0262,4.0096,3.9839,3.9697,3.9697,3.9697,3.9697,3.9697,3.9697,3.9697,3.9697,3.9697,3.9697,3.9697,3.9697,3.9697,3.9697,3.9697,3.9697,3.9697,0.0,0.0,0.0,0.0,0.0,0.0,0.0,0.0,0.0,0.0,0.0,0.0,0.0,0.0,0.0,0.0,0.0,0.0,0.0,2.9225,2.8873,2.8186,2.8149,2.7974,2.7612,2.76,2.76,2.76,2.76,2.76,2.7642,2.8964,2.9593,2.9639,3.0656,3.1117,3.1102,3.0762,3.0627,3.0627,3.0568,3.0477,3.0327,3.0297,0.0,0.0,0.0,0.0,0.0,0.0,0.0,0.0,3.0627,3.0259,2.9623,2.9042,2.9404,3.0147,3.0861,0.0,0.0,0.0,0.0,0.0,0.0,0.0,0.0,0.0,0.0,0.0,3.79,3.79,3.79,3.79,3.79,3.79,3.79,3.8331,3.8658,3.8697,3.9601,4.0254,4.0306,4.0816,4.1155,4.1194,4.1207,4.1234,4.1286,4.1286,4.1286,4.1261,4.1022,4.0883,4.0833,4.0326,4.0096,4.0057,3.9813,3.9697,3.9697,3.9697,3.9697,3.9697,3.9697,3.9697,3.9697,3.9697,3.9697,3.9697,3.9697,3.9697,3.9697,3.9697,3.9697,3.9697,0.0,0.0,0.0,0.0,0.0,0.0,0.0,0.0,0.0,0.0,0.0,0.0,0.0,0.0,0.0,0.0,0.0,0.0,0.0,2.859,2.822,2.775,2.7725,2.7688,2.76,2.76,2.76,2.76,2.76,2.76,2.7642,2.8964,2.9593,2.9653,3.0756,3.1263,3.1234,3.0895,3.0762,3.0732,3.0477,3.0432,3.0522,3.0372,3.0297,0.0,0.0,0.0,0.0,0.0,0.0,0.0,3.0039,2.9655,2.9275,2.9385,2.9698,3.0321,0.0,3.3273,0.0,0.0,0.0,0.0,0.0,0.0,0.0,0.0,0.0,0.0,3.79,3.79,3.79,3.79,3.79,3.79,3.79,3.8004,3.824,3.8658,3.8932,3.9235,3.9743,3.9899,4.0136,4.0554,4.0581,4.079,4.126,4.1286,4.1211,4.0997,4.0933,4.0706,4.0287,4.0147,3.9981,3.9788,3.9723,3.9697,3.9697,3.9697,3.9697,3.9697,3.9697,3.9697,3.9697,3.9697,3.9697,3.9697,3.9697,3.9697,3.9697,3.9697,3.9697,3.9697,0.0,0.0,0.0,0.0,0.0,0.0,0.0,0.0,0.0,0.0,0.0,0.0,0.0,0.0,0.0,0.0,0.0,0.0,0.0,0.0,2.8011,2.7625,2.76,2.76,2.76,2.76,2.76,2.76,2.76,2.7562,2.7531,2.8845,2.9415,2.942,3.054,3.1058,3.1043,3.0806,3.0702,3.0687,3.0507,3.0507,3.0583,3.0477,3.0447,3.0447,0.0,0.0,0.0,0.0,0.0,0.0,0.0,0.0,2.9061,2.9513,2.9852,3.0507,0.0,0.0,0.0,0.0,0.0,0.0,0.0,0.0,0.0,0.0,0.0,0.0,3.79,3.79,3.79,3.79,3.79,3.79,3.79,3.79,3.8004,3.8292,3.8553,3.8804,3.9155,3.9442,3.973,3.9993,4.003,4.0088,4.0265,4.0551,4.057,4.0345,4.0451,4.0377,4.0096,3.9981,3.9839,3.9697,3.9697,3.9697,3.9697,3.9697,3.9697,3.9697,3.9697,3.9697,3.9697,3.9697,3.9697,3.9697,3.9697,3.9697,3.9697,3.9697,3.9697,3.9697,0.0,0.0,0.0,0.0,0.0,0.0,0.0,0.0,0.0,0.0,0.0,0.0,0.0,0.0,0.0,0.0,0.0,0.0,0.0,0.0,0.0,2.7725,2.7638,2.76,2.76,2.76,2.76,2.76,2.7575,2.7546,2.7556,2.8742,2.9236,2.9143,3.028,3.0791,3.0791,3.0672,3.0598,3.0598,3.0553,3.0553,3.0552,3.0507,3.0507,3.0492,0.0,0.0,0.0,0.0,0.0,0.0,0.0,0.0,2.8816,2.9613,2.99,3.0559,0.0,0.0,0.0,0.0,0.0,0.0,0.0,0.0,0.0,0.0,0.0,3.79,3.79,3.79,3.79,3.79,3.79,3.79,3.79,3.79,3.79,3.79,3.8292,3.8566,3.8566,3.9,3.9327,3.9455,3.9407,3.9351,3.9212,3.9592,3.9702,3.9492,3.9676,3.9791,3.9728,3.9524,3.9396,3.9408,3.9496,3.9597,3.9697,3.9697,3.9697,3.9697,3.9697,3.9697,3.9697,3.9697,3.9697,3.9697,3.9697,3.9697,3.9697,3.9697,3.9697,3.9697,0.0,0.0,0.0,0.0,0.0,0.0,0.0,0.0,0.0,0.0,0.0,0.0,0.0,0.0,0.0,0.0,0.0,0.0,0.0,0.0,0.0,2.8125,2.7788,2.76,2.76,2.76,2.76,2.76,2.7488,2.7632,2.8021,2.8896,2.9236,2.9143,3.028,3.0791,3.0791,3.0672,3.0598,3.0568,3.0417,3.0341,3.0326,3.0204,3.0172,3.0157,0.0,0.0,0.0,0.0,2.9822,0.0,0.0,0.0,2.8408,2.9933,2.9918,3.0167,0.0,0.0,0.0,0.0,0.0,0.0,0.0,0.0,0.0,0.0,3.79,3.79,3.79,3.79,3.79,3.79,3.79,3.79,3.79,3.79,3.79,3.79,3.7965,3.8018,3.8018,3.8083,3.8331,3.8789,3.8676,3.8754,3.9175,3.9058,3.8829,3.8585,3.8599,3.8513,3.8278,3.8228,3.8228,3.8228,3.8768,3.9258,3.9697,3.9697,3.9697,3.9697,3.9697,3.9697,3.9697,3.9697,3.9697,3.9697,3.9697,3.9697,3.9697,3.9697,3.9697,3.9697,0.0,0.0,0.0,0.0,0.0,0.0,0.0,0.0,0.0,0.0,0.0,0.0,0.0,0.0,0.0,0.0,0.0,0.0,0.0,0.0,0.0,2.7875,2.77,2.76,2.76,2.7539,2.7511,2.76,2.7399,2.7558,2.8114,2.8776,2.9178,2.9404,3.0176,3.0568,3.0672,3.0416,3.0371,3.0417,3.0249,3.0526,3.0968,3.0346,3.0447,3.086,0.0,0.0,0.0,0.0,0.0,0.0,2.9713,0.0,0.0,0.0,0.0,0.0,0.0,0.0,0.0,0.0,0.0,0.0,0.0,0.0,0.0,0.0,3.79,3.79,3.79,3.79,3.79,3.79,3.79,3.79,3.79,3.79,3.79,3.79,3.79,3.79,3.79,3.7749,3.7784,3.8018,3.7821,3.7713,3.7778,3.8002,3.7988,3.7745,3.8024,3.8114,3.8002,3.8002,3.8002,3.8015,3.8617,3.9019,3.9271,3.9546,3.9697,3.9697,3.9697,3.9697,3.9697,3.9697,3.9697,3.9697,3.9697,3.9697,3.9697,3.9697,3.9522,3.9258,0.0,0.0,0.0,0.0,0.0,0.0,0.0,0.0,0.0,0.0,0.0,0.0,0.0,0.0,0.0,0.0,0.0,0.0,0.0,0.0,0.0,2.7775,2.765,2.7587,2.7549,2.745,2.7427,2.7448,2.7207,2.7401,2.8006,2.8501,2.9029,2.9624,3.0083,3.0341,3.0387,3.0173,3.0127,3.0189,3.0345,3.0843,3.1434,0.0,0.0,3.1142,3.02,0.0,0.0,0.0,0.0,0.0,0.0,0.0,0.0,0.0,0.0,0.0,0.0,0.0,0.0,0.0,0.0,0.0,0.0,0.0,0.0,0.0,3.79,3.79,3.79,3.79,3.79,3.79,3.79,3.79,3.79,3.79,3.79,3.79,3.7831,3.7808,3.7808,3.7564,3.7413,3.7413,3.7155,3.6909,3.6709,3.708,3.7201,3.6997,3.7374,3.7588,3.7588,3.7588,3.7663,3.7801,3.8253,3.8542,3.8693,3.9233,3.9484,3.9496,3.9634,3.9697,3.9697,3.9697,3.9697,3.9697,3.9697,3.9697,3.9697,3.9697,3.9459,3.9107,0.0,0.0,0.0,0.0,0.0,0.0,0.0,0.0,0.0,0.0,0.0,0.0,2.9907,2.9907,2.9748,2.9362,2.9294,2.9078,2.8662,2.865,2.8511,2.8171,2.78,0.0,2.7414,2.7401,2.7273,2.7029,2.6884,2.7124,2.7721,2.8067,2.8713,2.9624,3.0083,3.0129,2.9839,0.0,0.0,0.0,0.0,0.0,0.0,0.0,0.0,0.0,0.0,0.0,0.0,0.0,0.0,0.0,0.0,0.0,2.8326,0.0,0.0,0.0,0.0,0.0,0.0,0.0,0.0,0.0,0.0,0.0,0.0,0.0,3.79,3.79,3.79,3.79,3.79,3.79,3.79,3.79,3.79,3.79,3.79,3.79,3.768,3.7528,3.7528,3.7284,3.7108,3.7108,3.6862,3.6709,3.6686,3.6548,3.6455,3.6455,3.648,3.6493,3.6493,3.6493,3.6733,3.7248,3.7286,3.755,3.8065,3.868,3.8931,3.8969,3.9497,3.9697,3.9697,3.9697,3.9697,3.9697,3.9697,3.9697,3.9697,3.9697,3.9672,3.9647,0.0,0.0,0.0,0.0,0.0,0.0,0.0,0.0,0.0,0.0,0.0,0.0,0.0,2.9907,2.9836,2.9704,2.9452,2.9036,2.8422,2.8386,2.8204,2.7825,2.7675,2.7537,2.7401,2.731,2.722,2.7131,2.6777,2.699,2.7707,2.818,2.8656,2.9169,2.9722,3.0038,3.0114,2.9882,0.0,0.0,0.0,0.0,0.0,0.0,0.0,0.0,0.0,0.0,0.0,0.0,0.0,0.0,0.0,2.8305,2.8251,2.9006,0.0,0.0,0.0,0.0,0.0,0.0,0.0,0.0,0.0,0.0,0.0,3.79,3.79,3.79,3.79,3.79,3.79,3.79,3.79,3.79,3.79,3.79,3.7831,3.7657,3.7564,3.7436,3.7261,3.7015,3.6839,3.6839,3.6628,3.6523,3.6523,3.6428,3.6405,3.6405,3.6405,3.6405,3.6405,3.6405,3.6505,3.6683,3.7034,3.7287,3.75,3.8065,3.8316,3.8329,3.853,3.9019,3.9697,3.9697,3.9697,3.9697,3.9697,3.9697,3.9697,3.9697,3.9471,3.9195,0.0,0.0,0.0,0.0,0.0,0.0,0.0,0.0,0.0,2.988,0.0,0.0,0.0,0.0,2.9885,2.9841,2.943,2.892,2.8341,2.8504,2.8433,2.7957,2.8089,2.8014,2.7676,2.7519,2.7257,2.6909,2.6592,2.6815,2.7585,2.8039,2.854,2.9094,2.9524,2.9867,0.0,0.0,0.0,2.983,0.0,0.0,3.2433,0.0,0.0,0.0,0.0,0.0,0.0,0.0,0.0,0.0,0.0,2.8237,2.8199,2.8755,0.0,0.0,0.0,0.0,0.0,0.0,0.0,0.0,0.0,0.0,3.7273,3.7537,3.7756,3.79,3.79,3.79,3.79,3.79,3.79,3.79,3.79,3.79,3.7808,3.7528,3.7413,3.7261,3.6992,3.6745,3.6604,3.6604,3.6476,0.0,3.6405,3.6405,3.6405,3.6405,3.6405,3.6405,3.6405,3.6405,3.6405,3.6394,3.6758,3.6934,3.6947,3.7475,3.7726,3.7739,3.7927,3.8429,3.9132,3.9132,3.9132,3.9132,3.9132,3.9245,3.9446,3.9446,3.9321,3.917,0.0,0.0,0.0,0.0,0.0,0.0,0.0,0.0,2.9742,2.9874,0.0,0.0,0.0,0.0,0.0,2.9725,2.9213,2.8791,2.8573,2.9141,2.9215,2.8648,2.9044,2.8924,2.8207,2.7976,2.7361,2.6313,2.6328,2.6655,2.7297,2.7654,2.8407,2.9404,2.9551,2.9617,2.9629,0.0,2.9587,2.9715,0.0,3.1858,3.237,0.0,0.0,0.0,3.0701,3.0077,0.0,3.0645,0.0,0.0,0.0,2.8272,2.8235,2.8769,0.0,0.0,0.0,0.0,0.0,0.0,0.0,0.0,0.0,0.0,3.5989,3.6797,3.7429,3.7848,3.7848,3.7848,3.7861,3.7874,3.79,3.79,3.79,3.79,3.7808,3.7528,3.7261,3.6992,3.6722,3.6523,3.6405,3.6405,3.6405,3.6405,3.6405,3.6405,3.6405,3.6405,3.6405,3.6405,3.6405,3.6405,3.6405,3.6405,3.6405,3.6405,3.643,3.6934,3.7185,3.7223,3.7726,3.7952,3.7965,3.799,3.8002,3.8002,3.8002,3.8354,3.8869,3.8869,3.9208,3.9647,0.0,0.0,0.0,0.0,0.0,0.0,2.9552,2.9552,2.9563,0.0,0.0,0.0,2.9619,2.9608,2.9789,3.0241,2.9257,2.9005,2.9968,2.9284,2.8931,2.909,2.8811,2.8438,2.7991,2.7499,2.6979,2.6431,2.6837,2.7042,2.7102,2.8107,2.8942,2.955,2.9675,2.9921,3.0219,2.9783,0.0,0.0,3.1503,3.2147,0.0,0.0,0.0,0.0,0.0,3.1808,3.1227,0.0,3.0527,2.9544,0.0,0.0,0.0,0.0,0.0,0.0,2.9811,0.0,0.0,0.0,0.0,0.0,0.0,0.0,0.0,3.5518,3.6104,3.6606,3.6606,3.6606,3.6737,3.7181,3.7625,3.79,3.79,3.79,3.7726,3.7261,3.7144,3.6945,3.6523,3.6428,3.6405,0.0,3.6405,3.6405,3.6405,3.6405,3.6405,3.6405,3.6405,3.6405,3.6405,3.6405,3.6405,3.6405,3.6405,3.6405,3.6417,3.6545,3.6607,3.662,3.6771,3.6833,3.6896,3.7676,3.8002,3.8002,3.8002,3.8103,3.8216,3.8042,3.8191,3.8442,0.0,0.0,0.0,0.0,0.0,2.953,2.9879,2.9687,2.9518,0.0,0.0,0.0,2.9907,3.0044,3.0271,3.068,2.9759,2.9482,3.0258,2.9741,2.9484,2.9719,2.9282,2.8777,2.8252,2.7626,2.7104,2.6711,2.711,2.7612,2.8221,2.8883,2.9531,3.0106,0.0,0.0,0.0,0.0,0.0,0.0,3.1053,0.0,0.0,3.2722,3.3141,0.0,0.0,0.0,3.201,3.1904,3.097,0.0,0.0,0.0,0.0,0.0,0.0,0.0,0.0,0.0,0.0,0.0,0.0,0.0,3.1381,3.2723,3.4034,0.0,3.5644,3.6109,3.6109,3.6109,3.6227,3.6567,3.692,3.7325,3.7835,3.7808,3.7588,3.7155,3.7015,3.6792,3.6428,3.6405,3.6405,3.6405,3.6405,3.6405,3.6405,3.6405,3.6405,3.6405,3.6405,3.6405,3.6405,3.6405,3.6405,3.6405,3.6405,3.6405,3.6405,3.6405,3.6405,3.6405,3.6405,3.6405,3.6455,3.7072,3.7324,3.7324,3.7324,3.7462,3.7639,3.7356,3.7506,3.7804,0.0,0.0,2.9523,3.0191,2.975,2.9546,3.026,2.992,2.9619,0.0,2.9717,2.9913,3.0492,3.0819,3.0992,3.102,3.043,3.0063,3.008,3.0307,3.0398,3.0256,2.9955,2.9418,2.8579,2.7972,2.7491,2.7103,2.7413,2.8396,2.9964,2.9863,3.0187,3.0883,0.0,0.0,0.0,0.0,0.0,2.9754,3.035,3.1178,0.0,0.0,3.2344,3.3464,3.261,3.2398,3.2511,3.2511,3.1564,0.0,0.0,0.0,0.0,0.0,2.9428,0.0,0.0,0.0,0.0,0.0,0.0,0.0,3.0516,3.1381,3.2355,3.4321,3.5161,3.5561,3.5561,3.5583,3.5583,3.5604,3.5722,3.6244,3.7475,3.7462,3.7222,3.6983,3.675,3.6564,3.6416,3.6405,3.6405,3.6405,3.6405,3.6405,3.6405,3.6405,3.6405,3.6405,3.6405,3.6405,3.6405,3.6405,3.6405,3.6405,3.6405,3.6405,3.6405,3.6405,3.6405,3.6405,3.6405,3.6405,3.6405,3.6405,3.6405,3.6405,3.6405,3.6683,3.7086,3.682,3.6997,3.7394,0.0,0.0,2.9521,2.9653,2.9473,2.9348,2.9503,2.9831,3.0069,3.0093,3.0549,3.0888,3.0903,3.0867,3.0907,3.108,3.0279,3.0175,3.113,3.0549,3.0129,2.9985,2.94,2.8676,2.7746,2.7603,2.7638,2.781,2.8831,2.9675,3.0393,3.0897,3.1206,3.1338,3.0755,0.0,0.0,0.0,0.0,3.0458,3.1826,0.0,3.2969,3.3133,3.3019,3.2745,3.287,3.2739,3.2511,3.2574,3.2366,3.1968,0.0,0.0,0.0,0.0,0.0,0.0,0.0,0.0,0.0,0.0,0.0,0.0,2.8635,2.9308,3.0082,0.0,3.1722,3.224,3.224,3.2334,3.2421,3.2454,3.3388,3.457,3.5998,3.6152,3.6141,3.6136,3.6095,3.6157,3.6391,3.6405,3.6405,3.6405,3.6405,3.6405,3.6405,3.6405,3.6405,3.6405,3.6405,3.6405,3.6405,3.6405,3.6405,3.6405,3.6405,3.6405,3.6405,3.6405,3.6405,3.6405,3.6405,3.6405,3.6405,3.6405,3.6405,3.6405,3.6405,3.6444,3.6521,3.6248,3.6227,3.6278,0.0,2.9674,2.9448,2.9867,2.9811,2.9847,3.0279,3.0549,3.0701,3.0701,3.1177,3.145,3.1309,3.1358,3.1359,3.1307,3.0588,3.0422,3.1116,3.0499,3.0103,3.0103,2.9392,2.8901,2.8697,2.8426,2.861,2.9245,2.9927,3.0656,3.1454,3.1794,3.1649,3.1107,3.1033,0.0,0.0,0.0,3.0521,3.1247,3.1717,0.0,3.2725,3.2996,3.2976,3.2819,3.3023,3.2978,3.2824,3.2959,3.2727,0.0,0.0,3.1926,3.174,0.0,3.0598,3.0739,0.0,0.0,0.0,2.8493,0.0,0.0,0.0,2.901,2.9567,3.0503,3.1028,3.1221,3.0913,0.0,3.0952,3.1003,3.2037,3.3085,3.3728,3.4843,3.5577,3.5511,3.5378,3.5478,3.5906,3.5956,3.6069,3.6392,3.6405,3.6405,3.6405,3.6405,3.6405,3.6405,3.6405,3.6405,3.6405,3.6405,3.6405,3.6405,3.6405,3.6405,3.6405,3.6405,3.6405,3.6405,3.6405,3.6156,3.5786,3.5786,3.5571,3.5271,3.6097,3.6405,3.6358,3.5955,3.5788,3.574,0.0,0.0,2.9765,3.0497,3.0458,3.0571,3.1284,3.1367,3.141,3.159,3.1678,3.1776,3.1877,3.1985,3.1921,3.1631,3.1146,3.0848,3.0776,3.0517,3.0333,3.025,2.9756,2.9606,2.9866,2.9575,2.9838,3.0696,3.0809,3.1371,3.2412,3.2279,3.1618,3.0527,3.1109,0.0,0.0,0.0,0.0,3.1675,0.0,3.1811,3.2669,3.2686,3.287,3.3154,3.3124,3.3124,3.3163,3.3242,3.2921,3.2516,3.2646,3.2478,0.0,0.0,0.0,0.0,0.0,0.0,0.0,0.0,0.0,2.7138,0.0,0.0,0.0,0.0,0.0,0.0,0.0,0.0,0.0,0.0,0.0,0.0,0.0,3.2986,0.0,3.4825,3.4687,3.4753,3.5282,3.5433,3.5707,3.6193,3.6318,3.6405,3.6405,3.6405,3.6405,3.6405,3.6405,3.6405,3.6405,3.6405,3.6405,3.6405,3.6405,3.6405,3.6405,3.6405,3.6405,3.6381,3.6127,3.5724,3.5186,3.4945,3.4546,3.4194,3.5519,3.6057,3.6037,3.5665,3.5426,3.5235,3.0509,3.08,0.0,3.143,3.1247,3.1153,3.1363,3.1688,3.2188,3.2951,3.2173,3.1887,0.0,0.0,0.0,0.0,0.0,0.0,3.0671,0.0,3.0977,3.017,3.0553,3.0472,2.9819,3.0285,3.0799,3.1387,3.1389,3.1755,3.2395,3.1854,3.0963,0.0,3.0611,0.0,0.0,0.0,3.0925,0.0,3.2029,3.3217,0.0,3.3589,3.3326,3.3334,3.3154,3.3219,3.3301,0.0,3.3055,3.3339,0.0,3.2811,3.3405,0.0,0.0,0.0,0.0,0.0,0.0,0.0,2.8009,0.0,0.0,0.0,2.756,2.7722,0.0,0.0,0.0,0.0,0.0,0.0,0.0,0.0,2.817,2.9749,3.1727,3.3784,3.4019,3.4211,3.4741,3.5207,3.552,3.5596,3.6094,3.6405,3.6405,3.6405,3.6405,3.6405,3.6405,3.6405,3.6405,3.6405,3.6405,3.6405,3.6405,3.6405,3.6405,3.6405,3.6405,3.6332,3.521,3.4904,3.5114,3.3982,3.3851,3.4364,3.4565,3.4774,3.5005,3.5174,3.4798,3.4226,3.1469,3.1227,0.0,3.1223,3.1353,3.1477,3.1602,3.2042,3.2319,3.221,3.1865,0.0,0.0,0.0,0.0,0.0,0.0,3.2118,0.0,0.0,0.0,3.1445,3.133,0.0,3.1314,3.1216,3.145,3.2019,3.1668,3.1808,3.2395,3.1785,3.0893,0.0,3.0586,0.0,2.8537,0.0,3.1099,0.0,0.0,0.0,0.0,3.3577,3.3334,3.3219,3.3133,3.324,3.3339,0.0,3.3166,0.0,0.0,0.0,0.0,0.0,0.0,0.0,0.0,0.0,0.0,0.0,0.0,0.0,2.7555,0.0,2.7298,0.0,0.0,0.0,0.0,0.0,0.0,0.0,2.7425,0.0,0.0,0.0,3.046,0.0,0.0,0.0,3.2546,3.3508,3.4248,3.454,3.509,3.5554,3.5845,3.6218,3.6405,3.6405,3.6405,3.6405,3.6405,3.6044,3.5893,3.5881,3.5567,3.5196,3.4777,3.4777,3.4567,3.418,3.3633,3.3256,3.2944,3.241,3.2089,3.197,3.2123,3.2983,3.411,3.4218,3.3803,3.3143,3.2301,0.0,0.0,0.0,3.1711,3.1918,3.1995,3.224,0.0,0.0,0.0,0.0,3.1568,3.2058,0.0,0.0,3.2804,3.3231,0.0,0.0,3.2748,0.0,0.0,0.0,0.0,3.2013,3.1963,3.2412,3.1794,3.1727,3.2145,3.1545,3.0679,2.9653,0.0,2.9891,2.8674,0.0,0.0,3.1841,3.2614,3.3199,3.3598,3.3398,3.3176,3.2982,3.2982,3.3176,3.3352,3.2978,3.3101,0.0,3.3144,0.0,0.0,0.0,0.0,0.0,3.0441,0.0,0.0,0.0,0.0,0.0,0.0,0.0,0.0,0.0,0.0,0.0,0.0,0.0,0.0,0.0,0.0,2.7595,0.0,0.0,0.0,0.0,0.0,0.0,0.0,3.1776,3.265,3.3246,3.3743,3.4327,3.5006,3.5617,3.6004,3.6155,3.6306,3.6405,3.6405,3.5745,3.5354,3.5217,3.4599,3.3971,3.3328,3.3328,3.3049,3.2582,3.223,3.183,3.1385,3.1034,3.0643,3.0332,3.0441,3.1309,3.2517,3.2783,3.2458,3.1891,3.2631,3.2726,0.0,0.0,0.0,0.0,3.2561,0.0,0.0,0.0,0.0,0.0,0.0,0.0,0.0,0.0,0.0,3.5161,3.4397,0.0,3.4874,0.0,0.0,3.3933,0.0,0.0,3.2384,3.2412,3.1794,3.1511,3.1527,3.0918,3.0023,2.8962,2.9762,2.9973,2.9855,3.1388,3.1926,3.1818,3.3147,3.3552,3.3398,0.0,3.2939,3.2711,3.2711,0.0,0.0,3.2479,3.2752,0.0,0.0,0.0,0.0,0.0,0.0,0.0,0.0,0.0,0.0,2.9183,0.0,0.0,0.0,0.0,2.7148,0.0,0.0,0.0,0.0,0.0,0.0,0.0,0.0,0.0,0.0,0.0,0.0,0.0,0.0,0.0,0.0,3.0443,3.0982,3.1726,3.2092,3.278,3.3884,3.4452,3.4992,3.5508,3.6094,3.6405,3.6405,3.5607,3.4979,3.4503,3.372,3.3078,3.2629,3.2629,3.2618,3.2535,3.1285,3.1002,3.1303,3.0068,2.9975,3.0553,3.0307,2.9968,2.9747,3.0708,3.0751,3.0326,0.0,0.0,0.0,0.0,0.0,0.0,0.0,3.2013,0.0,0.0,0.0,0.0,0.0,3.3682,3.4269,0.0,0.0,3.6083,3.6122,3.5777,0.0,0.0,0.0,3.4594,0.0,0.0,0.0,0.0,0.0,3.1494,3.1492,3.0882,3.0202,2.9504,0.0,3.0271,0.0,0.0,0.0,0.0,0.0,3.224,3.2201,0.0,3.3047,3.2939,3.2754,3.2918,0.0,3.2693,3.2819,3.3138,3.2885,3.2718,3.255,3.2265,3.2013,3.176,0.0,0.0,3.1708,2.9945,0.0,0.0,0.0,0.0,0.0,0.0,0.0,0.0,0.0,0.0,0.0,0.0,0.0,0.0,0.0,0.0,0.0,0.0,0.0,0.0,0.0,0.0,2.9729,3.0392,3.1213,3.1989,3.2742,3.3319,3.3884,3.4414,3.4989,3.5454,3.5794,3.5525,3.5135,3.4624,3.4014,3.2923,3.1476,3.1476,3.0974,3.006,2.9624,2.953,2.965,2.9204,2.9184,2.9394,2.9114,2.891,2.8869,2.9659,2.9506,2.8984,3.2931,0.0,0.0,0.0,0.0,0.0,0.0,0.0,0.0,0.0,3.2914,0.0,3.3453,0.0,3.5192,0.0,3.6194,3.697,3.7202,3.6699,0.0,3.656,3.5981,0.0,0.0,0.0,0.0,0.0,0.0,3.1712,3.1491,3.1101,3.0514,2.9805,0.0,3.0448,3.1249,0.0,3.2259,0.0,0.0,3.1663,0.0,0.0,3.262,3.2527,0.0,3.2615,3.2822,3.2658,3.2766,3.2961,3.2961,3.2753,3.2516,3.2516,3.2265,3.2009,3.2009,3.2318,0.0,3.075,3.0421,0.0,2.8535,0.0,0.0,0.0,0.0,0.0,0.0,0.0,0.0,0.0,0.0,0.0,0.0,2.5959,0.0,0.0,0.0,0.0,0.0,0.0,2.8318,2.9233,2.9881,3.0545,3.1311,3.2085,3.2729,3.3282,3.4013,3.4577,3.4929,3.4589,3.4173,3.3621,3.2746,3.1578,3.0136,3.0136,2.9646,2.8803,2.8803,2.8803,2.8803,2.8803,2.8803,2.878,2.8511,2.8348,2.8299,2.8647,2.8514,2.8171,0.0,0.0,0.0,0.0,3.2602,0.0,0.0,0.0,3.3932,0.0,3.4568,3.5025,3.5229,3.6125,3.6626,3.6438,3.731,3.7796,3.7625,3.7605,0.0,0.0,3.6598,3.5813,3.4503,0.0,0.0,0.0,0.0,0.0,3.1497,3.1497,3.0891,0.0,2.9792,0.0,3.1739,3.1739,3.2209,3.2907,3.2193,3.1757,3.1559,3.1838,3.1747,3.154,3.1874,3.2169,3.2366,3.2366,3.2519,3.268,3.2689,3.2874,3.3068,3.3102,3.3102,3.3102,3.3102,3.27,3.2114,3.1537,3.1022,0.0,0.0,0.0,2.9714,0.0,0.0,0.0,0.0,0.0,0.0,0.0,0.0,0.0,0.0,0.0,0.0,0.0,0.0,0.0,0.0,2.6764,2.6844,2.8265,2.8201,2.8599,0.0,3.0733,3.1549,3.2131,3.3244,3.3847,3.3897,3.304,3.2323,3.178,3.0355,2.9392,2.8908,2.8873,2.8816,2.8803,2.8803,2.8803,2.8803,2.8803,2.8803,2.878,2.8488,2.822,2.7927,2.7678,2.7712,2.7869,3.4148,3.4242,3.3932,0.0,3.391,3.4455,0.0,0.0,0.0,0.0,3.5118,3.5601,3.5903,3.6488,3.6821,3.6784,3.7329,0.0,0.0,0.0,0.0,3.7196,3.6966,3.6457,3.5674,3.5474,0.0,3.3868,0.0,0.0,3.1497,3.1497,3.0891,0.0,0.0,0.0,3.0903,3.0756,3.0839,3.1062,3.0716,3.0634,3.0742,0.0,3.1215,3.1339,3.1821,3.2038,3.2103,3.2103,3.2147,3.2245,3.2581,3.2754,3.2853,3.3047,3.3102,3.3102,3.3102,3.3096,3.2773,3.1505,3.1351,3.1087,0.0,0.0,0.0,0.0,0.0,0.0,0.0,0.0,0.0,0.0,0.0,0.0,0.0,0.0,0.0,2.5057,0.0,0.0,0.0,2.7021,2.7452,2.7919,2.8042,2.8599,2.9729,0.0,3.0174,3.1562,3.2277,3.3043,3.3884,3.4055,3.3862,3.3318,3.2396,3.1384,3.034,2.9795,2.9256,2.8803,2.8803,2.8803,2.8803,2.8803,2.8803,2.8757,2.8279,2.7833,2.7465,2.7404,2.7406,2.7451,3.4484,0.0,0.0,3.3928,0.0,0.0,3.3877,3.4718,0.0,3.5364,3.5895,0.0,3.6529,3.6858,3.7049,3.6954,3.7263,0.0,3.7341,0.0,0.0,3.7167,3.707,3.6794,3.633,3.6179,0.0,3.4454,0.0,0.0,3.1497,3.1225,0.0,0.0,0.0,3.0139,0.0,3.1016,3.0906,3.0603,3.0825,3.0822,0.0,3.1088,3.1315,3.146,3.1763,3.1871,3.1871,3.1871,3.1928,3.206,3.231,3.2516,3.2745,3.2874,3.3004,3.3102,3.3102,3.3111,3.2884,3.2016,3.193,3.1789,3.0774,3.063,3.0663,0.0,2.9762,2.895,0.0,0.0,0.0,0.0,0.0,0.0,0.0,0.0,0.0,0.0,0.0,0.0,0.0,2.6469,2.7132,2.743,2.7642,2.7985,2.8556,0.0,2.9446,3.0658,3.1449,3.2277,3.3156,3.3401,3.3224,3.2572,3.1833,3.0958,2.9966,2.9555,2.9083,2.8617,2.8757,2.8676,2.8466,2.8571,2.8547,2.8396,2.7998,2.7655,2.7428,2.7333,2.7309,2.7309,0.0,0.0,0.0,0.0,0.0,0.0,0.0,3.4661,0.0,3.6145,0.0,3.6998,3.6998,3.7167,3.7187,3.7017,0.0,3.7187,3.6998,3.6998,3.6998,3.6998,3.6998,3.6899,3.6669,3.6368,0.0,0.0,0.0,0.0,0.0,0.0,0.0,0.0,0.0,0.0,0.0,3.1558,3.1423,3.0822,3.1548,3.1475,3.0949,3.15,3.1705,3.1705,3.1705,3.1705,3.1705,3.1705,3.1827,3.1972,3.1994,3.2288,3.2615,3.268,3.2853,3.3004,3.3038,3.2853,3.2658,3.2615,3.2484,3.2366,3.2322,3.2322,3.2119,3.133,3.0512,2.9662,2.8614,0.0,0.0,0.0,0.0,0.0,0.0,0.0,0.0,0.0,0.0,0.0,0.0,0.0,2.6332,2.6993,2.7152,2.7276,2.739,0.0,2.9246,2.988,3.0796,3.1587,3.2181,3.1994,3.1597,3.1036,3.0192,2.9498,2.8932,2.8803,2.864,2.8465,2.8664,2.8466,2.8068,2.8337,2.8267,2.7974,2.7702,2.7584,2.7536,2.7357,2.7309,2.7309,0.0,0.0,0.0,0.0,0.0,3.4889,3.4856,3.6138,3.703,3.6856,3.6928,3.6998,3.6998,3.7017,3.7037,3.6998,3.7017,0.0,0.0,0.0,0.0,3.6998,3.6998,3.6975,3.694,3.6863,3.6277,0.0,0.0,0.0,0.0,0.0,0.0,0.0,0.0,0.0,3.0388,3.0146,0.0,3.0499,3.093,3.1028,3.0949,3.15,3.1705,3.1705,3.1705,3.1705,3.1705,3.1705,3.1727,3.1783,3.1937,3.206,3.2201,3.2593,3.2615,3.2562,3.2723,3.2615,3.2388,3.2179,3.2257,3.23,3.1915,3.1937,3.1858,3.1117,3.0619,2.9861,2.8373,0.0,0.0,0.0,0.0,0.0,0.0,0.0,0.0,0.0,0.0,2.6937,0.0,0.0,0.0,2.715,2.7006,2.7668,0.0,0.0,2.9542,0.0,3.0638,3.1203,0.0,0.0,3.1508,3.1779,3.0441,2.9749,2.9589,2.8816,2.8581,2.871,2.8558,2.8418,2.8348,2.8617,2.8443,2.7974,2.7702,2.7499,2.7357,2.7309,2.7309,2.7309,0.0,0.0,0.0,0.0,0.0,0.0,0.0,3.6276,3.7036,3.6991,3.6998,3.6998,3.6998,3.6998,3.6998,3.6998,3.6998,3.6998,3.6998,3.6998,3.6998,3.6998,3.6998,0.0,3.6998,3.6998,3.6408,3.5189,0.0,0.0,0.0,0.0,0.0,0.0,0.0,3.0226,0.0,0.0,0.0,3.0861,3.1288,3.1397,3.1334,3.1587,3.1705,3.1705,3.1705,3.1705,3.1705,3.1705,3.1705,3.1705,3.1805,3.1928,3.2025,3.2266,3.2366,3.241,3.2519,3.2366,3.2169,3.2038,3.2016,3.1981,3.1749,3.1771,3.1648,3.1031,3.0543,2.9875,2.8642,2.7382,0.0,0.0,0.0,0.0,0.0,0.0,0.0,0.0,0.0,0.0,0.0,0.0,0.0,0.0,0.0,0.0,0.0,0.0,2.9391,0.0,0.0,0.0,3.1663,0.0,3.1086,3.0857,3.0023,2.944,2.9059,2.8617,2.8384,2.8396,2.8395,2.8231,2.7996,2.8008,2.7867,2.7631,2.7489,2.7404,2.7309,2.7309,2.7309,2.7309,0.0,3.3942,0.0,0.0,3.4487,0.0,3.5431,3.6079,3.6656,3.6967,3.6998,3.6998,3.6998,3.6998,3.6998,3.6998,3.6998,3.6998,3.6998,3.6998,3.6998,3.6998,3.6998,3.6998,3.6998,3.6998,3.6464,0.0,0.0,0.0,0.0,0.0,0.0,0.0,0.0,0.0,0.0,0.0,3.1595,3.1399,3.178,3.1849,3.1705,3.1705,3.1705,3.1705,3.1705,3.1705,3.1705,3.1705,3.1705,3.1705,3.1705,3.1805,3.1937,3.1994,3.2125,3.2257,3.23,3.2125,3.1937,3.1937,3.1827,3.1705,3.1705,3.1705,3.1585,3.1153,3.0552,2.9844,2.8958,2.8077,0.0,0.0,0.0,0.0,0.0,0.0,0.0,0.0,0.0,0.0,2.549,0.0,0.0,0.0,0.0,0.0,2.7934,0.0,0.0,0.0,0.0,3.0562,3.0994,0.0,3.0457,2.9826,2.9387,2.8885,2.836,2.8197,2.8053,2.8021,2.8149,2.8008,2.7678,2.7452,2.7357,2.7357,2.7309,2.7309,2.7309,2.7309,2.7309,2.7309,0.0,0.0,0.0,0.0,0.0,0.0,3.5754,3.6089,3.6481,3.6947,3.6998,3.6998,3.6998,3.6998,3.6998,3.6998,3.6998,3.6998,3.6998,3.6998,3.6998,3.6998,3.6998,3.6998,3.6998,3.6998,3.6675,0.0,0.0,3.3064,0.0,0.0,0.0,0.0,0.0,0.0,0.0,3.1293,3.1515,3.1921,3.1781,3.1705,3.1705,3.1705,3.1705,3.1705,3.1705,3.1705,3.1705,3.1705,3.1705,3.1705,3.1705,3.1705,3.1761,3.195,3.1893,3.1805,3.1981,3.1893,3.1727,3.1727,3.1705,3.1705,3.1705,3.1705,3.1693,3.1645,3.0804,2.9844,2.8958,2.8573,2.8453,0.0,0.0,0.0,0.0,0.0,0.0,0.0,0.0,0.0,0.0,2.7002,0.0,0.0,2.6926,0.0,0.0,0.0,0.0,2.9438,2.9488,2.9791,3.0372,2.9731,2.9594,2.9961,2.8718,2.821,2.8271,2.7483,2.7452,2.7998,2.7773,2.7773,2.7951,2.7678,2.756,2.7536,2.7381,2.7309,2.7309,2.7309,2.7309,2.7309,0.0,0.0,0.0,0.0,0.0,0.0,0.0,3.6094,3.6429,3.6626,3.6733,3.687,3.6993,3.6998,3.6954,3.6831,3.6811,3.6772,3.6654,3.6752,3.6811,3.6811,3.6934,3.6998,3.6998,3.6998,3.6703,0.0,0.0,0.0,0.0,0.0,0.0,0.0,0.0,3.1104,3.1333,3.1576,3.1722,3.1805,3.1727,3.1705,3.1705,3.1705,3.1705,3.1705,3.1705,3.1705,3.1705,3.1705,3.1705,3.1705,3.1705,3.1705,3.1705,3.1805,3.1761,3.1705,3.1805,3.1761,3.1705,3.1705,3.1705,3.1705,3.1705,3.1705,3.1705,3.1705,3.0841,2.9802,2.8791,2.855,2.8558,2.8764,0.0,0.0,0.0,0.0,0.0,0.0,0.0,0.0,0.0,0.0,0.0,0.0,0.0,0.0,0.0,0.0,0.0,2.8274,0.0,2.9483,2.9634,2.8937,2.8656,2.8796,2.7678,2.7135,2.7094,2.6744,2.6883,2.7385,2.7302,2.7356,2.756,2.7465,2.7428,2.7404,2.7333,2.7309,2.7309,2.7309,2.7309,2.7286,3.5055,0.0,3.5074,0.0,3.5471,3.5709,3.5806,3.6095,3.6305,3.6305,3.6445,3.6609,3.6797,3.6817,3.6772,3.6609,3.6623,3.6563,3.6425,3.6603,3.6701,3.6701,3.6875,0.0,3.6998,3.6998,3.6787,3.6351,3.4727,0.0,0.0,0.0,0.0,0.0,3.1329,3.1394,3.1382,3.1758,3.1827,3.1705,3.1705,3.1705,3.1705,3.1705,3.1705,3.1705,3.1705,3.1705,3.1705,3.1705,3.1705,3.1705,3.1705,3.1705,3.1705,3.1705,3.1705,3.1705,3.1705,3.1705,3.1705,3.1705,3.1705,3.1705,3.1705,3.1705,3.1621,3.1286,3.0624,2.9761,2.8703,2.849,2.855,2.8685,0.0,0.0,0.0,0.0,0.0,0.0,2.7616,2.7355,2.6761,2.5629,0.0,0.0,0.0,0.0,0.0,0.0,0.0,0.0,0.0,0.0,2.9169,2.8865,2.8463,2.8007,2.716,2.6572,2.6257,2.6216,2.6367,2.6681,2.6749,2.6823,2.6915,2.7121,2.7183,2.7123,2.7258,2.7309,2.7309,2.7309,2.7309,2.7262,3.6118,3.6238,3.6318,3.6118,3.6238,3.6312,3.6132,3.6092,3.6106,3.6106,3.6106,3.6186,3.6385,3.6425,3.6425,3.6405,3.6405,3.6405,3.6405,3.6603,3.6701,0.0,0.0,3.6998,3.6998,3.6998,3.6998,3.6998,0.0,0.0,3.4126,0.0,3.1119,3.1202,3.1192,3.1397,3.1705,3.1705,3.1705,3.1705,3.1705,3.1705,3.1705,3.1705,3.1705,3.1705,3.1705,3.1705,3.1705,3.1705,3.1705,3.1705,3.1705,3.1705,3.1705,3.1705,3.1705,3.1705,3.1705,3.1705,3.1705,3.1705,3.1705,3.1705,3.1705,3.1705,3.1404,3.0347,3.0119,2.9761,2.8703,2.849,2.849,2.849,0.0,0.0,0.0,0.0,0.0,2.8759,2.8613,2.8645,2.9015,2.7908,0.0,0.0,0.0,0.0,0.0,0.0,0.0,2.9042,2.9414,0.0,2.9104,2.9611,2.9278,2.8095,2.7418,2.6774,2.6195,2.6014,2.5908,2.593,2.6199,2.6154,2.5972,2.6702,2.6844,2.6643,2.7133,2.7309,2.7309,2.7309,2.7309,2.7262,3.5844,3.5884,3.5904,3.5844,3.5884,3.5904,3.5844,3.5824,3.5824,3.5824,3.5824,3.5844,3.5918,3.6212,3.6345,0.0,3.6206,3.6206,0.0,3.6266,3.6425,3.6701,3.6766,3.685,3.6998,3.6998,3.6998,3.6998,0.0,0.0,0.0,3.178,3.1366,3.1739,3.1595,3.1592,3.1705,3.1705,3.1705,3.1705,3.1705,3.1705,3.1705,3.1705,3.1705,3.1705,3.1705,3.1705,3.1705,3.1705,3.1705,3.1705,3.1705,3.1705,3.1705,3.1705,3.1705,3.1705,3.1705,3.1705,3.1705,3.1705,3.1705,3.1705,3.1705,3.1406,3.0949,3.0251,2.9797,2.934,2.8643,2.849,2.849,2.849,2.849,0.0,2.849,0.0,2.8246,2.7589,2.7447,2.7505,2.7778,2.6645,0.0,0.0,0.0,0.0,0.0,0.0,0.0,0.0,2.7639,0.0,2.7536,2.7302,2.6962,2.6524,2.5903,2.5562,2.5498,2.5134,2.5295,2.5887,2.5664,2.5673,2.5908,2.6154,2.6194,2.6136,2.6281,2.6343,2.6374,2.6695,2.6702,2.6566,3.569,3.569,3.569,3.569,3.569,3.569,3.569,3.569,3.569,3.569,3.569,3.569,3.569,3.5958,0.0,3.5958,3.5938,3.5938,3.5938,3.6032,3.6206,3.6464,3.6563,3.6648,3.6772,3.6758,0.0,3.6758,3.5642,3.4459,3.3216,3.2295,3.1871,3.1871,3.1761,3.1705,3.1705,3.1705,3.1705,3.1705,3.1705,3.1705,3.1705,3.1705,3.1705,3.1705,3.1705,3.1705,3.1705,3.1705,3.1705,3.1705,3.1705,3.1705,3.1705,3.1705,3.1705,3.1705,3.1705,3.1705,3.1705,3.1705,3.1705,3.1705,3.1705,3.1296,3.0744,3.0215,2.9665,2.9136,2.8607,2.849,2.849,2.849,2.849,2.849,2.849,0.0,2.825,0.0,0.0,0.0,0.0,2.7049,2.6947,0.0,0.0,0.0,0.0,0.0,2.6579,2.6371,2.7658,2.8091,2.7557,2.7387,2.7003,2.6429,2.5647,2.5252,2.5201,2.4911,2.4994,2.5357,2.5066,2.5097,2.5388,2.5564,2.5637,2.5647,2.5835,2.5897,2.5939,2.6148,2.6133,2.5966,3.569,3.569,3.569,3.569,3.569,3.569,3.569,3.569,3.569,3.569,3.569,3.569,3.569,3.569,3.569,3.569,0.0,0.0,3.5723,3.5938,3.6086,3.6126,3.6286,3.6385,3.6405,3.6405,3.6385,3.6385,3.5696,3.5012,3.4306,3.3454,3.2633,3.1837,3.1837,3.1815,3.1771,3.1771,3.1727,3.1705,3.1705,3.1705,3.1705,3.1705,3.1705,3.1705,3.1705,3.1705,3.1705,3.1705,3.1705,3.1705,3.1705,3.1705,3.1705,3.1705,3.1705,3.1705,3.1705,3.1705,3.1705,3.1705,3.1705,3.1705,3.1657,3.1226,3.0696,3.0167,2.9617,2.9088,2.8587,2.849,2.849,2.849,2.849,2.849,2.849,2.849,2.849,0.0,0.0,0.0,2.849,2.8677,2.8784,0.0,0.0,0.0,0.0,0.0,2.6395,2.8573,2.8988,2.8991,2.8645,2.9149,2.8725,2.7421,2.6363,2.5662,2.5277,2.5202,2.4921,2.4549,2.4507,2.4497,2.4528,2.4962,2.5159,2.5179,2.5627,2.5804,2.5792,2.5606,2.5545,2.5444,0.0,0.0,3.569,3.569,3.569,3.569,3.569,3.569,3.569,3.569,3.569,3.569,3.569,3.569,3.569,3.569,3.569,3.5784,3.5992,3.5878,3.5958,3.6312,3.6226,3.6246,3.6405,3.6405,3.6325,3.6166,3.5447,3.493,3.4587,3.3869,3.3416,3.3224,3.3224,3.2936,3.245,3.245,3.2167,3.1705,3.1705,3.1705,3.1705,3.1705,3.1705,3.1705,3.1705,3.1705,3.1705,3.1705,3.1705,3.1705,3.1705,3.1705,3.1705,3.1705,3.1705,3.1705,3.1705,3.1705,3.1705,3.1705,3.1705,3.1587,3.1178,3.0672,3.0143,2.9593,2.9063,2.8655,2.8514,2.849,2.849,2.849,2.849,2.849,2.849,2.849,2.849,0.0,2.849,2.849,2.849,2.855,2.8558,0.0,0.0,2.7683,2.8291,2.7184,2.6683,2.7026,2.7606,2.7638,2.7051,2.7165,2.7069,2.6737,2.5956,2.5722,2.5924,2.5056,2.4797,2.5003,2.4652,2.4497,2.4507,2.4621,2.4662,2.4673,2.4798,2.4839,2.4859,2.4999,2.4932,2.4771,3.569,3.569,3.569,3.569,3.569,3.569,3.569,3.569,3.569,3.569,3.569,3.569,3.569,3.569,3.569,3.569,3.569,3.5764,3.5918,3.5784,3.5824,3.6078,3.5978,3.5958,3.6078,3.6078,3.6092,3.6106,3.5582,3.5148,3.484,3.4384,3.3839,3.3236,3.3236,3.2871,3.2254,3.2559,3.2494,3.2189,3.2503,3.2438,3.2167,3.2167,3.1969,3.1705,3.1705,3.1705,3.1705,3.1705,3.1705,3.1705,3.1705,3.1705,3.1705,3.1705,3.1705,3.1705,3.1705,3.1705,3.1705,3.1705,3.1705,3.1573,3.1021,3.0492,2.9962,2.9412,2.8883,2.849,2.849,2.849,2.849,2.849,2.849,2.849,2.849,2.849,2.849,2.849,2.849,2.849,2.849,2.849,2.849,2.849,2.7962,0.0,2.8474,2.795,2.7557,2.7418,2.7765,2.7785,2.7421,2.7022,2.6822,2.6801,2.6055,2.5707,2.5717,2.5095,2.4838,2.488,2.4611,2.4497,2.4497,2.4497,2.4497,2.4497,2.4497,2.4433,2.4366,2.4384,2.4257,2.4045,3.569,3.569,3.569,3.569,3.569,3.569,3.569,3.569,3.569,3.569,3.569,3.569,3.569,3.569,3.569,3.569,3.569,3.569,3.569,3.569,3.569,3.569,3.569,3.569,3.569,3.569,3.5804,3.6032,3.5804,3.5507,3.5107,3.484,3.4155,3.3129,3.2948,3.2537,3.2023,3.2494,3.2624,3.2602,3.3159,3.3065,3.2537,3.2537,3.2189,3.1705,3.1705,3.1705,3.1705,3.1705,3.1705,3.1705,3.1705,3.1705,3.1705,3.1705,3.1705,3.1705,3.1705,3.1705,3.1705,3.1705,3.1645,3.1452,3.0901,3.0371,2.9821,2.9292,2.8823,2.849,2.849,2.849,2.849,2.849,2.8358,2.831,2.8486,0.0,2.831,2.8478,2.849,2.849,2.849,2.849,2.849,2.849,2.849,2.849,2.849,2.849,2.8451,2.8339,2.8451,2.8451,2.8339,2.7517,2.7092,2.7082,2.6233,2.5637,2.5229,2.5152,2.4869,2.4497,2.4497,2.4497,2.4497,2.4497,2.4475,2.4454,2.4454,2.4325,2.412,2.3841,2.3646,2.346,3.569,3.569,3.569,3.569,3.569,3.569,3.569,3.569,3.569,3.569,3.569,3.569,3.569,3.569,3.569,3.569,3.569,3.569,3.569,3.569,3.569,3.569,3.569,3.569,3.569,3.569,3.571,3.5764,3.571,3.5649,3.5588,3.4984,3.4881,3.5168,3.405,3.3492,3.3352,3.2905,3.2363,3.1859,3.1969,3.1947,3.1859,3.1859,3.1793,3.1705,3.1705,3.1705,3.1705,3.1705,3.1705,3.1705,3.1705,3.1705,3.1705,3.1705,3.1705,3.1705,3.1705,3.1705,3.1705,3.1705,3.1368,3.0877,3.0359,2.9797,2.9268,2.8739,2.857,2.849,2.849,2.849,2.849,2.849,2.7745,2.745,2.8358,0.0,2.7493,2.8382,2.849,2.849,2.849,2.849,2.849,2.849,2.849,2.849,2.849,2.849,2.8239,2.7664,2.8199,2.8219,2.7664,2.6957,2.6598,2.6598,2.5912,2.5519,2.5434,2.4879,2.4569,2.4497,2.4497,2.4497,2.4497,2.4497,2.439,2.4249,2.4249,2.4088,2.3851,2.3624,2.3525,2.346,3.569,3.569,3.569,3.569,3.569,3.569,3.569,3.569,3.569,3.569,3.569,3.569,3.569,3.569,3.569,3.569,3.569,3.569,3.569,3.569,3.569,3.569,3.569,3.569,3.569,3.569,3.569,3.569,3.569,3.569,3.569,3.5372,3.5209,3.5127,3.4509,3.4029,3.3691,3.3755,3.3607,3.3318,3.3318,3.3104,3.2742,3.2385,3.2013,3.1705,3.1705,3.1705,3.1705,3.1705,3.1705,3.1705,3.1705,3.1705,3.1705,3.1705,3.1705,3.1705,3.1705,3.1705,3.1705,3.1705,3.1286,3.0756,3.0227,2.9697,2.9148,2.8599,2.849,2.849,2.849,2.849,2.849,2.849,2.8082,2.7926,2.8418,2.807,2.795,2.843,2.849,2.849,2.849,2.849,2.849,2.849,2.849,2.849,2.849,2.849,2.8371,2.8059,2.7644,2.7267,2.696,2.63,2.5967,2.5946,2.5285,2.4956,2.4956,2.4647,2.4497,2.4497,2.4497,2.4497,2.4497,2.4497,2.4368,2.4206,2.4206,2.3959,2.3634,2.3525,2.3416,2.3276,3.569,3.569,3.569,3.569,3.569,3.569,3.569,3.569,3.569,3.569,3.569,3.569,3.569,3.569,3.569,3.569,3.569,3.569,3.569,3.569,3.569,3.569,3.569,3.569,3.569,3.569,3.569,3.569,3.569,3.569,3.569,3.5548,3.5284,3.4922,3.4613,3.428,3.3966,3.4322,3.4468,3.4468,3.4468,3.4155,3.3628,3.3129,3.2516,3.1925,3.1925,3.1837,3.1705,3.1705,3.1705,3.1705,3.1705,3.1705,3.1705,3.1705,3.1705,3.1705,3.1705,3.1705,3.1681,3.156,3.1105,3.0576,3.0046,2.9496,2.9003,2.8575,2.849,2.849,2.849,2.849,2.849,2.849,0.0,2.8234,2.8454,2.8274,2.8214,2.8474,2.849,2.849,2.849,2.849,2.849,2.849,2.849,2.849,2.849,2.849,2.8371,2.8039,2.7185,2.6652,2.6507,2.5842,2.5432,2.5264,2.4754,2.4497,2.4497,2.4497,2.4497,2.4497,2.4497,2.4475,2.4433,2.4433,2.4261,2.4045,2.4045,2.3786,2.3416,2.3416,2.3276,2.3091,3.569,3.569,3.569,3.569,3.569,3.569,3.569,3.569,3.569,3.569,3.569,3.569,3.569,3.569,3.569,3.569,3.569,3.569,3.569,3.569,3.569,3.569,3.569,3.569,3.569,3.569,3.569,3.569,3.569,3.569,3.569,3.5066,3.5066,3.5568,3.4343,3.4092,3.4592,3.4008,3.3776,3.3776,3.3776,3.3734,3.3691,3.3662,3.3215,3.2624,3.2624,3.2232,3.1705,3.1705,3.1705,3.1705,3.1705,3.1705,3.1705,3.1705,3.1705,3.1705,3.1705,3.1705,3.1585,3.1081,3.0564,3.0034,2.9484,2.8943,2.8558,2.8522,2.849,2.849,2.849,2.849,2.849,2.849,0.0,0.0,2.8358,2.7649,2.7397,2.837,2.849,2.849,2.849,2.849,2.849,2.849,2.849,2.849,2.849,2.849,2.7926,2.6693,2.7144,2.7124,2.6507,2.5842,2.5179,2.4561,2.4518,2.4497,2.4497,2.4497,2.4497,2.4497,2.4497,2.439,2.4228,2.4228,2.3969,2.3547,2.3547,2.3385,2.3123,2.3123,2.3113,2.3091,3.569,3.569,3.569,3.569,3.569,3.569,3.569,3.569,3.569,3.569,3.569,3.569,3.569,3.569,3.569,3.569,3.569,3.569,3.569,3.569,3.569,3.569,3.569,3.569,3.569,3.569,3.569,3.569,3.569,3.569,3.569,3.5447,3.5467,3.5669,3.5182,3.5066,3.5304,3.5046,3.4943,3.4861,3.4029,3.3945,3.4238,3.3407,3.3172,3.3322,3.3322,3.2893,3.232,3.232,3.2035,3.1705,3.1705,3.1705,3.1705,3.1705,3.1705,3.1705,3.1705,3.1454,3.1141,3.0949,3.0251,2.9544,2.9352,2.8895,2.849,2.849,2.849,2.849,2.849,2.849,2.849,2.849,0.0,2.8034,2.843,2.8142,2.8046,2.8442,2.849,2.849,2.849,2.849,2.849,2.849,2.849,2.849,2.849,2.849,2.8259,2.7765,2.7998,2.7205,2.5285,2.5821,2.5569,2.4497,2.4914,2.4892,2.4497,2.4497,2.4497,2.4497,2.4378,2.4261,2.4185,2.4024,2.3776,2.3503,2.3503,2.3341,2.3091,2.3091,2.3091,2.3091,3.569,3.569,3.569,3.569,3.569,3.569,3.569,3.569,3.569,3.569,3.569,3.569,3.569,3.569,3.569,3.569,3.569,3.569,3.569,3.569,3.569,3.569,3.569,3.569,3.569,3.569,3.569,3.569,3.569,3.569,3.569,3.569,3.569,3.569,3.569,3.569,3.569,3.569,3.569,3.5609,3.4696,3.4592,3.4902,3.3987,3.367,3.3691,3.3691,3.3129,3.2385,3.2385,3.2079,3.1705,3.1705,3.1705,3.1705,3.1705,3.1705,3.1669,3.1478,3.1057,3.0648,3.0648,2.9965,2.9256,2.9088,2.8775,2.849,2.849,2.849,2.849,2.849,2.849,2.849,2.849,2.849,2.849,2.849,2.849,2.849,2.849,2.849,2.849,2.849,2.849,2.849,2.849,2.849,2.849,2.849,2.849,2.8411,2.8179,2.8179,2.7103,2.485,2.6134,2.6134,2.4807,2.5285,2.5147,2.4497,2.4497,2.4475,2.439,2.4335,2.4175,2.3959,2.3841,2.3624,2.3363,2.3363,2.3254,2.3091,2.3091,2.296,2.2828,3.569,3.569,3.569,3.569,3.569,3.569,3.569,3.569,3.569,3.569,3.569,3.569,3.569,3.569,3.569,3.569,3.569,3.569,3.569,3.569,3.569,3.569,3.569,3.569,3.569,3.569,3.569,3.569,3.569,3.569,3.569,3.569,3.569,3.569,3.569,3.569,3.569,3.569,3.569,3.569,3.569,3.569,3.569,3.569,3.4861,3.3725,3.3725,3.2837,3.1705,3.1705,3.1705,3.1705,3.1705,3.1705,3.1705,3.1705,3.1705,3.1585,3.1033,3.0516,3.0095,3.0095,2.9689,2.916,2.8631,2.849,2.849,2.849,2.849,2.849,2.849,2.849,2.849,2.849,2.849,2.849,2.849,2.849,2.849,2.849,2.849,2.849,2.849,2.849,2.849,2.849,2.849,2.849,2.849,2.849,2.8199,2.7542,2.7502,2.6857,2.5538,2.6837,2.6816,2.5496,2.5496,2.5147,2.4497,2.4497,2.439,2.4206,2.4411,2.411,2.3525,2.3711,2.3515,2.3091,2.3091,2.3091,2.3091,2.3091,2.2687,2.2192,3.569,3.569,3.569,3.569,3.569,3.569,3.569,3.569,3.569,3.569,3.569,3.569,3.569,3.569,3.569,3.569,3.569,3.569,3.569,3.569,3.569,3.569,3.569,3.569,3.569,3.569,3.569,3.569,3.569,3.569,3.569,3.569,3.569,3.569,3.569,3.569,3.569,3.569,3.569,3.5649,3.5189,3.5284,3.5663,3.5182,3.5046,3.5087,3.5087,3.4225,3.3095,3.3095,3.2481,3.1705,3.1705,3.1705,3.1705,3.1705,3.1418,3.1093,3.0937,3.0239,2.9532,2.9532,2.9136,2.8703,2.8546,2.849,2.849,2.849,2.849,2.849,2.849,2.849,2.849,2.849,2.849,2.849,2.849,2.849,2.849,2.849,2.849,2.849,2.849,2.849,2.849,2.849,2.849,2.849,2.849,2.849,2.8411,2.8219,2.7745,2.7307,2.6919,2.6837,2.6134,2.4807,2.5285,2.5147,2.4497,2.4497,2.4475,2.439,2.4131,2.3905,2.3689,2.3428,2.3232,2.3091,2.3091,2.3091,2.3091,2.3091,2.2982,2.2753,3.569,3.569,3.569,3.569,3.569,3.569,3.569,3.569,3.569,3.569,3.569,3.569,3.569,3.569,3.569,3.569,3.569,3.569,3.569,3.569,3.569,3.569,3.569,3.569,3.569,3.569,3.569,3.569,3.569,3.569,3.569,3.569,3.569,3.569,3.569,3.569,3.569,3.569,3.569,3.5649,3.5263,3.5345,3.5649,3.5263,3.5182,3.5304,3.5304,3.4613,3.3691,3.3691,3.3,3.2057,3.1771,3.1705,3.1669,3.1452,3.1141,3.0804,3.0383,2.9785,2.9256,2.9039,2.8751,2.849,2.849,2.849,2.849,2.849,2.849,2.849,2.849,2.849,2.849,2.849,2.849,2.849,2.849,2.849,2.849,2.849,2.849,2.849,2.849,2.849,2.849,2.849,2.849,2.8379,2.8119,2.8099,2.7966,2.7725,2.7062,2.6713,2.6713,2.6051,2.5432,2.4892,2.5306,2.5147,2.4497,2.4411,2.4325,2.4218,2.3927,2.3689,2.3515,2.3319,2.321,2.3091,2.3091,2.3091,2.3091,2.3091,2.2938,2.2643,3.569,3.569,3.569,3.569,3.569,3.569,3.569,3.569,3.569,3.569,3.569,3.569,3.569,3.569,3.569,3.569,3.569,3.569,3.569,3.569,3.569,3.569,3.569,3.569,3.569,3.569,3.569,3.569,3.569,3.569,3.569,3.569,3.569,3.569,3.569,3.569,3.569,3.569,3.569,3.569,3.569,3.569,3.569,3.569,3.5325,3.4799,3.4799,3.4322,3.367,3.3564,3.307,3.242,3.1809,3.1609,3.1454,3.0973,3.0792,3.054,2.9556,2.9268,2.9112,2.8631,2.849,2.849,2.849,2.849,2.849,2.849,2.849,2.849,2.849,2.849,2.849,2.849,2.849,2.849,2.849,2.849,2.849,2.849,2.849,2.849,2.849,2.849,2.8471,2.8431,2.8411,2.8119,2.7461,2.7409,2.7124,2.6528,2.5842,2.5496,2.5496,2.4828,2.4807,2.5411,2.5411,2.5073,2.4475,2.4282,2.4045,2.3797,2.3776,2.3537,2.3157,2.3363,2.3319,2.3091,2.3091,2.3091,2.3091,2.3091,2.2709,2.2161,3.569,3.569,3.569,3.569,3.569,3.569,3.569,3.569,3.569,3.569,3.569,3.569,3.569,3.569,3.569,3.569,3.569,3.569,3.569,3.569,3.569,3.569,3.569,3.569,3.569,3.569,3.569,3.569,3.569,3.569,3.569,3.569,3.569,3.569,3.569,3.569,3.569,3.569,3.569,3.569,3.569,3.569,3.569,3.569,3.5609,3.5487,3.5487,3.4716,3.3543,3.2503,3.1755,3.1264,3.1113,3.0792,3.0431,3.0311,2.9986,2.9593,2.9364,2.8991,2.8655,2.8526,2.849,2.849,2.849,2.849,2.849,2.849,2.849,2.849,2.849,2.849,2.849,2.849,2.849,2.849,2.849,2.849,2.849,2.849,2.849,2.849,2.849,2.849,2.8279,2.7765,2.7725,2.7409,2.6755,2.6713,2.6652,2.6507,2.5842,2.5496,2.5496,2.4828,2.4561,2.4732,2.4732,2.4561,2.4271,2.4228,2.4045,2.3797,2.3624,2.3503,2.3385,2.3254,2.3157,2.3091,2.3091,2.3091,2.3091,2.3091,2.3003,2.2748,3.569,3.569,3.569,3.569,3.569,3.569,3.569,3.569,3.569,3.569,3.569,3.569,3.569,3.569,3.569,3.569,3.569,3.569,3.569,3.569,3.569,3.569,3.569,3.569,3.569,3.569,3.569,3.569,3.569,3.569,3.569,3.569,3.569,3.569,3.569,3.569,3.569,3.569,3.569,3.569,3.569,3.569,3.569,3.569,3.569,3.569,3.569,3.4872,3.3597,3.2273,3.1464,3.0936,3.0622,3.0335,3.0058,2.9785,2.9508,2.9244,2.8991,2.8707,2.849,2.849,2.849,2.849,2.849,2.849,2.849,2.849,2.849,2.849,2.849,2.849,2.849,2.849,2.849,2.849,2.849,2.849,2.849,2.849,2.849,2.8371,2.8059,2.8299,2.8099,2.7103,2.7623,2.7542,2.6549,2.6796,2.6693,2.6051,2.5674,2.5348,2.5041,2.4471,2.4208,2.4229,2.4415,2.4433,2.4325,2.3918,2.3646,2.3476,2.2957,2.274,2.274,2.2582,2.2518,2.2518,2.2518,2.2645,2.2791,2.2596,2.2295,2.1926,3.569,3.569,3.569,3.569,3.569,3.569,3.569,3.569,3.569,3.569,3.569,3.569,3.569,3.569,3.569,3.569,3.569,3.569,3.569,3.569,3.569,3.569,3.569,3.569,3.569,3.569,3.5649,3.5554,3.5554,3.5486,3.5391,3.5391,3.5445,3.5554,3.5554,3.5595,3.569,3.5581,3.5608,3.569,3.5581,3.5608,3.569,3.569,3.5635,3.5554,3.5554,3.4768,3.3541,3.2263,3.144,3.0827,3.0171,2.9893,2.9737,2.9292,2.916,2.9076,2.8631,2.849,2.849,2.849,2.849,2.849,2.849,2.849,2.849,2.849,2.849,2.849,2.849,2.849,2.849,2.849,2.849,2.849,2.849,2.849,2.849,2.849,2.8406,2.8112,2.7467,2.7898,2.7727,2.6495,2.7497,2.7616,2.626,2.6733,2.6476,2.5272,2.5156,2.484,2.4291,2.395,2.3784,2.3784,2.4115,2.4248,2.4122,2.3374,2.3023,2.294,2.2207,2.1905,2.1905,2.1905,2.1905,2.1905,2.1905,2.21,2.2342,2.1887,2.1347,2.0787,3.569,3.569,3.569,3.569,3.569,3.569,3.569,3.569,3.569,3.569,3.569,3.569,3.569,3.569,3.569,3.569,3.569,3.569,3.569,3.569,3.569,3.569,3.569,3.569,3.569,3.569,3.5445,3.491,3.491,3.4639,3.4151,3.4151,3.4423,3.491,3.491,3.5215,3.5662,3.5147,3.5228,3.5649,3.5134,3.5228,3.569,3.569,3.5378,3.491,3.491,3.4111,3.2837,3.1569,3.0764,3.0197,2.9593,2.9088,2.8703,2.8643,2.8599,2.8587,2.8522,2.849,2.849,2.849,2.849,2.849,2.849,2.849,2.849,2.849,2.849,2.849,2.849,2.849,2.849,2.849,2.849,2.849,2.849,2.849,2.849,2.849,2.8094,2.7587,2.7036,2.7064,2.6797,2.6043,2.6585,2.6351,2.5026,2.5077,2.4841,2.4127,2.3721,2.3472,2.337,2.3308,2.3277,2.3308,2.3339,2.3166,2.2766,2.2458,2.2232,2.2066,2.1955,2.1905,2.1905,2.1905,2.1905,2.1905,2.1905,2.1924,2.1901,2.1262,2.0962,2.0759,3.569,3.569,3.569,3.569,3.569,3.569,3.569,3.569,3.569,3.569,3.569,3.569,3.569,3.569,3.569,3.569,3.569,3.569,3.569,3.569,3.569,3.569,3.569,3.569,3.569,3.569,3.5242,3.4301,3.4626,3.449,3.3921,3.4246,3.4531,3.4802,3.5161,3.5445,3.5662,3.5066,3.5161,3.5649,3.5052,3.5161,3.569,3.569,3.5337,3.4668,3.3654,3.2717,3.1746,3.0525,2.9731,2.9196,2.894,2.8703,2.849,2.849,2.849,2.849,2.849,2.849,2.849,2.849,2.849,2.849,2.849,2.849,2.849,2.849,2.849,2.849,2.849,2.849,2.849,2.849,2.849,2.849,2.849,2.849,2.8382,2.8094,2.7589,2.7017,2.6406,2.6382,2.5969,2.4974,2.5498,2.5444,2.4479,2.4809,2.4729,2.4085,2.3863,2.3577,2.3204,2.2925,2.2801,2.2801,2.2325,2.2369,2.2869,2.2302,2.1989,2.1878,2.138,2.1172,2.1172,2.1172,2.1172,2.1172,2.1172,2.0942,2.062,2.0583,2.0199,1.9602]},{"header":{"parameterUnit":"m.s-1","parameterCategory":1,"la1":30.6,"la2":28.766,"lo1":-90.7593,"lo2":-88.6598,"dy":0.0162,"dx":0.0183,"nx":116,"ny":114,"refTime":"2023-04-04T12:00:00:Z","depth":0,"parameterNumber":3,"parameterNumberName":"V-component_of_WINDS"},"data":[0.0,0.0,0.0,0.0,0.0,0.0,0.0,0.0,0.0,0.0,0.0,0.0,0.0,0.0,0.0,0.0,0.0,0.0,0.0,0.0,0.0,0.0,0.0,0.0,0.0,0.0,0.0,0.0,0.0,0.0,0.0,0.0,0.0,0.0,0.0,0.0,0.0,0.0,0.0,0.0,0.0,0.0,0.0,0.0,0.0,0.0,0.0,0.0,0.0,0.0,0.0,0.0,0.0,0.0,0.0,0.0,0.0,0.0,0.0,0.0,0.0,0.0,0.0,0.0,0.0,0.0,0.0,0.0,0.0,0.0,0.0,0.0,0.0,0.0,0.0,0.0,0.0,0.0,0.0,0.0,0.0,0.0,0.0,0.0,0.0,0.0,0.0,0.0,0.0,0.0,0.0,0.0,0.0,0.0,0.0,0.0,0.0,0.0,0.0,0.0,0.0,0.0,0.0,0.0,0.0,0.0,0.0,0.0,0.0,0.0,0.0,0.0,0.0,0.0,0.0,0.0,0.0,0.0,0.0,0.0,0.0,0.0,0.0,0.0,0.0,0.0,0.0,0.0,0.0,0.0,0.0,0.0,0.0,0.0,0.0,0.0,0.0,0.0,0.0,0.0,0.0,0.0,0.0,0.0,0.0,0.0,0.0,0.0,0.0,0.0,0.0,0.0,0.0,0.0,0.0,0.0,0.0,0.0,0.0,0.0,0.0,0.0,0.0,0.0,0.0,0.0,0.0,0.0,0.0,0.0,0.0,0.0,0.0,0.0,0.0,0.0,0.0,0.0,0.0,0.0,0.0,0.0,0.0,0.0,0.0,0.0,0.0,0.0,0.0,0.0,0.0,0.0,0.0,0.0,0.0,0.0,0.0,0.0,0.0,0.0,0.0,0.0,0.0,0.0,0.0,0.0,0.0,0.0,0.0,0.0,0.0,0.0,0.0,0.0,0.0,0.0,0.0,0.0,0.0,0.0,0.0,0.0,0.0,0.0,0.0,0.0,0.0,0.0,0.0,0.0,0.0,0.0,0.0,0.0,0.0,0.0,0.0,0.0,0.0,0.0,0.0,0.0,0.0,0.0,0.0,0.0,0.0,0.0,0.0,0.0,0.0,0.0,0.0,0.0,0.0,0.0,0.0,0.0,0.0,0.0,0.0,0.0,0.0,0.0,0.0,0.0,0.0,0.0,0.0,0.0,0.0,0.0,0.0,0.0,0.0,0.0,0.0,0.0,0.0,0.0,0.0,0.0,0.0,0.0,0.0,0.0,0.0,0.0,0.0,0.0,0.0,0.0,0.0,0.0,0.0,0.0,0.0,0.0,0.0,0.0,0.0,0.0,0.0,0.0,0.0,0.0,0.0,0.0,0.0,0.0,0.0,0.0,0.0,0.0,0.0,0.0,0.0,0.0,0.0,0.0,0.0,0.0,0.0,0.0,0.0,0.0,0.0,0.0,0.0,0.0,0.0,0.0,0.0,0.0,0.0,0.0,0.0,0.0,0.0,0.0,0.0,0.0,0.0,0.0,0.0,0.0,0.0,0.0,0.0,0.0,0.0,0.0,0.0,0.0,0.0,0.0,0.0,0.0,0.0,0.0,0.0,0.0,0.0,0.0,0.0,0.0,0.0,0.0,0.0,0.0,0.0,0.0,0.0,0.0,0.0,0.0,0.0,0.0,0.0,0.0,0.0,0.0,0.0,0.0,0.0,0.0,0.0,0.0,0.0,0.0,0.0,0.0,0.0,0.0,0.0,0.0,0.0,0.0,0.0,0.0,0.0,0.0,0.0,0.0,0.0,0.0,0.0,0.0,0.0,0.0,0.0,0.0,0.0,0.0,0.0,0.0,0.0,0.0,0.0,0.0,0.0,0.0,0.0,0.0,0.0,0.0,0.0,0.0,0.0,0.0,0.0,0.0,0.0,0.0,0.0,0.0,0.0,0.0,0.0,0.0,0.0,0.0,0.0,0.0,0.0,0.0,0.0,0.0,0.0,0.0,0.0,0.0,0.0,0.0,0.0,0.0,0.0,0.0,0.0,0.0,0.0,0.0,0.0,0.0,0.0,0.0,0.0,0.0,0.0,0.0,0.0,0.0,0.0,0.0,0.0,0.0,0.0,0.0,0.0,0.0,0.0,0.0,0.0,0.0,0.0,0.0,0.0,0.0,0.0,0.0,0.0,0.0,0.0,0.0,0.0,0.0,0.0,0.0,0.0,0.0,0.0,0.0,0.0,0.0,0.0,0.0,0.0,0.0,0.0,0.0,0.0,0.0,0.0,0.0,0.0,0.0,0.0,0.0,0.0,0.0,0.0,0.0,0.0,0.0,0.0,0.0,0.0,0.0,0.0,0.0,0.0,0.0,0.0,0.0,0.0,0.0,0.0,0.0,0.0,0.0,0.0,0.0,0.0,0.0,0.0,0.0,0.0,0.0,0.0,0.0,0.0,0.0,0.0,0.0,0.0,0.0,0.0,0.0,0.0,0.0,0.0,0.0,0.0,0.0,0.0,0.0,0.0,0.0,0.0,0.0,0.0,0.0,0.0,0.0,0.0,0.0,0.0,0.0,0.0,0.0,0.0,0.0,0.0,0.0,0.0,0.0,0.0,0.0,0.0,0.0,0.0,0.0,0.0,0.0,0.0,0.0,0.0,0.0,0.0,0.0,0.0,0.0,0.0,0.0,0.0,0.0,0.0,0.0,0.0,0.0,0.0,0.0,0.0,0.0,0.0,0.0,0.0,0.0,0.0,0.0,0.0,0.0,0.0,0.0,0.0,0.0,0.0,0.0,0.0,0.0,0.0,0.0,0.0,0.0,0.0,0.0,0.0,0.0,0.0,0.0,0.0,0.0,0.0,0.0,0.0,0.0,0.0,0.0,0.0,0.0,0.0,0.0,0.0,0.0,0.0,0.0,0.0,0.0,0.0,0.0,0.0,0.0,0.0,0.0,0.0,0.0,0.0,0.0,0.0,0.0,0.0,0.0,0.0,0.0,0.0,0.0,0.0,0.0,0.0,0.0,0.0,0.0,0.0,0.0,0.0,0.0,0.0,0.0,0.0,0.0,0.0,0.0,0.0,0.0,0.0,0.0,0.0,0.0,0.0,0.0,0.0,0.0,0.0,0.0,0.0,0.0,0.0,0.0,0.0,0.0,0.0,0.0,0.0,0.0,0.0,0.0,0.0,0.0,0.0,0.0,0.0,0.0,0.0,0.0,0.0,0.0,0.0,0.0,0.0,0.0,0.0,0.0,0.0,0.0,0.0,0.0,0.0,0.0,0.0,0.0,0.0,0.0,0.0,0.0,0.0,0.0,0.0,0.0,0.0,0.0,0.0,0.0,0.0,0.0,0.0,0.0,0.0,0.0,0.0,0.0,0.0,0.0,0.0,0.0,0.0,0.0,0.0,0.0,0.0,0.0,0.0,0.0,0.0,0.0,0.0,0.0,0.0,0.0,0.0,0.0,0.0,0.0,0.0,0.0,0.0,0.0,0.0,0.0,0.0,0.0,0.0,0.0,0.0,0.0,0.0,0.0,0.0,0.0,0.0,0.0,0.0,0.0,0.0,0.0,0.0,0.0,0.0,0.0,0.0,0.0,0.0,0.0,0.0,0.0,0.0,0.0,0.0,0.0,0.0,0.0,0.0,0.0,0.0,0.0,0.0,0.0,0.0,0.0,0.0,0.0,0.0,0.0,0.0,0.0,0.0,0.0,0.0,0.0,0.0,0.0,0.0,0.0,0.0,0.0,0.0,0.0,0.0,0.0,0.0,0.0,0.0,0.0,0.0,0.0,0.0,0.0,0.0,0.0,0.0,0.0,0.0,0.0,0.0,0.0,0.0,0.0,0.0,0.0,0.0,0.0,0.0,0.0,0.0,0.0,0.0,0.0,0.0,0.0,0.0,0.0,0.0,0.0,0.0,0.0,0.0,0.0,0.0,0.0,0.0,0.0,0.0,0.0,0.0,0.0,0.0,0.0,0.0,0.0,0.0,0.0,0.0,0.0,0.0,0.0,0.0,0.0,0.0,0.0,0.0,0.0,0.0,0.0,0.0,0.0,0.0,0.0,0.0,0.0,0.0,0.0,0.0,0.0,0.0,0.0,0.0,0.0,0.0,0.0,0.0,0.0,0.0,0.0,0.0,0.0,0.0,0.0,0.0,0.0,0.0,0.0,0.0,0.0,0.0,0.0,0.0,0.0,0.0,0.0,0.0,0.0,0.0,0.0,0.0,0.0,0.0,0.0,0.0,0.0,0.0,0.0,0.0,0.0,0.0,0.0,0.0,0.0,0.0,0.0,0.0,0.0,0.0,0.0,0.0,0.0,0.0,0.0,0.0,0.0,0.0,0.0,0.0,0.0,0.0,0.0,0.0,0.0,0.0,0.0,0.0,0.0,0.0,0.0,0.0,0.0,0.0,0.0,0.0,0.0,0.0,0.0,0.0,0.0,0.0,0.0,0.0,0.0,0.0,0.0,0.0,0.0,0.0,0.0,0.0,0.0,0.0,0.0,0.0,0.0,0.0,0.0,0.0,0.0,0.0,0.0,0.0,0.0,0.0,0.0,0.0,0.0,0.0,0.0,0.0,0.0,0.0,0.0,0.0,0.0,0.0,0.0,0.0,0.0,0.0,0.0,0.0,0.0,0.0,0.0,0.0,0.0,0.0,0.0,0.0,0.0,0.0,0.0,0.0,0.0,0.0,0.0,0.0,0.0,0.0,0.0,0.0,0.0,0.0,0.0,0.0,0.0,0.0,0.0,0.0,0.0,0.0,0.0,0.0,0.0,0.0,0.0,0.0,0.0,0.0,0.0,0.0,0.0,0.0,0.0,0.0,0.0,0.0,0.0,0.0,0.0,0.0,0.0,0.0,0.0,0.0,0.0,0.0,0.0,0.0,0.0,0.0,0.0,0.0,0.0,0.0,0.0,0.0,0.0,0.0,0.0,0.0,0.0,0.0,0.0,0.0,0.0,0.0,0.0,0.0,0.0,0.0,0.0,0.0,0.0,0.0,0.0,0.0,0.0,0.0,0.0,0.0,0.0,0.0,0.0,0.0,0.0,0.0,0.0,0.0,0.0,0.0,0.0,0.0,0.0,0.0,0.0,0.0,0.0,0.0,0.0,0.0,0.0,0.0,0.0,0.0,0.0,0.0,0.0,0.0,0.0,0.0,0.0,0.0,0.0,0.0,0.0,0.0,0.0,0.0,0.0,0.0,0.0,0.0,0.0,0.0,0.0,0.0,0.0,0.0,0.0,0.0,0.0,0.0,0.0,0.0,0.0,0.0,0.0,0.0,0.0,0.0,0.0,0.0,0.0,0.0,0.0,0.0,0.0,0.0,0.0,0.0,0.0,0.0,0.0,0.0,0.0,0.0,0.0,0.0,0.0,0.0,0.0,0.0,0.0,0.0,0.0,0.0,0.0,0.0,0.0,0.0,0.0,0.0,0.0,0.0,0.0,0.0,0.0,0.0,0.0,0.0,0.0,0.0,0.0,0.0,0.0,0.0,0.0,0.0,0.0,0.0,0.0,0.0,0.0,0.0,0.0,0.0,0.0,0.0,0.0,0.0,0.0,0.0,0.0,0.0,0.0,0.0,0.0,0.0,0.0,0.0,0.0,0.0,0.0,0.0,0.0,0.0,0.0,0.0,0.0,0.0,0.0,0.0,0.0,0.0,0.0,0.0,0.0,0.0,0.0,0.0,0.0,0.0,0.0,0.0,0.0,0.0,0.0,0.0,0.0,0.0,0.0,0.0,0.0,0.0,0.0,0.0,0.0,0.0,0.0,0.0,0.0,0.0,0.0,0.0,0.0,0.0,0.0,0.0,0.0,0.0,0.0,0.0,0.0,0.0,0.0,0.0,0.0,0.0,0.0,0.0,0.0,0.0,0.0,0.0,0.0,0.0,0.0,0.0,0.0,0.0,0.0,0.0,0.0,0.0,0.0,0.0,0.0,0.0,0.0,0.0,0.0,0.0,0.0,0.0,0.0,0.0,0.0,0.0,0.0,0.0,0.0,0.0,0.0,0.0,0.0,0.0,0.0,0.0,0.0,0.0,0.0,0.0,0.0,0.0,0.0,0.0,0.0,0.0,0.0,0.0,0.0,0.0,0.0,0.0,0.0,2.7057,0.0,0.0,0.0,0.0,0.0,0.0,0.0,0.0,0.0,0.0,0.0,0.0,0.0,0.0,0.0,0.0,0.0,0.0,0.0,0.0,0.0,0.0,0.0,0.0,0.0,0.0,0.0,0.0,0.0,0.0,0.0,0.0,0.0,0.0,0.0,0.0,0.0,0.0,0.0,2.456,2.4814,2.5178,2.4683,2.4408,2.4345,0.0,0.0,0.0,0.0,0.0,0.0,0.0,0.0,0.0,0.0,0.0,0.0,0.0,0.0,0.0,0.0,0.0,0.0,0.0,0.0,0.0,0.0,0.0,0.0,0.0,0.0,0.0,0.0,0.0,0.0,0.0,0.0,0.0,0.0,0.0,0.0,0.0,0.0,0.0,0.0,0.0,0.0,0.0,0.0,0.0,0.0,0.0,0.0,0.0,0.0,0.0,0.0,0.0,0.0,0.0,0.0,0.0,0.0,0.0,0.0,0.0,0.0,0.0,0.0,0.0,0.0,0.0,0.0,0.0,0.0,0.0,2.7498,0.0,0.0,0.0,0.0,0.0,0.0,0.0,0.0,0.0,0.0,0.0,0.0,0.0,0.0,0.0,0.0,0.0,0.0,0.0,0.0,0.0,0.0,0.0,2.1791,2.156,2.156,2.1991,2.2251,0.0,0.0,0.0,0.0,0.0,0.0,0.0,2.4204,2.4543,2.5097,2.5413,2.5661,2.5902,2.5902,2.553,2.4885,2.4869,0.0,0.0,0.0,0.0,0.0,0.0,0.0,0.0,0.0,0.0,0.0,0.0,0.0,0.0,0.0,0.0,0.0,0.0,0.0,0.0,0.0,0.0,0.0,0.0,0.0,0.0,0.0,0.0,0.0,0.0,0.0,0.0,0.0,0.0,0.0,0.0,0.0,0.0,0.0,0.0,0.0,0.0,0.0,0.0,0.0,0.0,0.0,0.0,0.0,0.0,0.0,0.0,0.0,0.0,0.0,0.0,0.0,0.0,0.0,0.0,0.0,0.0,0.0,2.9519,2.9618,2.952,3.0171,3.0537,3.0608,2.982,2.9248,2.8815,2.8222,0.0,0.0,0.0,0.0,0.0,0.0,0.0,0.0,0.0,0.0,0.0,0.0,0.0,0.0,0.0,0.0,0.0,0.0,0.0,0.0,0.0,2.1913,2.2183,2.2183,2.2598,2.283,2.2711,0.0,0.0,0.0,0.0,0.0,2.4841,2.4869,2.5096,2.5515,2.5955,2.6212,2.6217,2.6217,2.6184,2.6068,2.5884,2.5851,2.59,0.0,0.0,0.0,0.0,0.0,0.0,0.0,0.0,0.0,0.0,0.0,0.0,0.0,0.0,0.0,0.0,0.0,0.0,0.0,0.0,0.0,0.0,0.0,0.0,0.0,0.0,0.0,0.0,0.0,0.0,0.0,0.0,0.0,0.0,0.0,0.0,0.0,0.0,0.0,0.0,0.0,2.4579,2.411,0.0,0.0,0.0,0.0,0.0,0.0,0.0,0.0,0.0,0.0,0.0,0.0,0.0,2.8393,2.8846,2.9596,3.0343,3.1152,3.1978,3.2617,3.3026,3.3145,3.3204,3.3212,3.3072,0.0,3.076,3.0934,0.0,0.0,0.0,0.0,0.0,0.0,0.0,0.0,0.0,0.0,0.0,0.0,0.0,0.0,0.0,0.0,0.0,0.0,0.0,0.0,0.0,2.2689,2.319,2.319,2.3833,2.4065,2.3676,2.3954,0.0,0.0,0.0,2.4565,2.4878,2.5114,2.554,2.6166,2.6479,2.6755,2.6959,2.6959,2.6959,2.6959,2.6892,2.6604,2.6215,2.6215,0.0,0.0,0.0,0.0,0.0,0.0,0.0,0.0,0.0,0.0,0.0,0.0,0.0,0.0,0.0,0.0,0.0,0.0,0.0,0.0,0.0,0.0,0.0,0.0,0.0,0.0,0.0,0.0,0.0,0.0,0.0,0.0,0.0,0.0,0.0,0.0,0.0,0.0,0.0,2.3595,2.4196,2.3839,2.4394,2.4389,0.0,0.0,0.0,0.0,0.0,0.0,0.0,0.0,0.0,2.9933,3.0409,3.0961,3.1578,3.2207,3.2677,3.2974,3.3384,3.3621,3.3691,3.3691,3.3691,3.3691,3.3691,3.3347,3.2741,3.2219,3.1585,3.0877,0.0,0.0,0.0,0.0,3.0146,3.0421,0.0,0.0,0.0,0.0,0.0,0.0,0.0,0.0,0.0,0.0,0.0,0.0,2.261,2.3487,2.413,2.4278,2.4966,2.5176,2.4625,2.501,2.5,0.0,2.4693,2.4849,2.4849,2.5357,2.5977,2.6674,2.6931,2.7203,2.749,2.7663,2.7729,2.7742,2.7885,2.7492,2.6684,2.6684,2.6654,2.6625,0.0,0.0,0.0,0.0,0.0,0.0,0.0,0.0,0.0,0.0,0.0,0.0,0.0,0.0,0.0,0.0,0.0,0.0,0.0,0.0,0.0,0.0,0.0,0.0,0.0,0.0,0.0,0.0,0.0,0.0,0.0,0.0,0.0,0.0,0.0,0.0,0.0,2.4085,2.4779,2.4424,2.5391,2.5667,0.0,0.0,0.0,0.0,0.0,0.0,2.9403,2.998,3.0854,3.2065,3.2583,3.3149,3.3796,3.416,3.4285,3.4181,3.4336,3.4296,3.4113,3.4255,3.4319,3.4307,3.4178,3.4232,3.432,3.3098,3.2448,3.2191,3.1622,3.1552,3.1738,3.1555,3.162,3.1852,0.0,0.0,0.0,0.0,0.0,0.0,0.0,0.0,0.0,0.0,0.0,2.2829,2.3469,2.4094,2.4692,2.528,2.571,2.5785,2.5369,2.537,2.5206,2.4791,2.4906,2.4991,2.4991,2.5818,2.6467,2.687,2.7288,2.748,2.7503,2.8085,2.8351,2.8377,2.8952,2.865,2.7716,2.7716,2.7396,2.6855,2.6498,0.0,0.0,0.0,0.0,0.0,0.0,0.0,0.0,0.0,0.0,0.0,0.0,0.0,0.0,0.0,0.0,0.0,0.0,0.0,0.0,0.0,0.0,0.0,0.0,0.0,0.0,0.0,0.0,0.0,0.0,0.0,0.0,0.0,0.0,0.0,0.0,0.0,0.0,2.7373,2.8189,0.0,0.0,0.0,0.0,2.9284,2.9344,2.9942,3.1371,3.1919,3.2558,3.3475,3.3838,3.4124,3.4358,3.4209,3.4222,3.4377,3.4964,3.5226,3.5252,3.5739,3.5974,3.5948,3.5426,3.5226,3.5144,3.3867,3.3088,3.2651,3.2358,3.1967,3.1612,3.1744,3.1837,3.1992,0.0,0.0,0.0,0.0,0.0,0.0,0.0,0.0,2.1925,2.1976,2.3057,2.3904,2.4145,2.5307,2.6133,2.6347,2.6727,2.6754,2.6272,2.6078,2.575,2.5222,2.5066,2.5199,2.5638,2.6712,2.739,2.767,2.8325,2.866,2.866,2.8887,2.8978,2.8978,2.9201,2.9105,2.8781,2.8781,2.8685,2.856,2.8416,2.7673,0.0,0.0,0.0,0.0,0.0,0.0,0.0,0.0,0.0,0.0,0.0,0.0,0.0,0.0,0.0,0.0,0.0,0.0,0.0,0.0,0.0,0.0,0.0,0.0,0.0,0.0,0.0,0.0,0.0,0.0,0.0,0.0,0.0,0.0,0.0,0.0,0.0,2.7093,2.8836,0.0,2.8307,2.9473,3.0286,3.031,3.1425,3.2331,3.2873,3.3371,3.3786,3.411,3.4622,3.4922,3.4972,3.524,3.5409,3.5495,3.5704,3.5809,3.5822,3.6018,3.6109,3.6096,3.59,3.5809,3.5774,3.5188,3.4487,3.3776,3.3543,3.3352,3.3198,3.3068,3.3047,3.3115,0.0,0.0,0.0,0.0,0.0,0.0,0.0,0.0,2.1968,2.2353,2.3557,2.4585,2.518,2.6185,2.6914,2.7095,2.7364,2.7229,2.6601,2.6396,2.5993,2.5307,2.5225,2.563,2.658,2.74,2.8043,2.8508,2.9039,2.9292,2.9292,2.9501,2.9575,2.9575,2.9789,2.9868,2.9868,2.9868,2.9699,2.9407,2.9263,2.8574,2.765,0.0,0.0,0.0,0.0,0.0,0.0,0.0,0.0,0.0,0.0,0.0,0.0,0.0,0.0,0.0,0.0,0.0,0.0,0.0,0.0,0.0,0.0,0.0,0.0,0.0,0.0,0.0,0.0,0.0,0.0,0.0,0.0,0.0,0.0,0.0,2.8519,2.7998,2.9789,3.0637,2.9528,3.0957,3.1889,3.1687,3.3037,3.3953,3.4162,3.4502,3.4789,3.4959,3.5365,3.5574,3.5574,3.5926,3.6109,3.6109,3.6305,3.641,3.641,3.6619,3.6711,3.6698,3.6502,3.641,3.6388,3.6255,3.5835,3.5239,3.483,3.4666,3.4666,3.4547,3.4482,3.444,0.0,0.0,0.0,0.0,0.0,0.0,0.0,2.14,2.2128,2.3235,2.3818,2.4779,2.6507,2.6703,2.6938,2.7438,2.749,2.7154,2.637,2.6307,2.5923,2.5085,2.5439,2.6336,2.7782,2.7861,2.8343,2.9318,2.9344,2.9344,2.9358,2.9884,3.0127,3.014,3.0738,3.1005,3.1005,3.1005,3.0364,2.931,2.886,2.8349,2.7871,0.0,0.0,0.0,0.0,0.0,0.0,0.0,0.0,0.0,0.0,0.0,0.0,0.0,0.0,0.0,0.0,0.0,0.0,0.0,0.0,0.0,0.0,0.0,0.0,0.0,0.0,0.0,0.0,0.0,0.0,0.0,0.0,0.0,2.8147,2.9115,3.0072,3.0415,3.1298,3.2006,3.2407,3.2619,3.3006,3.3574,3.4123,3.4672,3.5273,3.5312,3.5561,3.6083,3.6123,3.6136,3.6136,3.6149,3.6162,3.6162,3.675,3.7037,3.705,3.7652,3.7926,3.79,3.7325,3.709,3.709,3.7063,3.705,3.6976,3.6189,3.5854,3.5863,3.607,3.5991,3.5815,0.0,0.0,0.0,0.0,0.0,0.0,0.0,2.1476,2.2259,2.3011,2.4276,2.5457,2.6369,2.6971,2.7337,2.7493,2.749,2.7275,2.6765,2.6456,2.6253,2.6084,2.6661,2.7417,2.8362,2.9092,2.9606,2.9884,3.0307,3.0534,3.0534,3.0673,3.0751,3.0764,3.094,3.1005,3.1005,3.1005,3.0822,3.0521,3.0388,2.9982,2.9437,0.0,0.0,0.0,0.0,0.0,0.0,0.0,0.0,0.0,0.0,0.0,0.0,0.0,0.0,0.0,0.0,0.0,0.0,0.0,0.0,0.0,0.0,0.0,0.0,0.0,0.0,0.0,0.0,0.0,0.0,0.0,0.0,3.0282,2.9774,3.0622,3.1423,3.1812,3.2603,3.3149,3.3258,3.3671,3.3992,3.4162,3.4724,3.5116,3.5286,3.5665,3.5953,3.6096,3.6528,3.6763,3.6763,3.7194,3.7416,3.7416,3.7573,3.7652,3.7678,3.824,3.8488,3.8501,3.8776,3.8893,3.8867,3.8423,3.824,3.8164,3.7557,3.7065,3.6674,3.6741,3.6431,3.6,0.0,0.0,0.0,0.0,0.0,0.0,0.0,2.1787,2.259,2.3848,2.4901,2.5857,2.6687,2.7207,2.749,2.749,2.749,2.7266,2.6694,2.6239,2.6314,2.7013,2.7413,2.8135,2.9197,2.9802,3.0218,3.0471,3.083,3.1005,3.1005,3.1005,3.1005,3.1005,3.1005,3.1005,3.1018,3.1248,3.1352,3.1365,3.1601,3.1121,3.0176,2.9884,2.9438,2.8907,2.8351,2.8148,2.8062,2.7558,0.0,0.0,0.0,0.0,0.0,0.0,0.0,0.0,0.0,0.0,0.0,0.0,0.0,0.0,0.0,0.0,0.0,0.0,0.0,0.0,0.0,0.0,0.0,0.0,3.1231,3.195,3.2059,3.234,3.2717,3.3177,3.3657,3.3927,3.3927,3.445,3.4776,3.4776,3.5312,3.5744,3.6005,3.6305,3.6593,3.6854,3.7194,3.7482,3.7717,3.807,3.837,3.8619,3.8619,3.8619,3.8632,3.8922,3.9089,3.9102,3.9455,3.9612,3.9599,3.9444,3.9405,0.0,0.0,0.0,0.0,0.0,3.7155,3.6832,0.0,0.0,0.0,0.0,0.0,0.0,0.0,2.2166,2.295,2.5078,2.5503,2.6033,2.7171,2.7419,2.749,2.749,2.7504,2.7189,2.642,2.5995,2.6408,2.7838,2.7986,2.8699,3.0184,3.0192,3.0458,3.1005,3.1005,3.1005,3.1005,3.1005,3.1005,3.1005,3.1005,3.1005,3.1031,3.1503,3.1706,3.1758,3.2359,3.1775,3.0558,3.0558,3.0297,2.9901,2.9595,2.9488,2.9457,2.9218,0.0,0.0,0.0,0.0,0.0,0.0,0.0,0.0,0.0,0.0,0.0,0.0,0.0,0.0,0.0,0.0,0.0,0.0,0.0,0.0,0.0,0.0,0.0,0.0,3.2848,3.3875,3.4424,3.4084,3.3927,3.4345,3.4463,3.4502,3.4502,3.5038,3.5391,3.5391,3.59,3.6436,3.6972,0.0,0.0,0.0,0.0,3.8253,3.8815,3.8815,3.9076,3.9612,3.9612,3.9612,3.9612,3.9677,3.9703,3.9679,3.9769,3.9795,3.981,4.0215,4.0359,4.0163,3.8749,3.8187,3.8174,3.8122,3.8119,3.8142,0.0,0.0,0.0,0.0,0.0,0.0,0.0,2.1975,2.2817,2.4741,2.5299,2.5976,2.7171,2.7419,2.749,2.749,2.7548,2.7341,2.6823,2.6847,2.7366,2.8398,2.9082,2.9866,3.0803,3.083,3.0869,3.1005,3.1005,3.1005,3.1005,3.1005,3.1005,3.1005,3.1005,3.1005,3.1018,3.1104,3.1143,3.1196,3.1751,3.181,3.1528,3.1528,3.12,3.0758,3.0684,3.0678,3.0581,3.0056,2.9589,2.9218,2.8962,0.0,0.0,0.0,0.0,0.0,0.0,0.0,0.0,0.0,0.0,0.0,0.0,0.0,0.0,0.0,0.0,0.0,0.0,0.0,0.0,3.2787,3.3677,3.445,3.5038,3.5038,3.4829,3.445,3.4829,3.5129,3.5129,3.5626,3.5953,3.5953,3.6502,3.6881,3.6998,3.7469,3.7978,3.854,3.8553,3.8841,3.9429,3.9442,3.9494,3.9612,0.0,0.0,3.9601,4.0056,4.0241,4.0267,4.075,4.0959,4.0933,4.0566,4.0161,3.9782,3.9862,3.9901,3.9849,3.9442,3.9415,3.9591,0.0,0.0,0.0,0.0,0.0,0.0,0.0,2.2455,2.3246,2.5197,2.5713,2.631,2.7429,2.74,2.7428,2.7768,2.74,2.7292,2.7621,2.7557,2.8046,2.9297,2.9738,3.0275,3.0973,3.1005,3.1005,3.1005,3.1099,3.1142,3.1142,3.1142,3.1142,3.1142,3.1043,3.1005,3.1018,3.13,3.1399,3.1477,3.2352,3.2522,3.2222,3.1902,3.1388,3.0849,3.0849,3.0849,3.0797,3.0492,3.0271,3.0057,2.9903,2.9441,2.8766,0.0,0.0,0.0,0.0,0.0,0.0,0.0,0.0,0.0,0.0,0.0,0.0,0.0,0.0,2.9913,0.0,0.0,3.2751,3.3703,3.44,3.4959,3.526,3.5534,3.5587,3.5286,3.5521,3.5704,3.5704,3.6227,3.6554,3.6554,3.7116,3.7456,3.7456,3.7991,3.8436,3.8697,3.8974,3.9405,3.998,3.9993,4.0136,4.0437,4.0437,4.0437,4.0474,4.0736,4.0842,4.0855,4.1155,4.1286,4.1298,4.0959,4.0685,4.0488,4.0762,4.0489,3.9978,3.9703,3.9766,3.9992,0.0,0.0,0.0,0.0,0.0,0.0,0.0,2.3071,2.3825,2.5615,2.6106,2.662,2.7462,2.7286,2.7299,2.779,2.7172,2.7213,2.8219,2.813,2.8642,3.0035,3.0205,3.0497,3.0992,3.1005,3.1005,3.1005,3.1161,3.1235,3.1235,3.1235,3.1235,3.1235,3.108,3.1005,3.1031,3.1464,3.1641,3.1764,3.2947,3.3051,3.2502,3.2248,3.1707,3.1066,3.0911,3.0931,3.0996,3.0725,3.0706,3.0783,3.0667,3.0205,2.9524,2.8706,2.8391,0.0,0.0,0.0,0.0,0.0,0.0,0.0,0.0,0.0,2.9337,2.993,3.0645,3.1501,3.2515,3.324,3.3879,3.4481,3.5064,3.5495,3.5613,3.6005,3.6319,3.6436,3.6345,3.6279,3.6279,3.6828,3.7168,3.7168,3.773,3.8057,3.8057,3.8593,3.8909,3.9037,3.9507,4.003,4.0567,4.0567,4.0816,4.1286,4.1286,4.1286,4.1286,4.1286,4.1286,4.1286,4.1286,4.1286,4.1286,4.1286,4.1286,4.1311,4.1361,4.0823,4.0011,3.9939,4.0119,4.0407,0.0,0.0,0.0,0.0,0.0,0.0,0.0,0.0,2.4171,2.5165,2.5872,2.6381,2.6614,2.6918,2.7028,2.6861,2.6972,2.7294,2.7824,2.8482,2.9236,3.0061,3.062,3.094,3.1005,3.1005,3.1005,3.1005,3.1024,3.1024,3.1024,3.1024,3.1024,3.1024,3.1005,3.1005,3.1005,3.1052,3.1097,3.1201,3.2333,3.243,3.2006,3.3025,3.3005,3.2378,3.1682,3.1746,3.2024,3.0849,3.0759,3.1061,3.0579,3.0374,3.008,2.8979,0.0,2.8827,2.7685,2.8203,0.0,2.8769,2.9385,3.0152,0.0,0.0,3.202,3.2271,3.3188,3.4004,3.4134,3.4653,3.5108,3.5195,3.5652,3.6201,3.6737,3.6867,3.7103,3.7639,3.7233,3.6907,3.6907,3.7442,3.7808,3.7808,3.8305,3.8619,3.8619,3.9194,3.973,4.0189,4.0292,4.0594,4.1181,4.1194,4.1221,4.1286,4.1286,4.1286,4.1286,4.1286,4.1286,4.1286,4.1286,4.1286,4.1286,4.1286,4.1286,4.1311,4.1547,4.1568,4.1438,4.1203,4.1438,4.1854,0.0,0.0,0.0,0.0,0.0,0.0,0.0,0.0,0.0,2.4845,2.5443,2.6047,2.6771,2.7215,2.7285,2.6904,2.6932,2.7434,2.8489,2.8828,2.9486,3.0576,3.0869,3.1005,3.1005,3.1005,3.1005,3.1005,3.1104,3.1161,3.1161,3.1161,3.1161,3.1161,3.1061,3.1005,3.1031,3.132,3.1464,3.1568,3.2751,3.3077,3.2947,3.3757,3.3852,3.3318,3.1855,3.1492,0.0,3.0573,3.0381,3.0566,3.0655,3.0693,3.0521,2.9599,2.9884,0.0,2.994,0.0,0.0,0.0,3.1334,3.1949,3.2259,3.2895,3.3459,3.3651,3.4071,3.4502,3.4855,3.5129,3.5391,0.0,3.6253,3.6711,3.6972,3.7312,3.7625,3.7874,3.7678,3.7521,3.7521,3.7756,3.8031,3.8344,3.8556,3.8867,3.922,3.9769,4.0163,4.0385,4.0737,4.1038,4.1286,4.1286,4.1286,4.1286,4.1286,4.1286,4.1286,4.1286,4.1286,4.1286,4.1286,4.1286,4.1311,4.1486,4.1436,4.1336,4.1771,4.1845,4.1721,4.1746,4.2018,4.2326,0.0,0.0,0.0,0.0,0.0,0.0,0.0,0.0,0.0,0.0,2.5175,2.5965,2.6913,2.7272,2.726,2.6744,2.6918,2.7531,2.8719,2.9008,2.9699,3.0953,3.1005,3.1005,3.1005,3.1005,3.1005,3.1005,3.1142,3.1216,3.123,3.1369,3.1435,3.1448,3.1454,3.1476,3.1483,3.1882,3.2052,3.2143,3.3182,3.3587,3.3652,3.4188,3.4244,3.3814,3.1917,3.1367,3.141,3.0234,3.0069,3.0399,3.0785,3.0798,3.0614,3.0275,3.0775,3.1443,3.1443,0.0,0.0,3.2286,3.2925,3.3359,3.3557,3.3903,3.4261,3.4565,3.4646,3.4829,3.5417,3.5652,3.59,3.6292,3.6854,3.726,3.726,3.7625,3.79,3.79,3.79,3.79,3.79,3.8031,3.8292,3.8684,3.8974,3.9353,3.9808,4.0332,4.0646,4.0646,4.1064,4.1286,4.1286,4.1286,4.1286,4.1286,4.1286,4.1286,4.1286,4.1286,4.1286,4.1286,4.1386,4.1411,4.1436,4.1696,4.1696,4.1597,4.2237,4.2409,4.2286,4.276,4.2763,4.2511,0.0,0.0,0.0,0.0,0.0,0.0,0.0,0.0,0.0,0.0,0.0,0.0,0.0,2.6821,2.6596,2.6003,2.6832,2.756,2.7999,2.8945,2.9946,3.0953,3.1005,3.1005,3.1005,3.1005,3.1005,3.1005,3.1005,3.1005,3.1018,3.1542,3.1771,3.1797,3.2398,3.2653,3.2653,3.2679,3.2659,3.2744,3.3339,3.3587,3.3652,3.4188,3.4194,3.3666,3.1907,3.1831,3.2222,2.9973,2.9961,3.0887,3.088,3.0532,0.0,3.0944,3.1318,0.0,0.0,0.0,3.3272,3.3487,3.3946,3.435,3.4371,3.4384,3.4567,3.5155,3.5273,3.543,3.5979,3.6554,3.6959,3.6972,3.7482,3.7874,3.7874,3.79,3.79,3.79,3.79,3.79,0.0,3.8383,3.8697,3.871,3.9705,4.0345,4.0359,4.0946,4.126,4.126,4.1286,4.1286,4.1286,4.1286,4.1286,4.1286,4.1286,4.1286,4.1286,4.1286,4.1286,4.1311,4.1572,4.1696,4.1721,4.198,4.2079,4.2177,4.317,4.3553,4.3671,4.4652,4.3942,4.2511,0.0,0.0,0.0,0.0,0.0,0.0,0.0,0.0,0.0,0.0,0.0,0.0,0.0,0.0,0.0,0.0,2.6932,2.7474,2.8154,2.8924,2.974,3.0569,3.0852,3.1005,3.1005,3.1005,3.1005,3.1005,3.1005,3.1005,3.1005,3.1182,3.1451,3.181,3.2006,3.2326,3.2744,3.3137,3.3307,3.3339,3.3901,3.4123,3.4131,3.4091,3.3894,3.3412,0.0,3.1429,3.1665,0.0,0.0,0.0,3.0594,0.0,0.0,3.2263,0.0,0.0,0.0,0.0,3.4739,3.5147,3.5129,3.4999,3.4999,3.4999,3.5051,3.526,3.5299,3.5456,3.6005,3.6266,3.6541,3.6933,3.7508,3.79,3.79,3.79,3.79,3.79,3.79,0.0,0.0,0.0,0.0,3.9272,4.0473,4.113,4.1009,4.1663,4.2052,4.209,4.1572,4.1534,4.2027,4.1534,4.1286,4.1286,4.1286,4.1845,4.2808,4.2273,4.2126,4.2286,4.2384,4.2237,4.1993,4.2239,4.2264,4.2226,4.341,4.3766,4.3719,4.4736,4.5005,4.4822,0.0,0.0,0.0,0.0,0.0,0.0,0.0,0.0,0.0,0.0,0.0,0.0,0.0,0.0,0.0,0.0,0.0,2.7437,2.7882,2.8869,2.9666,3.0161,3.0418,3.0574,3.0574,3.0716,3.0784,3.0784,3.0919,3.1005,3.1005,3.1196,3.1464,3.181,3.2039,3.2326,3.2744,3.3339,3.3587,3.3647,3.4048,3.4192,3.4065,3.3725,3.3377,0.0,3.1972,3.1654,3.1577,0.0,0.0,0.0,0.0,0.0,0.0,0.0,0.0,0.0,0.0,3.5479,3.5665,3.6018,3.5848,3.5587,3.5587,3.5587,3.5652,3.5861,3.5744,3.5757,3.6319,3.6253,3.6305,3.6907,3.7325,3.7652,3.7874,3.79,3.79,3.79,3.807,3.8655,0.0,0.0,0.0,4.0282,4.1293,4.1836,4.1706,4.2175,4.2431,4.2468,4.1967,4.1794,4.199,4.1547,4.1436,4.1695,4.1794,4.2493,4.3705,4.3273,4.3177,4.3348,4.3444,4.3156,4.2652,4.2932,4.2919,4.2881,4.3965,4.4598,4.5006,4.5906,4.6668,4.7065,0.0,0.0,0.0,0.0,0.0,0.0,0.0,0.0,0.0,0.0,0.0,0.0,0.0,0.0,0.0,0.0,0.0,0.0,2.7199,2.8739,2.9693,2.9775,2.9793,2.9807,2.9807,3.0174,3.0362,3.0362,3.075,3.0932,3.0945,3.1457,3.1699,3.1751,3.2365,3.266,3.2725,3.3327,3.3589,3.3609,3.3778,3.3758,3.3543,3.3126,3.2741,3.2425,3.2594,3.243,0.0,0.0,0.0,0.0,0.0,0.0,0.0,0.0,0.0,3.6005,3.5539,3.5796,3.6188,3.6188,3.6175,3.6149,3.6149,3.6149,3.6305,3.6881,3.6528,3.6279,0.0,0.0,3.6305,3.6907,3.7037,3.726,3.7861,3.7926,3.7926,0.0,0.0,0.0,0.0,0.0,0.0,4.1767,0.0,4.2501,4.2452,4.2552,4.2577,4.2514,4.2477,4.2137,4.1473,4.1436,4.1807,4.2525,4.2744,4.3259,4.4031,4.4252,4.4359,4.4382,4.4638,4.435,4.3695,4.3955,4.4078,4.4186,4.4917,4.6053,4.7333,4.8082,4.8768,4.9051,0.0,0.0,0.0,0.0,0.0,0.0,0.0,0.0,0.0,0.0,0.0,0.0,0.0,0.0,0.0,0.0,0.0,0.0,2.706,2.8333,2.9181,2.9345,2.9636,2.9807,2.9807,2.99,2.9962,2.9962,3.0055,3.0117,3.0117,3.0245,3.0518,3.0932,3.1537,3.2059,3.2529,3.3119,3.337,3.337,3.3429,3.341,3.3324,3.2772,3.2478,3.2391,3.2282,3.2089,0.0,0.0,0.0,0.0,0.0,0.0,3.4589,0.0,0.0,3.6222,3.6786,3.7166,3.7442,3.7442,3.7103,3.6776,3.6776,3.6776,3.6815,3.6972,3.6528,3.6279,0.0,0.0,0.0,3.6907,3.7377,0.0,3.8423,3.8161,0.0,3.9076,0.0,4.0214,4.1823,4.2786,0.0,0.0,4.4046,4.3871,4.3324,4.3833,4.4139,4.4106,4.3586,4.3467,4.3833,4.3276,4.3396,4.4125,4.3782,4.4312,4.5597,4.5258,4.5235,4.5423,4.5492,4.5218,4.4721,4.4791,4.5112,4.5646,4.6388,4.7193,4.8016,4.8775,4.9434,4.9889,0.0,0.0,0.0,0.0,0.0,0.0,0.0,0.0,0.0,0.0,0.0,0.0,0.0,0.0,0.0,0.0,0.0,0.0,0.0,2.8061,2.8878,2.8941,2.9147,2.9272,2.9272,2.9441,2.9541,2.9541,2.9708,2.9915,3.0096,2.9898,3.0071,3.0568,3.0957,3.1338,3.171,3.2562,3.2845,0.0,0.0,3.2922,3.272,3.2326,3.2174,3.2177,3.2114,0.0,0.0,0.0,0.0,3.4826,3.4942,3.5349,3.5791,3.5912,0.0,3.6992,3.7521,3.7785,3.79,3.79,3.7652,3.7325,3.7063,3.6998,3.6933,3.6658,3.6149,0.0,0.0,0.0,0.0,0.0,0.0,0.0,3.8593,3.824,3.8434,0.0,4.0191,0.0,4.3017,4.385,4.4527,0.0,4.4903,4.4532,4.4097,4.4494,4.4689,4.4703,4.4308,4.412,4.4224,4.38,4.4036,4.4883,4.4647,4.5235,4.6513,4.663,4.6762,4.6918,0.0,4.7006,4.6466,4.6466,4.6683,4.7053,4.747,4.8248,4.9123,4.9551,5.0107,5.0652,0.0,0.0,0.0,0.0,0.0,0.0,0.0,0.0,0.0,0.0,2.4098,0.0,0.0,0.0,0.0,0.0,0.0,0.0,0.0,0.0,2.8542,2.8522,2.8522,2.8522,2.8522,2.8891,2.9077,2.9077,2.9434,2.9816,3.0232,2.9799,2.9833,3.0259,3.0452,3.0592,3.0739,3.1779,3.2173,3.2139,3.2466,3.2409,3.2105,0.0,3.1872,0.0,0.0,0.0,0.0,0.0,3.5674,3.624,3.6319,3.7063,3.7691,3.6658,3.709,3.79,3.79,3.79,3.79,3.79,3.79,3.7743,3.7142,3.6998,3.6828,3.6227,0.0,3.5482,3.6109,3.577,3.5783,3.6933,0.0,3.7596,3.8683,3.8444,3.885,4.0722,4.0976,4.1796,4.3817,4.4515,4.5141,4.5858,4.5238,4.4856,4.4856,4.4856,4.4865,4.486,4.4865,4.4555,4.3908,4.3908,4.434,4.5218,4.5454,4.6061,4.7021,4.7902,4.8364,4.8468,4.9037,4.8937,4.8349,4.8349,4.8393,4.8467,4.8467,4.9227,5.0315,5.0315,5.0712,5.1191,0.0,0.0,0.0,0.0,0.0,0.0,0.0,0.0,0.0,0.0,2.4098,2.4127,0.0,0.0,0.0,0.0,0.0,0.0,0.0,0.0,0.0,2.8151,2.8194,2.8194,2.8194,2.8359,2.8465,2.8465,2.8539,2.8692,2.8918,2.8675,2.8692,2.8945,2.949,2.9981,3.0487,3.1016,3.1612,3.2171,3.2075,3.2093,3.2171,3.1967,0.0,0.0,0.0,0.0,0.0,0.0,3.5716,3.6933,3.7429,3.773,3.7861,3.7652,3.7743,3.79,3.79,3.79,3.79,3.79,3.79,3.7743,3.7142,3.6998,0.0,0.0,3.5678,3.5613,3.6658,3.6358,3.6358,3.7547,0.0,0.0,0.0,0.0,4.0174,0.0,0.0,0.0,0.0,0.0,0.0,0.0,0.0,4.57,4.57,4.57,4.5685,4.5685,4.5685,4.5617,4.5504,4.5504,4.5595,4.5768,4.6188,4.6771,4.7503,4.8045,4.8603,4.9127,4.9247,0.0,4.9096,4.9096,4.9386,4.9855,4.9855,5.0327,5.1026,5.1026,5.1101,5.1191,0.0,0.0,0.0,0.0,0.0,0.0,0.0,2.3949,2.4023,2.4083,2.4098,2.4098,2.4098,2.4301,2.4346,0.0,0.0,0.0,0.0,0.0,0.0,0.0,0.0,0.0,0.0,2.8268,0.0,0.0,0.0,0.0,0.0,0.0,0.0,0.0,0.0,2.9662,2.9984,3.0802,3.1254,3.1451,3.1774,3.189,0.0,0.0,0.0,0.0,0.0,0.0,0.0,0.0,3.4629,3.5774,3.6564,3.7313,3.7825,3.7397,3.7573,3.79,3.79,3.79,3.79,3.79,3.79,3.7665,3.6737,0.0,0.0,0.0,3.5012,3.509,3.5953,0.0,0.0,0.0,0.0,0.0,0.0,0.0,0.0,0.0,0.0,0.0,0.0,0.0,0.0,0.0,0.0,4.5903,4.5903,4.5903,4.5903,4.5903,4.5903,4.5903,4.5903,4.5903,4.6015,4.6261,4.6484,4.7089,4.7971,4.8552,4.9172,4.9793,5.0137,5.0287,5.0287,5.0287,5.0466,5.0727,5.0727,5.0922,5.1191,5.1191,5.1191,5.1191,0.0,0.0,0.0,0.0,0.0,0.0,2.3802,2.3876,2.3949,2.4068,2.4098,2.4098,2.4098,2.4098,2.4098,0.0,0.0,0.0,0.0,0.0,0.0,0.0,0.0,0.0,0.0,0.0,0.0,0.0,0.0,0.0,0.0,0.0,0.0,0.0,0.0,0.0,0.0,3.0465,3.0764,0.0,0.0,0.0,0.0,0.0,0.0,0.0,0.0,0.0,0.0,0.0,3.3482,3.4333,3.4997,3.6182,3.7227,3.6776,3.7065,3.7632,3.7835,3.79,3.79,3.79,3.79,3.7586,3.645,3.6153,0.0,0.0,3.446,3.4601,3.5245,0.0,0.0,0.0,0.0,0.0,0.0,0.0,0.0,0.0,0.0,0.0,0.0,0.0,0.0,0.0,0.0,4.5903,4.5903,4.5903,4.5903,4.5903,4.5903,4.5903,4.5903,4.5948,4.615,4.6528,4.6616,4.7281,4.8439,4.903,4.9703,5.0443,5.0966,5.1191,5.1191,5.1191,5.1191,5.1191,5.1191,5.1191,5.1191,5.1191,5.1191,5.1191,0.0,0.0,0.0,0.0,0.0,0.0,2.3599,2.3774,2.3949,2.4068,2.4098,2.4098,2.4098,2.4098,2.4098,0.0,0.0,0.0,0.0,0.0,0.0,0.0,0.0,0.0,0.0,0.0,0.0,0.0,0.0,0.0,0.0,0.0,0.0,0.0,0.0,0.0,0.0,0.0,0.0,0.0,0.0,0.0,0.0,0.0,0.0,0.0,0.0,0.0,0.0,0.0,0.0,3.3612,3.3337,3.4279,3.5565,3.6236,0.0,0.0,3.7658,3.79,3.79,3.79,3.79,3.7668,3.6683,0.0,0.0,3.5188,3.4701,3.4643,3.5437,3.5435,3.5589,0.0,0.0,3.7776,0.0,0.0,0.0,0.0,0.0,0.0,0.0,0.0,0.0,0.0,0.0,4.5903,4.5903,4.5903,4.5903,4.5903,4.5903,4.5903,4.5903,4.609,4.6188,4.6232,4.6653,4.7585,4.8856,4.9157,4.9965,5.1101,5.1161,5.1191,0.0,5.1191,5.1191,5.1191,5.1191,5.1191,5.1191,5.1191,5.1191,5.1191,0.0,0.0,0.0,0.0,0.0,0.0,2.345,2.3626,2.3789,2.3964,2.4052,2.4098,2.4098,2.4098,2.4098,2.4098,0.0,0.0,0.0,0.0,0.0,0.0,0.0,0.0,0.0,0.0,0.0,0.0,0.0,0.0,0.0,0.0,0.0,0.0,0.0,0.0,0.0,0.0,0.0,0.0,0.0,0.0,0.0,0.0,0.0,0.0,0.0,0.0,0.0,0.0,0.0,0.0,3.2452,3.2878,0.0,0.0,3.6013,3.6617,3.7632,3.79,3.79,3.79,3.79,3.7609,3.6516,0.0,3.6077,3.5118,3.4867,3.4871,3.508,3.5141,3.5241,3.5445,0.0,0.0,0.0,0.0,0.0,0.0,0.0,0.0,0.0,0.0,0.0,0.0,0.0,4.5903,4.5903,4.5903,4.5903,4.5903,4.5903,4.5903,4.5903,4.5993,4.6158,4.6425,4.6624,4.757,4.9141,4.9247,5.001,5.1191,5.1191,5.1191,0.0,5.1191,5.1191,5.1191,5.1191,5.1191,5.1191,5.1191,5.1191,5.1191,0.0,0.0,0.0,0.0,0.0,2.3168,2.3373,2.348,2.3599,2.3802,2.3949,2.4052,2.4052,2.4068,2.4068,2.4052,2.4052,0.0,0.0,0.0,0.0,0.0,0.0,0.0,0.0,0.0,2.7918,2.7706,0.0,0.0,0.0,0.0,0.0,0.0,0.0,0.0,0.0,0.0,0.0,0.0,0.0,0.0,0.0,0.0,0.0,0.0,0.0,0.0,0.0,0.0,0.0,0.0,0.0,0.0,0.0,0.0,3.5534,3.627,3.7563,3.79,3.79,3.79,3.7815,3.7477,0.0,0.0,3.6072,3.5161,3.5003,3.4962,3.4818,3.4921,3.4983,3.49,0.0,3.6844,0.0,0.0,0.0,0.0,0.0,0.0,0.0,0.0,0.0,0.0,4.5903,4.5903,4.5903,4.5903,4.5903,4.5903,4.5903,4.5925,4.5993,4.606,4.6306,4.6705,4.6771,4.757,4.9007,4.9202,4.9883,5.0922,5.1101,5.1191,0.0,5.1191,5.1191,5.1191,5.1191,5.1191,5.1191,5.1191,5.1191,5.1191,0.0,0.0,0.0,0.0,0.0,0.0,2.3373,2.3403,2.3463,2.3584,2.3774,2.3891,2.3891,2.4023,2.4052,2.3905,2.3891,0.0,0.0,0.0,0.0,0.0,0.0,0.0,0.0,0.0,2.7706,2.749,2.7706,2.7706,0.0,0.0,0.0,0.0,0.0,0.0,0.0,0.0,0.0,0.0,0.0,0.0,0.0,0.0,0.0,0.0,0.0,0.0,0.0,0.0,0.0,0.0,0.0,0.0,0.0,0.0,3.5017,3.543,3.7363,3.79,3.79,3.79,3.7601,3.7219,0.0,0.0,3.5812,3.5459,3.5086,3.4797,3.4797,3.4797,3.4859,3.5065,3.615,0.0,0.0,0.0,0.0,0.0,0.0,0.0,0.0,0.0,0.0,0.0,4.5903,0.0,4.5903,4.5903,4.5903,4.5903,4.5903,4.5993,4.6188,4.6447,4.6705,4.6894,4.7164,4.7653,4.8334,4.8992,4.9628,5.024,5.0907,5.1191,0.0,5.1191,5.1191,5.1191,5.1191,5.1191,5.1191,5.1191,5.1191,5.1191,0.0,0.0,0.0,0.0,0.0,0.0,2.3183,2.33,2.3418,2.3463,2.3611,2.3745,2.3891,2.3819,2.3732,2.3688,2.3819,0.0,0.0,0.0,0.0,0.0,0.0,0.0,0.0,0.0,2.6948,2.6748,2.7324,2.7523,2.7352,2.7436,2.7573,0.0,0.0,0.0,0.0,0.0,0.0,0.0,0.0,0.0,0.0,0.0,0.0,0.0,0.0,0.0,0.0,0.0,0.0,0.0,0.0,0.0,0.0,3.3668,0.0,0.0,3.5688,3.6423,3.6836,3.6433,3.6407,3.6394,3.6065,0.0,3.5603,3.5254,3.5086,3.5003,3.5003,3.5003,3.5095,3.5389,3.6552,0.0,0.0,0.0,0.0,0.0,0.0,0.0,0.0,0.0,0.0,4.5903,4.5903,4.5903,4.5903,4.5903,4.5903,4.5903,4.5903,4.5993,4.6188,4.6291,4.6535,4.6894,4.6997,4.7485,4.8319,4.8528,4.9194,5.0196,5.0405,5.0787,5.1191,5.1191,5.1191,5.1191,5.1191,5.1191,5.1191,5.1191,5.1191,5.1191,0.0,0.0,0.0,0.0,0.0,0.0,2.3108,2.321,2.3285,2.3285,2.342,2.3569,2.3698,2.3628,2.3584,2.3524,2.3641,0.0,0.0,0.0,0.0,0.0,0.0,0.0,2.5484,2.6012,2.632,2.6394,2.681,2.7078,2.7197,2.7251,2.7419,2.7606,2.7486,0.0,0.0,0.0,0.0,0.0,0.0,0.0,2.9554,0.0,0.0,0.0,0.0,0.0,0.0,0.0,0.0,0.0,0.0,0.0,0.0,0.0,3.3492,3.4121,0.0,3.5631,3.6169,3.5812,3.5955,0.0,0.0,0.0,3.5259,3.5133,3.4981,3.4901,3.4984,3.5106,3.5336,3.569,3.7064,0.0,0.0,0.0,0.0,0.0,0.0,0.0,0.0,0.0,4.5903,4.5903,4.5903,4.5903,4.5903,4.5903,4.5925,4.6001,4.5948,4.606,4.6358,4.6358,4.658,4.704,4.704,4.7351,4.7923,4.8177,4.873,4.9501,4.9994,5.0443,0.0,5.1101,5.1191,5.1191,5.1191,5.1191,5.1191,5.1191,5.1191,5.1191,0.0,0.0,0.0,0.0,0.0,0.0,0.0,2.3108,2.3108,2.3108,2.3225,2.3358,2.3403,2.3465,2.348,2.3418,2.3358,0.0,0.0,0.0,0.0,0.0,0.0,0.0,2.494,2.5317,2.579,2.6314,2.6218,2.6444,2.6977,2.7167,2.7268,2.7302,2.7285,2.7469,2.7792,0.0,0.0,0.0,0.0,0.0,0.0,0.0,0.0,0.0,0.0,0.0,0.0,0.0,0.0,0.0,0.0,0.0,0.0,0.0,0.0,0.0,0.0,3.5291,0.0,0.0,0.0,0.0,0.0,0.0,0.0,3.5075,3.4768,3.454,3.4794,3.5175,3.5575,3.5999,3.767,0.0,0.0,0.0,0.0,0.0,0.0,0.0,0.0,0.0,4.5903,4.5903,4.5903,4.5903,4.5903,4.5903,4.5993,4.6165,4.5993,4.6127,4.6594,4.6616,4.6837,4.7287,4.7287,4.7309,4.7324,4.7938,4.8259,0.0,4.9546,5.0106,5.024,5.0877,5.1161,5.1191,5.1191,5.1191,5.1191,5.1191,5.1191,5.1191,0.0,0.0,0.0,0.0,0.0,0.0,0.0,0.0,0.0,0.0,2.282,2.2833,2.333,2.2969,2.2878,0.0,0.0,0.0,0.0,0.0,0.0,0.0,0.0,0.0,2.4321,2.4552,2.4979,2.5563,2.5833,2.6248,2.6777,2.6829,2.7015,2.7285,2.7146,2.7251,2.7573,2.762,0.0,0.0,0.0,0.0,0.0,0.0,0.0,0.0,3.0109,3.0059,0.0,0.0,0.0,0.0,0.0,0.0,0.0,0.0,3.2295,3.2481,3.279,0.0,3.4714,3.4259,3.442,0.0,0.0,0.0,0.0,0.0,0.0,3.4473,3.5129,3.5602,3.6041,3.6606,3.8206,0.0,0.0,0.0,0.0,0.0,0.0,0.0,0.0,0.0,4.5903,4.5903,4.5903,4.5903,4.5903,4.5903,4.5925,4.597,4.5925,4.6127,4.6594,4.6756,4.6887,4.6997,4.7207,4.7309,4.7309,4.7459,4.7803,4.8319,4.8611,4.9314,5.0196,5.036,5.0742,5.1191,5.1191,5.1191,5.1191,5.1191,5.1191,5.1191,0.0,0.0,0.0,0.0,0.0,0.0,0.0,0.0,0.0,0.0,2.2334,2.2168,2.2522,2.2469,2.2558,0.0,0.0,0.0,0.0,0.0,0.0,0.0,0.0,2.3833,2.3995,2.4026,2.4282,2.4797,2.521,2.5668,2.6198,2.6536,2.6829,2.7032,2.7011,2.7062,2.7138,2.7335,2.7419,0.0,2.759,0.0,0.0,0.0,0.0,0.0,2.9585,2.946,0.0,2.9059,2.9842,3.0775,0.0,0.0,0.0,0.0,3.22,3.22,3.22,3.3003,3.3773,3.3449,3.3659,3.4171,0.0,0.0,0.0,0.0,0.0,0.0,3.5534,3.5693,0.0,3.7056,3.8263,0.0,0.0,0.0,0.0,0.0,0.0,0.0,0.0,0.0,4.5903,4.5903,4.5903,4.5903,4.5903,4.5903,4.5948,4.6023,4.6038,4.6158,4.6403,4.6646,4.6822,4.6894,4.7164,4.7309,4.7309,4.7309,4.7504,4.7863,4.8184,4.8686,4.9336,4.9673,5.0002,5.0361,5.0622,5.0742,5.0787,5.1086,5.1191,5.1191,0.0,0.0,0.0,0.0,0.0,0.0,0.0,0.0,0.0,0.0,0.0,0.0,0.0,0.0,0.0,0.0,0.0,0.0,0.0,0.0,0.0,0.0,2.3275,2.3671,2.3861,2.3671,2.379,2.4196,2.452,2.4992,2.5598,2.624,2.6603,2.676,2.6926,2.693,2.6833,2.7167,2.7302,2.7335,2.749,0.0,0.0,0.0,0.0,0.0,0.0,0.0,0.0,2.8522,2.9271,3.0137,3.0336,0.0,0.0,0.0,0.0,0.0,3.22,3.269,3.3176,3.312,3.3368,3.38,0.0,0.0,0.0,0.0,0.0,0.0,0.0,0.0,0.0,0.0,0.0,0.0,0.0,0.0,0.0,0.0,0.0,0.0,4.5845,4.5903,4.5903,4.5903,4.5903,4.5903,4.5903,4.5903,4.597,4.6158,4.6143,4.6143,4.6143,4.6447,4.6646,4.6785,4.7099,4.7229,4.7229,4.7287,4.7309,4.7339,0.0,0.0,4.8327,4.8902,4.9202,4.9337,4.9868,5.0129,5.0255,5.0847,5.1101,5.1191,0.0,0.0,0.0,0.0,0.0,0.0,0.0,0.0,0.0,0.0,0.0,0.0,0.0,0.0,0.0,0.0,0.0,0.0,0.0,0.0,0.0,2.2032,2.2942,2.3507,2.3643,2.3495,2.3684,2.4196,2.4142,2.4632,2.5598,2.572,2.619,2.696,2.699,2.7146,2.7373,2.7319,2.7369,2.749,2.7689,0.0,0.0,0.0,0.0,0.0,0.0,0.0,0.0,2.849,2.9271,3.0137,3.0336,0.0,0.0,0.0,0.0,0.0,3.22,3.2878,3.3528,3.3195,3.3151,3.333,0.0,0.0,0.0,0.0,0.0,0.0,0.0,0.0,0.0,0.0,0.0,0.0,0.0,0.0,0.0,0.0,0.0,4.5801,4.5903,4.5903,4.5903,4.5903,4.5903,4.5903,4.5903,4.5903,4.5903,4.5948,4.5948,4.5948,4.5948,4.6373,4.6491,4.6299,4.6756,4.6975,4.6975,4.7207,4.7309,4.7309,0.0,4.7773,4.8319,4.8423,4.8783,4.9307,4.9396,4.9748,5.0196,5.0323,5.0712,5.1191,0.0,0.0,0.0,0.0,0.0,0.0,0.0,0.0,0.0,0.0,0.0,0.0,0.0,0.0,0.0,0.0,0.0,0.0,0.0,0.0,2.1035,2.1341,2.2331,2.306,2.348,2.3433,2.347,2.3603,2.3872,2.4255,2.4745,2.545,2.6114,2.6739,2.6909,2.7028,2.707,2.7235,2.7268,2.7251,0.0,0.0,0.0,0.0,0.0,0.0,0.0,0.0,0.0,0.0,2.9204,2.9967,3.0171,0.0,0.0,0.0,0.0,0.0,3.22,3.2536,3.3038,3.3742,3.4,3.4246,0.0,0.0,0.0,0.0,0.0,0.0,0.0,0.0,0.0,0.0,0.0,0.0,0.0,0.0,0.0,0.0,0.0,4.5903,4.5903,4.5903,4.5903,4.5903,4.5903,4.5903,4.5903,4.5903,4.5903,4.5903,4.5903,4.5903,4.5903,4.6105,4.6202,4.621,4.6675,4.6894,4.6894,4.7186,4.7309,4.7309,0.0,4.7474,4.7758,4.7758,4.7938,4.8304,4.9007,4.9471,4.9808,5.0488,5.0936,5.1191,0.0,0.0,0.0,0.0,0.0,0.0,0.0,0.0,0.0,0.0,0.0,0.0,0.0,0.0,0.0,0.0,0.0,0.0,0.0,2.0711,2.0823,2.1051,2.1792,2.2515,2.315,2.3271,2.3256,2.3108,2.3562,2.3941,2.4217,2.5319,2.608,2.6555,2.6858,2.6943,2.685,2.7201,2.7251,2.713,0.0,0.0,0.0,0.0,0.0,0.0,0.0,0.0,0.0,0.0,0.0,0.0,0.0,0.0,0.0,3.189,3.2036,3.22,3.22,3.2368,3.2896,3.4355,3.4661,0.0,0.0,0.0,0.0,0.0,0.0,0.0,0.0,0.0,0.0,0.0,0.0,0.0,0.0,0.0,0.0,4.3935,4.5111,4.5903,4.5903,4.5903,4.5903,4.5903,4.5903,4.5903,4.5903,4.5903,4.5903,4.5903,4.5903,4.5903,4.5903,4.5903,4.5993,4.621,4.6646,4.6851,4.6894,4.7186,4.7309,4.7309,4.7309,4.7309,4.7309,4.7309,4.7309,4.7399,4.8438,4.8917,4.9217,5.0511,5.0877,5.078,0.0,0.0,0.0,0.0,0.0,0.0,0.0,0.0,0.0,0.0,0.0,0.0,0.0,0.0,0.0,0.0,0.0,0.0,0.0,2.0167,2.0571,2.1518,2.1616,2.192,2.2466,2.2896,2.3108,2.3108,2.3145,2.371,2.4754,2.5351,2.6001,2.6679,2.6909,2.7096,2.7268,2.7419,2.7486,2.7469,2.7486,0.0,0.0,0.0,0.0,0.0,0.0,0.0,0.0,0.0,0.0,0.0,0.0,0.0,3.189,3.189,3.2036,3.22,3.22,3.2887,3.3841,3.481,3.4372,0.0,3.6506,3.6537,0.0,0.0,0.0,0.0,0.0,0.0,0.0,0.0,0.0,0.0,0.0,0.0,4.3957,4.3979,4.5111,4.5903,4.5903,4.5903,4.5903,4.5903,4.5903,4.5903,4.5903,4.5903,4.5903,4.5903,4.5903,4.5903,4.5903,4.5903,4.5993,4.6188,4.6506,4.6712,4.6894,4.7186,4.7309,4.7309,4.7309,4.7309,4.7309,4.7309,4.7309,4.7309,4.7414,4.7818,4.8521,4.98,4.9927,4.9516,0.0,0.0,0.0,0.0,0.0,0.0,0.0,0.0,0.0,0.0,0.0,0.0,0.0,0.0,0.0,0.0,0.0,0.0,0.0,2.0102,2.0421,2.1119,2.1439,2.1846,2.2389,2.2851,2.3108,2.3108,2.3108,2.3509,2.4318,2.4987,2.5562,2.6043,2.671,2.7028,2.7113,2.7302,2.7419,2.749,2.749,2.749,0.0,0.0,0.0,0.0,0.0,0.0,0.0,0.0,2.8818,2.9597,2.9614,3.0668,3.1872,3.1743,3.1945,3.22,3.22,3.2933,3.4122,3.5908,3.6213,0.0,0.0,3.8476,3.871,3.9074,0.0,0.0,0.0,0.0,0.0,0.0,0.0,0.0,0.0,4.3195,4.3993,4.3993,4.5111,4.5903,4.5903,4.5903,4.5903,4.5903,4.5903,4.5903,4.5903,4.5903,4.5903,4.5903,4.5903,4.5903,4.5903,4.6023,4.6202,4.6447,4.655,4.6705,4.6894,4.7186,4.7309,4.7309,4.7309,4.7309,4.7309,4.7309,4.7309,4.7339,4.7758,4.8334,4.8977,4.9449,4.9501,4.9322,0.0,0.0,0.0,0.0,0.0,0.0,0.0,0.0,0.0,0.0,0.0,0.0,0.0,0.0,0.0,0.0,0.0,0.0,2.0102,2.0102,2.0405,2.1087,2.1424,2.1924,2.2607,2.2942,2.3108,2.3108,2.3108,2.3411,2.4004,2.4684,2.5214,2.564,2.6587,2.7007,2.7024,2.7251,2.7419,2.749,2.749,2.754,0.0,0.0,0.0,0.0,0.0,0.0,0.0,0.0,2.8777,2.9258,2.9526,3.0348,3.1217,3.1145,3.1469,3.1889,3.2116,3.2745,3.3892,0.0,0.0,0.0,3.9134,3.991,4.0383,4.0334,0.0,0.0,0.0,0.0,0.0,0.0,0.0,4.2092,4.2092,4.3195,4.3993,4.3993,4.5111,4.5903,4.5903,4.5903,4.5903,4.5903,4.5903,4.5903,4.5903,4.5903,4.5903,4.5903,4.5903,4.5903,4.5903,4.6113,4.6336,4.6594,4.6646,4.68,4.7019,4.7207,4.7309,4.7309,4.7309,4.7309,4.7309,4.7309,4.7309,4.7354,4.7803,4.8274,4.8693,4.8902,4.8843,4.8708,0.0,0.0,0.0,0.0,0.0,0.0,0.0,0.0,0.0,0.0,0.0,0.0,0.0,0.0,0.0,0.0,0.0,0.0,2.0107,2.0107,2.0566,2.1553,2.16,2.2079,2.3078,2.3108,2.3108,2.3108,2.3108,2.3411,2.4004,2.454,2.508,2.5628,2.6587,2.7007,2.7024,2.7352,2.749,2.749,2.749,2.7623,2.7792,0.0,0.0,0.0,0.0,0.0,0.0,0.0,2.8847,2.8563,2.9503,2.9807,2.9841,3.0037,3.0569,3.1235,3.1915,3.2353,0.0,0.0,0.0,0.0,3.9752,4.0576,4.1226,4.1953,0.0,0.0,0.0,0.0,0.0,4.0989,4.1657,4.2092,4.2092,4.3181,4.3979,4.3993,4.5133,4.5903,4.5903,4.5903,4.5903,4.5903,4.5903,4.5903,4.5903,4.5903,4.5903,4.5903,4.5903,4.5903,4.5903,4.6113,4.6336,4.6616,4.6822,4.704,4.7309,4.7309,4.7309,4.7309,4.7309,4.7309,4.7309,4.7309,4.7309,4.7309,4.7309,4.7309,4.7384,4.8042,4.7863,4.7399,0.0,0.0,0.0,0.0,0.0,0.0,0.0,0.0,0.0,0.0,0.0,0.0,0.0,0.0,0.0,0.0,0.0,0.0,2.063,2.0663,2.1099,2.2118,2.2149,2.2457,2.3093,2.3108,2.3108,2.3108,2.3108,2.3195,2.3399,2.4349,2.4892,2.508,2.6173,2.6773,2.7007,2.7113,2.7268,2.7506,2.7656,2.7656,2.7606,0.0,0.0,0.0,0.0,0.0,0.0,0.0,0.0,0.0,2.8987,2.9474,3.0019,3.0071,3.0343,3.0737,3.1373,0.0,0.0,0.0,0.0,0.0,0.0,4.1643,0.0,0.0,0.0,0.0,0.0,0.0,0.0,4.1062,4.1657,4.2092,4.2092,4.2789,4.3456,4.3935,4.4712,4.538,4.5859,4.5903,4.5903,4.5903,4.5903,4.5903,4.5903,4.5903,4.5903,4.5903,4.5903,4.597,4.6113,4.6358,4.658,4.6822,4.7055,4.7207,4.7309,4.7309,4.7309,4.7309,4.7309,4.7309,4.7309,4.7309,4.7309,4.7309,4.7309,4.7309,4.7324,4.7519,4.7474,4.7339,0.0,0.0,0.0,0.0,0.0,0.0,0.0,0.0,0.0,0.0,0.0,0.0,0.0,0.0,0.0,0.0,0.0,0.0,0.0,2.0903,2.1348,2.2359,2.2405,2.2622,2.3093,2.3108,2.3108,2.3108,2.3108,2.3108,2.3118,2.4277,2.4804,2.4854,2.6127,2.6807,2.7007,2.7146,2.7319,2.7506,2.7623,2.7656,2.7623,0.0,0.0,0.0,0.0,0.0,0.0,0.0,0.0,0.0,2.8828,2.9127,2.9443,2.9698,3.0321,3.1152,3.2239,0.0,0.0,0.0,0.0,0.0,0.0,0.0,0.0,0.0,0.0,0.0,4.1517,4.1497,0.0,4.1497,4.1831,4.2092,4.2092,4.2615,4.3158,4.3544,4.4356,4.5061,4.5445,4.5743,4.5903,4.5903,4.5903,4.5903,4.5903,4.5903,4.5903,4.5903,4.597,4.609,4.6188,4.6558,4.6778,4.6894,4.7164,4.7309,4.7309,4.7309,4.7309,4.7309,4.7309,4.7309,4.7309,4.7309,4.7309,4.7309,4.7309,4.7309,4.7309,4.7309,4.7309,4.7309,0.0,0.0,0.0,0.0,0.0,0.0,0.0,0.0,0.0,0.0,0.0,0.0,0.0,0.0,0.0,0.0,0.0,0.0,0.0,2.1015,2.1463,2.242,2.2466,2.2653,2.3093,2.3108,2.3108,2.3108,2.3108,2.3108,2.3118,2.4277,2.4804,2.487,2.6328,2.696,2.7007,2.7335,2.7486,2.7486,2.7523,2.7623,2.7759,2.7792,0.0,0.0,0.0,0.0,0.0,0.0,0.0,0.0,2.8843,2.8777,2.8481,2.9073,3.0415,3.2082,3.379,0.0,0.0,0.0,0.0,0.0,0.0,0.0,0.0,0.0,0.0,0.0,4.2092,4.2092,4.2092,4.2092,4.2092,4.2092,4.2092,4.2571,4.2934,4.2977,4.403,4.4756,4.4814,4.538,4.5758,4.5801,4.5816,4.5845,4.5903,4.5903,4.5903,4.5925,4.6113,4.621,4.6254,4.6697,4.6894,4.6953,4.7186,4.7309,4.7309,4.7309,4.7309,4.7309,4.7309,4.7309,4.7309,4.7309,4.7309,4.7309,4.7309,4.7309,4.7309,4.7309,4.7309,4.7309,0.0,0.0,0.0,0.0,0.0,0.0,0.0,0.0,0.0,0.0,0.0,0.0,0.0,0.0,0.0,0.0,0.0,0.0,0.0,2.1839,2.2347,2.2927,2.2957,2.3002,2.3108,2.3108,2.3108,2.3108,2.3108,2.3108,2.3118,2.4277,2.4804,2.4854,2.6181,2.676,2.6794,2.7184,2.7335,2.7369,2.7623,2.7673,2.7573,2.7739,2.7792,0.0,0.0,0.0,0.0,0.0,0.0,0.0,2.8413,2.8701,2.8894,2.8782,3.0155,3.1917,0.0,3.5254,0.0,0.0,0.0,0.0,0.0,0.0,0.0,0.0,0.0,0.0,4.2092,4.2092,4.2092,4.2092,4.2092,4.2092,4.2092,4.2208,4.2469,4.2934,4.3239,4.3623,4.4139,4.4313,4.4625,4.509,4.5119,4.5351,4.5874,4.5903,4.597,4.6135,4.6165,4.6366,4.6756,4.6851,4.7019,4.7207,4.7287,4.7309,4.7309,4.7309,4.7309,4.7309,4.7309,4.7309,4.7309,4.7309,4.7309,4.7309,4.7309,4.7309,4.7309,4.7309,4.7309,4.7309,0.0,0.0,0.0,0.0,0.0,0.0,0.0,0.0,0.0,0.0,0.0,0.0,0.0,0.0,0.0,0.0,0.0,0.0,0.0,0.0,2.2607,2.3078,2.3108,2.3108,2.3108,2.3108,2.3108,2.3108,2.3108,2.3153,2.3281,2.4419,2.4984,2.5099,2.6403,2.6998,2.7015,2.7285,2.7403,2.7419,2.759,2.759,2.7506,2.7623,2.7656,2.7656,0.0,0.0,0.0,0.0,0.0,0.0,0.0,0.0,2.922,2.932,3.0879,3.2894,0.0,0.0,0.0,0.0,0.0,0.0,0.0,0.0,0.0,0.0,0.0,0.0,4.2092,4.2092,4.2092,4.2092,4.2092,4.2092,4.2092,4.2092,4.2208,4.2528,4.2818,4.3144,4.3485,4.3805,4.4124,4.4465,4.4458,4.4669,4.5113,4.5434,4.5705,4.5903,4.6329,4.6653,4.6894,4.7019,4.7164,4.7309,4.7309,4.7309,4.7309,4.7309,4.7309,4.7309,4.7309,4.7309,4.7309,4.7309,4.7309,4.7309,4.7309,4.7309,4.7309,4.7309,4.7309,4.7309,0.0,0.0,0.0,0.0,0.0,0.0,0.0,0.0,0.0,0.0,0.0,0.0,0.0,0.0,0.0,0.0,0.0,0.0,0.0,0.0,0.0,2.2957,2.3063,2.3108,2.3108,2.3108,2.3108,2.3108,2.3138,2.3293,2.3613,2.463,2.5164,2.5361,2.6701,2.7302,2.7302,2.7436,2.749,2.749,2.754,2.754,2.757,2.759,2.759,2.7636,0.0,0.0,0.0,0.0,0.0,0.0,0.0,0.0,2.9516,2.9938,3.175,3.4089,0.0,0.0,0.0,0.0,0.0,0.0,0.0,0.0,0.0,0.0,0.0,4.2092,4.2092,4.2092,4.2092,4.2092,4.2092,4.2092,4.2092,4.2092,4.2092,4.2092,4.2528,4.2832,4.2832,4.3362,4.3725,4.3819,4.3862,4.3992,4.4272,4.4849,4.5272,4.5481,4.6199,4.659,4.6618,4.6842,4.695,4.6965,4.707,4.7189,4.7309,4.7309,4.7309,4.7309,4.7309,4.7309,4.7309,4.7309,4.7309,4.7309,4.7309,4.7309,4.7309,4.7309,4.7309,4.7309,0.0,0.0,0.0,0.0,0.0,0.0,0.0,0.0,0.0,0.0,0.0,0.0,0.0,0.0,0.0,0.0,0.0,0.0,0.0,0.0,0.0,2.2497,2.2881,2.3108,2.3108,2.3108,2.3108,2.3108,2.3271,2.3704,2.4359,2.4871,2.5164,2.5361,2.6701,2.7302,2.7302,2.7436,2.749,2.7523,2.7689,2.7772,2.7789,2.7951,2.8013,2.803,0.0,0.0,0.0,0.0,2.83,0.0,0.0,0.0,2.9936,2.9673,3.1734,3.4437,0.0,0.0,0.0,0.0,0.0,0.0,0.0,0.0,0.0,0.0,4.2092,4.2092,4.2092,4.2092,4.2092,4.2092,4.2092,4.2092,4.2092,4.2092,4.2092,4.2092,4.2165,4.2223,4.2223,4.2295,4.2571,4.3079,4.3285,4.366,4.4279,4.4538,4.4815,4.5077,4.5194,4.5343,4.5517,4.5559,4.5559,4.5559,4.6151,4.6734,4.7309,4.7309,4.7309,4.7309,4.7309,4.7309,4.7309,4.7309,4.7309,4.7309,4.7309,4.7309,4.7309,4.7309,4.7309,4.7309,0.0,0.0,0.0,0.0,0.0,0.0,0.0,0.0,0.0,0.0,0.0,0.0,0.0,0.0,0.0,0.0,0.0,0.0,0.0,0.0,0.0,2.2775,2.2987,2.3108,2.3108,2.321,2.3213,2.3108,2.3375,2.385,2.452,2.5098,2.5617,2.6129,2.7141,2.7523,2.7436,2.7719,2.7769,2.7689,2.7901,2.8033,2.8129,2.8113,2.8176,2.8247,0.0,0.0,0.0,0.0,0.0,0.0,2.8444,0.0,0.0,0.0,0.0,0.0,0.0,0.0,0.0,0.0,0.0,0.0,0.0,0.0,0.0,0.0,4.2092,4.2092,4.2092,4.2092,4.2092,4.2092,4.2092,4.2092,4.2092,4.2092,4.2092,4.2092,4.2092,4.2092,4.2092,4.2201,4.238,4.2642,4.2843,4.3146,4.3555,4.4007,4.438,4.4586,4.4965,4.5221,4.5289,4.5289,4.5289,4.5304,4.5971,4.645,4.6749,4.713,4.7309,4.7309,4.7309,4.7309,4.7309,4.7309,4.7309,4.7309,4.7309,4.7309,4.7309,4.7309,4.7048,4.6734,0.0,0.0,0.0,0.0,0.0,0.0,0.0,0.0,0.0,0.0,0.0,0.0,0.0,0.0,0.0,0.0,0.0,0.0,0.0,0.0,0.0,2.2896,2.3047,2.3123,2.3168,2.3315,2.3373,2.3288,2.3599,2.403,2.4614,2.541,2.6109,2.6732,2.7476,2.7772,2.7723,2.7984,2.8033,2.7937,2.8143,2.8324,2.8458,0.0,0.0,2.8662,2.8441,0.0,0.0,0.0,0.0,0.0,0.0,0.0,0.0,0.0,0.0,0.0,0.0,0.0,0.0,0.0,0.0,0.0,0.0,0.0,0.0,0.0,4.2092,4.2092,4.2092,4.2092,4.2092,4.2092,4.2092,4.2092,4.2092,4.2092,4.2092,4.2092,4.2154,4.2175,4.2175,4.2366,4.2474,4.2474,4.2648,4.2835,4.2981,4.3511,4.3895,4.4042,4.4541,4.4796,4.4796,4.4796,4.4885,4.505,4.5538,4.5882,4.6061,4.6756,4.7055,4.707,4.7234,4.7309,4.7309,4.7309,4.7309,4.7309,4.7309,4.7309,4.7309,4.7309,4.6973,4.6555,0.0,0.0,0.0,0.0,0.0,0.0,0.0,0.0,0.0,0.0,0.0,0.0,2.0102,2.0102,2.0302,2.0823,2.0919,2.1151,2.1647,2.1663,2.1877,2.2408,2.2866,0.0,2.3388,2.3403,2.3552,2.3861,2.3995,2.4342,2.4905,2.5831,2.6426,2.6732,2.7476,2.7973,2.8254,0.0,0.0,0.0,0.0,0.0,0.0,0.0,0.0,0.0,0.0,0.0,0.0,0.0,0.0,0.0,0.0,0.0,3.1737,0.0,0.0,0.0,0.0,0.0,0.0,0.0,0.0,0.0,0.0,0.0,0.0,0.0,4.2092,4.2092,4.2092,4.2092,4.2092,4.2092,4.2092,4.2092,4.2092,4.2092,4.2092,4.2092,4.2263,4.2372,4.2372,4.2561,4.2688,4.2688,4.2875,4.2981,4.3001,4.322,4.3349,4.3349,4.3379,4.3394,4.3394,4.3394,4.3728,4.4341,4.4386,4.4751,4.5364,4.6046,4.6345,4.639,4.7018,4.7309,4.7309,4.7309,4.7309,4.7309,4.7309,4.7309,4.7309,4.7309,4.7279,4.7249,0.0,0.0,0.0,0.0,0.0,0.0,0.0,0.0,0.0,0.0,0.0,0.0,0.0,2.0102,2.0172,2.0367,2.0695,2.1242,2.2056,2.2103,2.2334,2.2836,2.3017,2.3183,2.3403,2.348,2.3584,2.3715,2.4057,2.4462,2.492,2.5737,2.6489,2.7171,2.7838,2.8072,2.799,2.8295,0.0,0.0,0.0,0.0,0.0,0.0,0.0,0.0,0.0,0.0,0.0,0.0,0.0,0.0,0.0,3.0621,3.2038,3.3221,0.0,0.0,0.0,0.0,0.0,0.0,0.0,0.0,0.0,0.0,0.0,4.2092,4.2092,4.2092,4.2092,4.2092,4.2092,4.2092,4.2092,4.2092,4.2092,4.2092,4.2154,4.2284,4.2366,4.2453,4.2581,4.2769,4.2895,4.2895,4.3076,4.319,4.319,4.327,4.329,4.329,4.329,4.329,4.329,4.329,4.3409,4.3668,4.4087,4.4436,4.4691,4.5364,4.5663,4.5678,4.5918,4.6501,4.7309,4.7309,4.7309,4.7309,4.7309,4.7309,4.7309,4.7309,4.704,4.6659,0.0,0.0,0.0,0.0,0.0,0.0,0.0,0.0,0.0,2.0107,0.0,0.0,0.0,0.0,2.0134,2.0199,2.0727,2.14,2.2192,2.2395,2.2769,2.3381,2.3648,2.3768,2.3742,2.3895,2.3957,2.3938,2.4261,2.4625,2.5084,2.589,2.6614,2.7279,2.8048,2.8281,0.0,0.0,0.0,2.8463,0.0,0.0,2.9363,0.0,0.0,0.0,0.0,0.0,0.0,0.0,0.0,0.0,0.0,3.1292,3.2654,3.4079,0.0,0.0,0.0,0.0,0.0,0.0,0.0,0.0,0.0,0.0,4.1578,4.1735,4.1932,4.2092,4.2092,4.2092,4.2092,4.2092,4.2092,4.2092,4.2092,4.2092,4.2175,4.2372,4.2474,4.2581,4.2789,4.2975,4.3095,4.3095,4.323,0.0,4.329,4.329,4.329,4.329,4.329,4.329,4.329,4.329,4.329,4.3324,4.3758,4.3967,4.3982,4.4661,4.496,4.4975,4.52,4.5798,4.6636,4.6636,4.6636,4.6636,4.6636,4.677,4.6958,4.6958,4.6809,4.6629,0.0,0.0,0.0,0.0,0.0,0.0,0.0,0.0,2.0346,2.0151,0.0,0.0,0.0,0.0,0.0,2.0405,2.1031,2.1573,2.1925,2.2436,2.3135,2.3985,2.4697,2.4868,2.4413,2.4589,2.4663,2.4591,2.4605,2.4883,2.5427,2.6386,2.6869,2.7003,2.8104,2.86,2.8644,0.0,2.8603,2.8695,0.0,2.9871,2.9403,0.0,0.0,0.0,3.2176,3.268,0.0,3.3006,0.0,0.0,0.0,3.2487,3.3649,3.4323,0.0,0.0,0.0,0.0,0.0,0.0,0.0,0.0,0.0,0.0,4.05,4.0957,4.157,4.2034,4.2034,4.2034,4.2049,4.2063,4.2092,4.2092,4.2092,4.2092,4.2175,4.2372,4.2581,4.2789,4.2996,4.319,4.329,4.329,4.329,4.329,4.329,4.329,4.329,4.329,4.329,4.329,4.329,4.329,4.329,4.329,4.329,4.329,4.3319,4.3967,4.4267,4.4311,4.496,4.5229,4.5244,4.5274,4.5289,4.5289,4.5289,4.5708,4.6271,4.6271,4.6674,4.7249,0.0,0.0,0.0,0.0,0.0,0.0,2.0621,2.0621,2.0604,0.0,0.0,0.0,2.0524,2.054,2.069,2.1101,2.1502,2.2131,2.2995,2.3424,2.3982,2.4763,2.458,2.4504,2.4601,2.4303,2.4212,2.4379,2.4917,2.5328,2.5634,2.6731,2.7555,2.8134,2.8314,2.8706,2.9214,2.8793,0.0,0.0,2.9249,3.0076,0.0,0.0,0.0,0.0,0.0,3.627,3.5064,0.0,3.4848,3.332,0.0,0.0,0.0,0.0,0.0,0.0,3.5488,0.0,0.0,0.0,0.0,0.0,0.0,0.0,0.0,3.9926,4.0318,4.0655,4.0655,4.0655,4.08,4.1294,4.1787,4.2092,4.2092,4.2092,4.2222,4.2581,4.2683,4.283,4.319,4.327,4.329,0.0,4.329,4.329,4.329,4.329,4.329,4.329,4.329,4.329,4.329,4.329,4.329,4.329,4.329,4.329,4.3305,4.3504,4.3579,4.3594,4.3773,4.3848,4.3923,4.49,4.5289,4.5289,4.5289,4.5409,4.5594,4.574,4.5818,4.5864,0.0,0.0,0.0,0.0,0.0,2.0822,2.097,2.0836,2.0669,0.0,0.0,0.0,2.0965,2.1381,2.1767,2.2036,2.2527,2.3111,2.38,2.4381,2.4933,2.5411,2.5231,2.5126,2.5161,2.463,2.4539,2.4881,2.5226,2.589,2.681,2.7559,2.8239,2.8852,0.0,0.0,0.0,0.0,0.0,0.0,2.9727,0.0,0.0,3.37,3.5191,0.0,0.0,0.0,3.6742,3.7478,3.6221,0.0,0.0,0.0,0.0,0.0,0.0,0.0,0.0,0.0,0.0,0.0,0.0,0.0,3.646,3.752,3.8553,0.0,3.9761,4.0104,4.0104,4.0104,4.0234,4.0612,4.1004,4.1453,4.202,4.2175,4.2345,4.2648,4.2769,4.2935,4.327,4.329,4.329,4.329,4.329,4.329,4.329,4.329,4.329,4.329,4.329,4.329,4.329,4.329,4.329,4.329,4.329,4.329,4.329,4.329,4.329,4.329,4.329,4.329,4.3349,4.4132,4.4481,4.4481,4.4481,4.4646,4.4906,4.5116,4.5296,4.5455,0.0,0.0,2.1034,2.151,2.1221,2.1002,2.1312,2.1048,2.0763,0.0,2.076,2.1092,2.1525,2.2443,2.3064,2.319,2.3801,2.4263,2.4522,2.529,2.5819,2.5955,2.6183,2.6113,2.5733,2.5269,2.5274,2.5804,2.576,2.6654,2.8435,2.8682,2.8993,2.9339,0.0,0.0,0.0,0.0,0.0,2.9048,3.0884,3.1796,0.0,0.0,3.5608,3.7124,3.7022,3.7517,3.8192,3.8192,3.6998,0.0,0.0,0.0,0.0,0.0,3.507,0.0,0.0,0.0,0.0,0.0,0.0,0.0,3.5298,3.6099,3.6934,3.8454,3.9222,3.9625,3.9625,3.9605,3.9605,3.9586,3.9717,4.0298,4.1712,4.2065,4.2303,4.259,4.2791,4.3001,4.3255,4.329,4.329,4.329,4.329,4.329,4.329,4.329,4.329,4.329,4.329,4.329,4.329,4.329,4.329,4.329,4.329,4.329,4.329,4.329,4.329,4.329,4.329,4.329,4.329,4.329,4.329,4.329,4.329,4.3668,4.4197,4.4419,4.4881,4.5414,0.0,0.0,2.0767,2.0884,2.0902,2.091,2.0996,2.1376,2.1647,2.1614,2.2017,2.2415,2.2659,2.2971,2.3502,2.4365,2.4493,2.4929,2.5919,2.6063,2.6162,2.6297,2.5897,2.5566,2.5314,2.521,2.5576,2.642,2.7359,2.8314,2.9286,2.9805,3.0103,3.0164,2.9699,0.0,0.0,0.0,0.0,3.086,3.1896,0.0,3.5085,3.6079,3.7077,3.8044,3.8656,3.8588,3.8192,3.8139,3.7854,3.7347,0.0,0.0,0.0,0.0,0.0,0.0,0.0,0.0,0.0,0.0,0.0,0.0,3.39,3.4353,3.495,0.0,3.6372,3.6723,3.6723,3.6588,3.6485,3.6482,3.7245,3.852,4.0465,4.0773,4.1121,4.2031,4.2169,4.2476,4.3225,4.329,4.329,4.329,4.329,4.329,4.329,4.329,4.329,4.329,4.329,4.329,4.329,4.329,4.329,4.329,4.329,4.329,4.329,4.329,4.329,4.329,4.329,4.329,4.329,4.329,4.329,4.329,4.329,4.3384,4.3524,4.3777,4.3946,4.4106,0.0,2.0923,2.1005,2.1157,2.1337,2.1487,2.1623,2.2017,2.2306,2.2306,2.2913,2.3431,2.3619,2.4198,2.4832,2.5551,2.5866,2.6271,2.6812,2.7043,2.7134,2.7105,2.661,2.6483,2.6731,2.6392,2.6796,2.8057,2.8587,2.9379,3.0408,3.0703,3.0797,3.0736,3.0198,0.0,0.0,0.0,3.1399,3.2464,3.3204,0.0,3.6344,3.7254,3.8102,3.8853,3.9269,3.9128,3.8773,3.8632,3.8445,0.0,0.0,3.697,3.6796,0.0,3.6025,3.611,0.0,0.0,0.0,3.3994,0.0,0.0,0.0,3.4042,3.4466,3.5361,3.5733,3.5798,3.5444,0.0,3.5255,3.5236,3.6251,3.7436,3.8587,3.9818,4.0836,4.1486,4.1652,4.2002,4.2791,4.2851,4.2985,4.3275,4.329,4.329,4.329,4.329,4.329,4.329,4.329,4.329,4.329,4.329,4.329,4.329,4.329,4.329,4.329,4.329,4.329,4.329,4.329,4.3472,4.3752,4.3752,4.3927,4.4143,4.3547,4.329,4.3329,4.3714,4.3851,4.389,0.0,0.0,2.1502,2.1754,2.1977,2.2186,2.2366,2.2685,2.2926,2.2978,2.3844,2.452,2.4709,2.5613,2.6343,2.6659,2.7224,2.7503,2.7348,2.7841,2.807,2.7871,2.7657,2.779,2.8311,2.7852,2.8284,2.9675,2.9558,3.0129,3.13,3.141,3.1275,3.0929,3.0873,0.0,0.0,0.0,0.0,3.3782,0.0,3.5877,3.7048,3.8017,3.8785,3.9337,3.9388,3.9388,3.9304,3.9007,3.8716,3.8367,3.7846,3.7526,0.0,0.0,0.0,0.0,0.0,0.0,0.0,0.0,0.0,3.2198,0.0,0.0,0.0,0.0,0.0,0.0,0.0,0.0,0.0,0.0,0.0,0.0,0.0,3.8197,0.0,4.0865,4.111,4.1463,4.2141,4.2321,4.2601,4.3085,4.3235,4.329,4.329,4.329,4.329,4.329,4.329,4.329,4.329,4.329,4.329,4.329,4.329,4.329,4.329,4.329,4.329,4.3309,4.3293,4.3626,4.4186,4.4178,4.4416,4.4663,4.3667,4.3402,4.3571,4.37,4.3944,4.4247,2.1737,2.1969,0.0,2.2161,2.2417,2.2582,2.2423,2.3075,2.3682,2.3995,2.525,2.6169,0.0,0.0,0.0,0.0,0.0,0.0,2.7496,0.0,2.8292,2.8073,2.8522,2.8665,2.839,2.8834,2.9484,3.031,3.0279,3.0632,3.1318,3.1785,3.1405,0.0,3.1802,0.0,0.0,0.0,3.4233,0.0,3.6804,3.771,0.0,3.8682,3.9063,3.9159,3.9337,3.9283,3.9033,0.0,3.8447,3.8563,0.0,3.7703,3.8091,0.0,0.0,0.0,0.0,0.0,0.0,0.0,3.338,0.0,0.0,0.0,3.2736,3.2855,0.0,0.0,0.0,0.0,0.0,0.0,0.0,0.0,3.291,3.4412,3.6781,4.0084,4.0498,4.0771,4.1448,4.2051,4.2425,4.2515,4.3015,4.329,4.329,4.329,4.329,4.329,4.329,4.329,4.329,4.329,4.329,4.329,4.329,4.329,4.329,4.329,4.329,4.3299,4.3239,4.3587,4.4194,4.4137,4.3868,4.3492,4.3357,4.3765,4.4305,4.3243,4.3746,4.4958,2.2811,2.2844,0.0,2.2685,2.32,2.3558,2.3357,2.4009,2.4743,2.5392,2.5948,0.0,0.0,0.0,0.0,0.0,0.0,2.8983,0.0,0.0,0.0,2.9938,2.9861,0.0,3.0075,2.9981,3.0272,3.092,3.0581,3.0717,3.1318,3.1854,3.1747,0.0,3.2231,0.0,3.254,0.0,3.5073,0.0,0.0,0.0,0.0,3.8925,3.9159,3.9283,3.9355,3.9265,3.9078,0.0,3.8918,0.0,0.0,0.0,0.0,0.0,0.0,0.0,0.0,0.0,0.0,0.0,0.0,0.0,3.2766,0.0,3.2497,0.0,0.0,0.0,0.0,0.0,0.0,0.0,3.2288,0.0,0.0,0.0,3.5783,0.0,0.0,0.0,3.9133,4.0111,4.0816,4.1209,4.1818,4.2372,4.2765,4.3115,4.329,4.329,4.329,4.329,4.329,4.2955,4.2776,4.2761,4.2387,4.2365,4.266,4.266,4.283,4.3115,4.3097,4.3438,4.4017,4.4,4.4066,4.4104,4.3362,4.3131,4.322,4.3308,4.3954,4.4892,2.3956,0.0,0.0,0.0,2.4059,2.4464,2.433,2.4878,0.0,0.0,0.0,0.0,2.7868,2.8582,0.0,0.0,2.9797,3.0285,0.0,0.0,3.0806,0.0,0.0,0.0,0.0,3.0814,3.0866,3.13,3.0703,3.0773,3.1519,3.2065,3.2223,3.2114,0.0,3.3638,3.4097,0.0,0.0,3.7198,3.7976,3.8529,3.8907,3.9104,3.9319,3.9481,3.9481,3.9319,3.9093,3.9128,3.9101,0.0,3.8936,0.0,0.0,0.0,0.0,0.0,3.6158,0.0,0.0,0.0,0.0,0.0,0.0,0.0,0.0,0.0,0.0,0.0,0.0,0.0,0.0,0.0,0.0,3.2886,0.0,0.0,0.0,0.0,0.0,0.0,0.0,3.7995,3.8868,3.949,4.0169,4.0954,4.1811,4.2447,4.2861,4.304,4.322,4.329,4.329,4.3026,4.2793,4.2627,4.23,4.2232,4.2419,4.2419,4.2636,4.2994,4.2966,4.3312,4.3899,4.3862,4.4017,4.4184,4.3324,4.2652,4.2282,4.316,4.3965,4.4762,2.501,2.4886,0.0,0.0,0.0,0.0,2.507,0.0,0.0,0.0,0.0,0.0,0.0,0.0,0.0,0.0,0.0,3.1382,3.1005,0.0,3.1643,0.0,0.0,3.2026,0.0,0.0,3.1273,3.13,3.0703,3.0966,3.2082,3.2616,3.2836,3.2843,3.4426,3.5249,3.5502,3.6428,3.697,3.7295,3.8342,3.8896,3.9104,0.0,3.9517,3.9681,3.9681,0.0,0.0,3.8578,3.8731,0.0,0.0,0.0,0.0,0.0,0.0,0.0,0.0,0.0,0.0,3.4817,0.0,0.0,0.0,0.0,3.2318,0.0,0.0,0.0,0.0,0.0,0.0,0.0,0.0,0.0,0.0,0.0,0.0,0.0,0.0,0.0,0.0,3.608,3.68,3.727,3.8035,3.9065,4.0382,4.1104,4.1747,4.241,4.3015,4.329,4.329,4.3873,4.3827,4.3182,4.3747,4.3648,4.2958,4.2958,4.2992,4.298,4.2863,4.3213,4.3886,4.3749,4.341,4.2982,4.3132,4.2749,4.214,4.251,4.3512,4.4803,0.0,0.0,0.0,0.0,0.0,0.0,0.0,2.6507,0.0,0.0,0.0,0.0,0.0,3.0427,3.106,0.0,0.0,3.2489,3.2883,3.2855,0.0,0.0,0.0,3.3117,0.0,0.0,0.0,0.0,0.0,3.0983,3.2117,3.265,3.3068,3.3459,0.0,3.5482,0.0,0.0,0.0,0.0,0.0,3.8981,3.9063,0.0,3.9427,3.9517,3.9646,3.9535,0.0,3.9265,3.9286,3.9274,3.9104,3.8862,3.862,3.8452,3.8025,3.76,0.0,0.0,3.7003,3.5529,0.0,0.0,0.0,0.0,0.0,0.0,0.0,0.0,0.0,0.0,0.0,0.0,0.0,0.0,0.0,0.0,0.0,0.0,0.0,0.0,0.0,0.0,3.5429,3.602,3.7116,3.8123,3.902,3.9709,4.0382,4.1059,4.1698,4.2252,4.2705,4.2904,4.2669,4.2002,4.177,4.1669,4.1676,4.1676,4.205,4.2732,4.2703,4.2816,4.3041,4.2992,4.2863,4.2719,4.2911,4.286,4.2699,4.3154,4.3848,4.4685,2.5326,0.0,0.0,0.0,0.0,0.0,0.0,0.0,0.0,0.0,2.9995,0.0,3.0823,0.0,3.2106,0.0,3.2949,3.3692,3.4277,3.4073,0.0,3.428,3.4182,0.0,0.0,0.0,0.0,0.0,0.0,3.1402,3.2717,3.3061,3.363,3.4363,0.0,3.5768,3.6548,0.0,3.8022,0.0,0.0,3.9275,0.0,0.0,3.9528,3.9327,0.0,3.9785,3.964,3.975,3.9661,3.9499,3.9499,3.9164,3.8751,3.8751,3.8452,3.8105,3.8105,3.8049,0.0,3.6485,3.5816,0.0,3.3856,0.0,0.0,0.0,0.0,0.0,0.0,0.0,0.0,0.0,0.0,0.0,0.0,3.0766,0.0,0.0,0.0,0.0,0.0,0.0,3.386,3.4647,3.5532,3.6402,3.7315,3.8195,3.9005,3.9664,4.058,4.1254,4.1673,4.2334,4.2295,4.1611,4.1584,4.1574,4.1574,4.1574,4.1948,4.2602,4.2602,4.2602,4.2602,4.2602,4.2602,4.2618,4.2822,4.293,4.3009,4.3435,4.4012,4.4648,0.0,0.0,0.0,0.0,2.6342,0.0,0.0,0.0,3.0119,0.0,3.1919,3.2661,3.3725,3.4058,3.4266,3.4466,3.4678,3.49,3.5086,3.5106,0.0,0.0,3.4353,3.3506,3.1237,0.0,0.0,0.0,0.0,0.0,3.3814,3.3814,3.4421,0.0,3.5504,0.0,3.708,3.708,3.7962,3.9391,3.9977,3.9701,3.9059,3.9936,3.9734,3.9123,3.9982,4.0172,4.0013,4.0013,3.9889,3.9732,3.9699,3.9571,3.9409,3.9406,3.9406,3.9406,3.9406,3.8928,3.8272,3.7584,3.6971,0.0,0.0,0.0,3.5569,0.0,0.0,0.0,0.0,0.0,0.0,0.0,0.0,0.0,0.0,0.0,0.0,0.0,0.0,0.0,0.0,3.2002,3.2241,3.324,3.3423,3.4083,0.0,3.6626,3.7599,3.8335,3.9619,4.0337,4.0397,4.2148,4.2651,4.1935,4.305,4.3218,4.2508,4.2555,4.2571,4.2602,4.2602,4.2602,4.2602,4.2602,4.2602,4.2618,4.2837,4.2991,4.3159,4.3342,4.3922,4.4654,2.6529,2.6663,2.693,0.0,2.7613,2.787,0.0,0.0,0.0,0.0,3.2676,3.3017,3.3007,3.3582,3.3999,3.404,3.4658,0.0,0.0,0.0,0.0,3.5029,3.5271,3.49,3.3853,3.4034,0.0,3.2492,0.0,0.0,3.3814,3.3814,3.4421,0.0,0.0,0.0,3.6585,3.6735,3.7453,3.853,3.8832,3.8772,3.8562,0.0,3.9508,3.931,4.005,4.0277,4.0224,4.0224,4.0189,4.0086,3.9788,3.9646,3.9589,3.9427,3.9406,3.9406,3.9406,3.9182,3.8713,3.7839,3.728,3.6762,0.0,0.0,0.0,0.0,0.0,0.0,0.0,0.0,0.0,0.0,0.0,0.0,0.0,0.0,0.0,2.9763,0.0,0.0,0.0,3.199,3.2572,3.3531,3.353,3.4083,3.5429,0.0,3.6,3.7614,3.8467,3.9379,4.0382,4.1358,4.1491,4.0825,4.1511,4.1696,4.1425,4.1819,4.2222,4.2602,4.2602,4.2602,4.2602,4.2602,4.2602,4.2634,4.2929,4.3219,4.3477,4.3539,4.3699,4.3878,2.7491,0.0,0.0,2.9234,0.0,0.0,3.0503,3.164,0.0,3.3413,3.3989,0.0,3.4027,3.4333,3.4586,3.4687,3.5015,0.0,3.5358,0.0,0.0,3.5541,3.5642,3.5338,3.4551,3.471,0.0,3.2839,0.0,0.0,3.3814,3.4039,0.0,0.0,0.0,3.5799,0.0,3.7128,3.7701,3.8173,3.897,3.9097,0.0,3.9657,3.9902,3.9862,4.0245,4.0383,4.0383,4.0383,4.0364,4.0259,4.0033,3.9841,3.9679,3.9571,3.9463,3.9406,3.9406,3.9373,3.9233,3.871,3.8477,3.8264,3.7834,3.7699,3.7698,0.0,3.6794,3.5591,0.0,0.0,0.0,0.0,0.0,0.0,0.0,0.0,0.0,0.0,0.0,0.0,0.0,3.151,3.2407,3.3201,3.3126,3.3425,3.4221,0.0,3.5131,3.6537,3.7479,3.8467,3.9514,4.0429,4.0801,4.0675,4.1206,4.1552,4.1721,4.2013,4.2365,4.2728,4.2634,4.2665,4.2805,4.2759,4.2774,4.2851,4.3113,4.3357,4.3524,4.3583,4.3598,4.3598,0.0,0.0,0.0,0.0,0.0,0.0,0.0,3.3217,0.0,3.4829,0.0,3.569,3.569,3.5541,3.5521,3.5669,0.0,3.5521,3.569,3.569,3.569,3.569,3.569,3.5285,3.442,3.4739,0.0,0.0,0.0,0.0,0.0,0.0,0.0,0.0,0.0,0.0,0.0,3.7693,3.8161,3.8147,3.9618,3.9925,3.9568,4.0228,4.0489,4.0489,4.0489,4.0489,4.0489,4.0489,4.0418,4.0329,4.0312,4.0051,3.9785,3.9732,3.9589,3.9463,3.946,3.9589,3.975,3.9785,3.9892,4.0013,4.0049,4.0049,3.9886,3.9343,3.8145,3.7,3.646,0.0,0.0,0.0,0.0,0.0,0.0,0.0,0.0,0.0,0.0,0.0,0.0,0.0,3.1802,3.26,3.2467,3.2542,3.3006,0.0,3.4815,3.5609,3.6701,3.7644,3.8395,3.951,4.0351,4.0907,4.1509,4.2029,4.2492,4.2602,4.2712,4.2853,4.2696,4.2805,4.3067,4.2914,4.296,4.3128,4.3327,4.3402,4.3432,4.3568,4.3598,4.3598,0.0,0.0,0.0,0.0,0.0,3.1276,3.3295,3.3443,3.3858,3.5359,3.5622,3.569,3.569,3.5669,3.5649,3.569,3.5669,0.0,0.0,0.0,0.0,3.569,3.569,3.5629,3.544,3.552,3.4918,0.0,0.0,0.0,0.0,0.0,0.0,0.0,0.0,0.0,3.666,3.7186,0.0,3.8256,3.9235,3.9581,3.9568,4.0228,4.0489,4.0489,4.0489,4.0489,4.0489,4.0489,4.0472,4.0453,4.0331,4.0259,4.0121,3.9803,3.9785,3.9854,3.9696,3.9785,3.9996,4.0139,4.0101,4.0066,4.0349,4.0331,4.0095,3.956,3.871,3.7541,3.583,0.0,0.0,0.0,0.0,0.0,0.0,0.0,0.0,0.0,0.0,3.2138,0.0,0.0,0.0,3.2392,3.1901,3.2466,0.0,0.0,3.4897,0.0,3.6553,3.7227,0.0,0.0,3.97,4.0357,4.1327,4.1852,4.1965,4.2571,4.2775,4.2665,4.2791,4.2884,4.293,4.2728,4.282,4.3128,4.3327,4.3479,4.3568,4.3598,4.3598,4.3598,0.0,0.0,0.0,0.0,0.0,0.0,0.0,3.3754,3.4198,3.5528,3.569,3.569,3.569,3.569,3.569,3.569,3.569,3.569,3.569,3.569,3.569,3.569,3.569,0.0,3.569,3.569,3.512,3.3908,0.0,0.0,0.0,0.0,0.0,0.0,0.0,3.6262,0.0,0.0,0.0,3.8841,3.96,3.9961,4.0061,4.0384,4.0489,4.0489,4.0489,4.0489,4.0489,4.0489,4.0489,4.0489,4.0436,4.0364,4.0261,4.0069,4.0013,3.9978,3.9889,4.0013,4.0172,4.0277,4.0294,4.0296,4.0455,4.0437,4.0236,3.9628,3.8918,3.7854,3.6089,3.4347,0.0,0.0,0.0,0.0,0.0,0.0,0.0,0.0,0.0,0.0,0.0,0.0,0.0,0.0,0.0,0.0,0.0,0.0,3.4872,0.0,0.0,0.0,3.8797,0.0,3.9833,4.1042,4.1656,4.2094,4.2381,4.2728,4.2883,4.2851,4.2899,4.3008,4.3161,4.3129,4.3221,4.3372,4.3462,4.3539,4.3598,4.3598,4.3598,4.3598,0.0,3.2245,0.0,0.0,3.2549,0.0,3.3881,3.4163,3.4634,3.5581,3.569,3.569,3.569,3.569,3.569,3.569,3.569,3.569,3.569,3.569,3.569,3.569,3.569,3.569,3.569,3.569,3.5174,0.0,0.0,0.0,0.0,0.0,0.0,0.0,0.0,0.0,0.0,0.0,3.9104,3.9562,4.0132,4.0401,4.0489,4.0489,4.0489,4.0489,4.0489,4.0489,4.0489,4.0489,4.0489,4.0489,4.0489,4.0436,4.0331,4.0312,4.0207,4.0101,4.0066,4.0207,4.0331,4.0331,4.0418,4.0489,4.0489,4.0489,4.0336,3.983,3.9061,3.8027,3.6487,3.5416,0.0,0.0,0.0,0.0,0.0,0.0,0.0,0.0,0.0,0.0,3.1407,0.0,0.0,0.0,0.0,0.0,3.4228,0.0,0.0,0.0,0.0,3.7074,3.8661,0.0,3.9603,4.1099,4.1486,4.1979,4.2594,4.2702,4.289,4.3098,4.3037,4.3129,4.3342,4.3509,4.3568,4.3568,4.3598,4.3598,4.3598,4.3598,4.3598,4.3598,0.0,0.0,0.0,0.0,0.0,0.0,3.4868,3.4775,3.4846,3.5602,3.569,3.569,3.569,3.569,3.569,3.569,3.569,3.569,3.569,3.569,3.569,3.569,3.569,3.569,3.569,3.569,3.5378,0.0,0.0,3.5263,0.0,0.0,0.0,0.0,0.0,0.0,0.0,3.9122,3.9619,4.022,4.0405,4.0489,4.0489,4.0489,4.0489,4.0489,4.0489,4.0489,4.0489,4.0489,4.0489,4.0489,4.0489,4.0489,4.047,4.0347,4.0366,4.0436,4.0296,4.0366,4.0472,4.0472,4.0489,4.0489,4.0489,4.0489,4.0474,4.0413,3.9384,3.8027,3.6487,3.6244,3.6214,0.0,0.0,0.0,0.0,0.0,0.0,0.0,0.0,0.0,0.0,3.3123,0.0,0.0,3.2375,0.0,0.0,0.0,0.0,3.5672,3.5732,3.614,3.6926,3.7419,3.8049,3.8827,3.9755,4.0665,4.1571,4.2119,4.2628,4.3113,4.3281,4.3281,4.3143,4.3342,4.3417,4.3432,4.3553,4.3598,4.3598,4.3598,4.3598,4.3598,0.0,0.0,0.0,0.0,0.0,0.0,0.0,3.547,3.5798,3.6071,3.6018,3.5878,3.5723,3.569,3.5764,3.5918,3.5938,3.5978,3.6098,3.5998,3.5938,3.5938,3.5784,3.569,3.569,3.569,3.5405,0.0,0.0,0.0,0.0,0.0,0.0,0.0,0.0,3.8497,3.9215,3.9696,4.0104,4.0436,4.0472,4.0489,4.0489,4.0489,4.0489,4.0489,4.0489,4.0489,4.0489,4.0489,4.0489,4.0489,4.0489,4.0489,4.0489,4.0436,4.047,4.0489,4.0436,4.047,4.0489,4.0489,4.0489,4.0489,4.0489,4.0489,4.0489,4.0489,3.943,3.806,3.6644,3.646,3.643,3.6242,0.0,0.0,0.0,0.0,0.0,0.0,0.0,0.0,0.0,0.0,0.0,0.0,0.0,0.0,0.0,0.0,0.0,3.4606,0.0,3.6165,3.7172,3.7668,3.8419,3.9409,4.0225,4.0852,4.1277,4.1528,4.1996,4.2625,4.2701,4.2992,4.3417,4.3477,4.3524,4.3539,4.3583,4.3598,4.3598,4.3598,4.3598,4.3613,3.5131,0.0,3.5112,0.0,3.5433,3.5748,3.565,3.6135,3.6504,3.6504,3.6365,3.6172,3.5924,3.5904,3.5978,3.6172,3.6186,3.6246,3.6385,3.6206,3.6106,3.6106,3.5844,0.0,3.569,3.569,3.5486,3.5066,3.5455,0.0,0.0,0.0,0.0,0.0,3.8817,3.9291,3.9675,4.0149,4.0418,4.0489,4.0489,4.0489,4.0489,4.0489,4.0489,4.0489,4.0489,4.0489,4.0489,4.0489,4.0489,4.0489,4.0489,4.0489,4.0489,4.0489,4.0489,4.0489,4.0489,4.0489,4.0489,4.0489,4.0489,4.0489,4.0489,4.0489,4.0382,3.9999,3.9153,3.8092,3.6738,3.6507,3.646,3.6305,0.0,0.0,0.0,0.0,0.0,0.0,3.4835,3.4468,3.3418,3.2148,0.0,0.0,0.0,0.0,0.0,0.0,0.0,0.0,0.0,0.0,3.7042,3.7575,3.8247,3.9039,3.9657,4.0241,4.0773,4.1101,4.1537,4.2032,4.1988,4.2358,4.2969,4.314,4.3239,4.33,4.3515,4.3598,4.3598,4.3598,4.3598,4.3628,3.6634,3.6516,3.6437,3.6634,3.6516,3.647,3.6648,3.6688,3.6701,3.6701,3.6701,3.6623,3.6425,3.6385,3.6385,3.6405,3.6405,3.6405,3.6405,3.6206,3.6106,0.0,0.0,3.569,3.569,3.569,3.569,3.569,0.0,0.0,3.6596,0.0,3.8258,3.927,3.9302,3.9738,4.0489,4.0489,4.0489,4.0489,4.0489,4.0489,4.0489,4.0489,4.0489,4.0489,4.0489,4.0489,4.0489,4.0489,4.0489,4.0489,4.0489,4.0489,4.0489,4.0489,4.0489,4.0489,4.0489,4.0489,4.0489,4.0489,4.0489,4.0489,4.0489,4.0489,4.0105,3.8799,3.8507,3.8092,3.6738,3.6507,3.6507,3.6507,0.0,0.0,0.0,0.0,0.0,3.6196,3.6336,3.6336,3.5991,3.4851,0.0,0.0,0.0,0.0,0.0,0.0,0.0,3.5944,3.6773,0.0,3.602,3.669,3.6931,3.6739,3.7222,3.8238,3.9764,4.0882,4.1411,4.1397,4.1273,4.1302,4.1463,4.2065,4.2391,4.2587,4.3317,4.3598,4.3598,4.3598,4.3598,4.3628,3.6875,3.6836,3.6817,3.6875,3.6836,3.6817,3.6875,3.6895,3.6895,3.6895,3.6895,3.6875,3.6831,3.6569,3.6464,0.0,3.6603,3.6603,0.0,3.6544,3.6385,3.6106,3.6012,3.5898,3.569,3.569,3.569,3.569,0.0,0.0,0.0,3.8424,3.9213,3.999,4.0079,4.0255,4.0489,4.0489,4.0489,4.0489,4.0489,4.0489,4.0489,4.0489,4.0489,4.0489,4.0489,4.0489,4.0489,4.0489,4.0489,4.0489,4.0489,4.0489,4.0489,4.0489,4.0489,4.0489,4.0489,4.0489,4.0489,4.0489,4.0489,4.0489,4.0489,4.0153,3.9568,3.8676,3.8138,3.7554,3.6661,3.6507,3.6507,3.6507,3.6507,0.0,3.6507,0.0,3.6153,3.5154,3.5091,3.5046,3.4805,3.3685,0.0,0.0,0.0,0.0,0.0,0.0,0.0,0.0,3.6595,0.0,3.7086,3.7621,3.7842,3.7793,3.8268,3.9082,4.0169,4.0029,4.0481,4.1378,4.0872,4.0936,4.1411,4.1602,4.1716,4.1775,4.2007,4.2106,4.2156,4.2669,4.2941,4.314,3.6998,3.6998,3.6998,3.6998,3.6998,3.6998,3.6998,3.6998,3.6998,3.6998,3.6998,3.6998,3.6998,3.6792,0.0,3.6792,3.6811,3.6811,3.6811,3.6747,3.6603,3.6345,3.6246,3.6132,3.5978,3.5965,0.0,3.5965,3.6309,3.7034,3.8127,3.896,3.971,4.0383,4.047,4.0489,4.0489,4.0489,4.0489,4.0489,4.0489,4.0489,4.0489,4.0489,4.0489,4.0489,4.0489,4.0489,4.0489,4.0489,4.0489,4.0489,4.0489,4.0489,4.0489,4.0489,4.0489,4.0489,4.0489,4.0489,4.0489,4.0489,4.0489,4.0489,4.0489,3.9967,3.9307,3.863,3.7969,3.7292,3.6615,3.6507,3.6507,3.6507,3.6507,3.6507,3.6507,0.0,3.6199,0.0,0.0,0.0,0.0,3.4312,3.4143,0.0,0.0,0.0,0.0,0.0,3.4134,3.5883,3.6703,3.711,3.7071,3.7608,3.8076,3.8454,3.9446,4.007,4.0379,3.9915,4.0047,4.058,4.0163,4.0213,4.063,4.0912,4.1028,4.1044,4.1295,4.1394,4.1461,4.1998,4.2283,4.2477,3.6998,3.6998,3.6998,3.6998,3.6998,3.6998,3.6998,3.6998,3.6998,3.6998,3.6998,3.6998,3.6998,3.6998,3.6998,3.6998,0.0,0.0,3.6993,3.6811,3.6721,3.6682,3.6524,3.6425,3.6405,3.6405,3.6425,3.6425,3.7046,3.7587,3.8101,3.8954,3.972,4.0385,4.0385,4.0403,4.0437,4.0437,4.0472,4.0489,4.0489,4.0489,4.0489,4.0489,4.0489,4.0489,4.0489,4.0489,4.0489,4.0489,4.0489,4.0489,4.0489,4.0489,4.0489,4.0489,4.0489,4.0489,4.0489,4.0489,4.0489,4.0489,4.0489,4.0489,4.0428,3.9922,3.9245,3.8568,3.7908,3.723,3.663,3.6507,3.6507,3.6507,3.6507,3.6507,3.6507,3.6507,3.6507,0.0,0.0,0.0,3.6507,3.6336,3.6227,0.0,0.0,0.0,0.0,0.0,3.3708,3.6244,3.7061,3.7107,3.6336,3.6934,3.7732,3.8666,4.0402,4.0919,4.0354,4.0332,3.9978,3.9381,3.9315,3.9299,3.9348,4.0044,4.0312,4.0393,4.1011,4.1245,4.1276,4.153,4.1635,4.1674,0.0,0.0,3.6998,3.6998,3.6998,3.6998,3.6998,3.6998,3.6998,3.6998,3.6998,3.6998,3.6998,3.6998,3.6998,3.6998,3.6998,3.6934,3.6786,3.687,3.6792,3.647,3.6583,3.6563,3.6405,3.6405,3.6484,3.6642,3.7231,3.7663,3.7952,3.862,3.9038,3.9202,3.9202,3.9469,3.9895,3.9895,4.0124,4.0489,4.0489,4.0489,4.0489,4.0489,4.0489,4.0489,4.0489,4.0489,4.0489,4.0489,4.0489,4.0489,4.0489,4.0489,4.0489,4.0489,4.0489,4.0489,4.0489,4.0489,4.0489,4.0489,4.0489,4.0384,3.9861,3.9214,3.8538,3.7877,3.72,3.6676,3.6538,3.6507,3.6507,3.6507,3.6507,3.6507,3.6507,3.6507,3.6507,0.0,3.6507,3.6507,3.6507,3.646,3.643,0.0,0.0,3.5353,3.6538,3.495,3.5089,3.7412,3.735,3.7351,3.749,3.7648,3.7862,3.8097,3.8892,3.9467,3.9872,3.9663,3.9779,4.0111,3.9547,3.9299,3.9315,3.9497,3.9564,3.958,3.9733,3.9799,3.9879,4.0596,4.0935,4.1124,3.6998,3.6998,3.6998,3.6998,3.6998,3.6998,3.6998,3.6998,3.6998,3.6998,3.6998,3.6998,3.6998,3.6998,3.6998,3.6998,3.6998,3.6954,3.6831,3.6934,3.6895,3.6674,3.6772,3.6792,3.6674,3.6674,3.6688,3.6701,3.7129,3.7486,3.7772,3.8188,3.8671,3.9217,3.9217,3.9523,4.0053,3.9806,3.9859,4.0106,3.9826,3.9879,4.0124,4.0124,4.0281,4.0489,4.0489,4.0489,4.0489,4.0489,4.0489,4.0489,4.0489,4.0489,4.0489,4.0489,4.0489,4.0489,4.0489,4.0489,4.0489,4.0489,4.0489,4.032,3.9661,3.8984,3.8307,3.7646,3.6969,3.6507,3.6507,3.6507,3.6507,3.6507,3.6507,3.6507,3.6507,3.6507,3.6507,3.6507,3.6507,3.6507,3.6507,3.6507,3.6507,3.6507,3.583,0.0,3.6445,3.5814,3.5994,3.7222,3.7013,3.6998,3.7269,3.8015,3.8395,3.841,3.9412,3.9919,4.0029,3.9869,3.9846,3.9865,3.9481,3.9299,3.9299,3.9299,3.9299,3.9299,3.9299,3.9339,3.9472,3.9987,4.027,4.0466,3.6998,3.6998,3.6998,3.6998,3.6998,3.6998,3.6998,3.6998,3.6998,3.6998,3.6998,3.6998,3.6998,3.6998,3.6998,3.6998,3.6998,3.6998,3.6998,3.6998,3.6998,3.6998,3.6998,3.6998,3.6998,3.6998,3.6915,3.6747,3.6915,3.7173,3.7524,3.7772,3.8393,3.9307,3.9484,3.9824,4.0213,3.9859,3.9753,3.977,3.9256,3.9361,3.9824,3.9824,4.0106,4.0489,4.0489,4.0489,4.0489,4.0489,4.0489,4.0489,4.0489,4.0489,4.0489,4.0489,4.0489,4.0489,4.0489,4.0489,4.0489,4.0489,4.0413,4.0166,3.9507,3.883,3.8169,3.7492,3.6892,3.6507,3.6507,3.6507,3.6507,3.6507,3.6338,3.6276,3.6461,0.0,3.6276,3.6492,3.6507,3.6507,3.6507,3.6507,3.6507,3.6507,3.6507,3.6507,3.6507,3.6507,3.6538,3.66,3.6538,3.6538,3.66,3.8093,3.8826,3.8857,4.03,4.0682,4.0131,4.0202,3.9895,3.9299,3.9299,3.9299,3.9299,3.9299,3.9312,3.9325,3.9325,3.9405,3.9554,3.9677,3.9794,3.9926,3.6998,3.6998,3.6998,3.6998,3.6998,3.6998,3.6998,3.6998,3.6998,3.6998,3.6998,3.6998,3.6998,3.6998,3.6998,3.6998,3.6998,3.6998,3.6998,3.6998,3.6998,3.6998,3.6998,3.6998,3.6998,3.6998,3.6978,3.6954,3.6978,3.7037,3.7095,3.7639,3.7734,3.7467,3.8486,3.8998,3.9093,3.952,3.9965,4.0368,4.0281,4.0298,4.0368,4.0368,4.042,4.0489,4.0489,4.0489,4.0489,4.0489,4.0489,4.0489,4.0489,4.0489,4.0489,4.0489,4.0489,4.0489,4.0489,4.0489,4.0489,4.0489,4.0059,3.9476,3.8814,3.8138,3.7461,3.6784,3.6569,3.6507,3.6507,3.6507,3.6507,3.6507,3.5552,3.5213,3.6338,0.0,3.5229,3.6369,3.6507,3.6507,3.6507,3.6507,3.6507,3.6507,3.6507,3.6507,3.6507,3.6507,3.6677,3.7089,3.6708,3.6693,3.7089,3.7749,3.8075,3.8075,3.8734,3.897,3.8886,3.9289,3.9415,3.9299,3.9299,3.9299,3.9299,3.9299,3.9365,3.9475,3.9475,3.955,3.9694,3.9807,3.9888,3.9926,3.6998,3.6998,3.6998,3.6998,3.6998,3.6998,3.6998,3.6998,3.6998,3.6998,3.6998,3.6998,3.6998,3.6998,3.6998,3.6998,3.6998,3.6998,3.6998,3.6998,3.6998,3.6998,3.6998,3.6998,3.6998,3.6998,3.6998,3.6998,3.6998,3.6998,3.6998,3.7275,3.7429,3.7505,3.8075,3.8505,3.88,3.8745,3.8874,3.9096,3.9096,3.9277,3.9631,3.9948,4.0246,4.0489,4.0489,4.0489,4.0489,4.0489,4.0489,4.0489,4.0489,4.0489,4.0489,4.0489,4.0489,4.0489,4.0489,4.0489,4.0489,4.0489,3.9999,3.9322,3.8645,3.7968,3.7307,3.6646,3.6507,3.6507,3.6507,3.6507,3.6507,3.6507,3.5984,3.5783,3.6415,3.5968,3.5814,3.643,3.6507,3.6507,3.6507,3.6507,3.6507,3.6507,3.6507,3.6507,3.6507,3.6507,3.66,3.6816,3.7104,3.7358,3.7579,3.8044,3.8272,3.8286,3.875,3.8985,3.8985,3.9205,3.9299,3.9299,3.9299,3.9299,3.9299,3.9299,3.9379,3.9501,3.9501,3.9629,3.9824,3.9888,3.9952,4.0011,3.6998,3.6998,3.6998,3.6998,3.6998,3.6998,3.6998,3.6998,3.6998,3.6998,3.6998,3.6998,3.6998,3.6998,3.6998,3.6998,3.6998,3.6998,3.6998,3.6998,3.6998,3.6998,3.6998,3.6998,3.6998,3.6998,3.6998,3.6998,3.6998,3.6998,3.6998,3.7134,3.7385,3.7696,3.7981,3.8281,3.856,3.8244,3.8113,3.8113,3.8113,3.8393,3.8855,3.9307,3.9841,4.0316,4.0316,4.0385,4.0489,4.0489,4.0489,4.0489,4.0489,4.0489,4.0489,4.0489,4.0489,4.0489,4.0489,4.0489,4.0459,4.0305,3.9768,3.9091,3.8414,3.7754,3.7123,3.6615,3.6507,3.6507,3.6507,3.6507,3.6507,3.6507,0.0,3.6138,3.6461,3.623,3.6153,3.6445,3.6507,3.6507,3.6507,3.6507,3.6507,3.6507,3.6507,3.6507,3.6507,3.6507,3.66,3.6831,3.7417,3.7799,3.79,3.8357,3.8653,3.8764,3.9137,3.9299,3.9299,3.9299,3.9299,3.9299,3.9299,3.9312,3.9339,3.9339,3.9445,3.9577,3.9577,3.9733,3.9952,3.9952,4.0011,4.0096,3.6998,3.6998,3.6998,3.6998,3.6998,3.6998,3.6998,3.6998,3.6998,3.6998,3.6998,3.6998,3.6998,3.6998,3.6998,3.6998,3.6998,3.6998,3.6998,3.6998,3.6998,3.6998,3.6998,3.6998,3.6998,3.6998,3.6998,3.6998,3.6998,3.6998,3.6998,3.7563,3.7563,3.7115,3.8225,3.8449,3.8,3.8523,3.8727,3.8727,3.8727,3.8764,3.88,3.8852,3.9235,3.9753,3.9753,4.0071,4.0489,4.0489,4.0489,4.0489,4.0489,4.0489,4.0489,4.0489,4.0489,4.0489,4.0489,4.0489,4.0336,3.9737,3.9076,3.8399,3.7738,3.7046,3.6553,3.6507,3.6507,3.6507,3.6507,3.6507,3.6507,3.6507,0.0,0.0,3.6338,3.5429,3.5106,3.6353,3.6507,3.6507,3.6507,3.6507,3.6507,3.6507,3.6507,3.6507,3.6507,3.6507,3.6892,3.777,3.7447,3.7461,3.79,3.8357,3.8819,3.9258,3.9285,3.9299,3.9299,3.9299,3.9299,3.9299,3.9299,3.9365,3.9488,3.9488,3.9646,3.9875,3.9875,3.9948,4.01,4.01,4.0083,4.0096,3.6998,3.6998,3.6998,3.6998,3.6998,3.6998,3.6998,3.6998,3.6998,3.6998,3.6998,3.6998,3.6998,3.6998,3.6998,3.6998,3.6998,3.6998,3.6998,3.6998,3.6998,3.6998,3.6998,3.6998,3.6998,3.6998,3.6998,3.6998,3.6998,3.6998,3.6998,3.7231,3.7211,3.7017,3.7481,3.7563,3.7366,3.7582,3.7677,3.7753,3.8505,3.8579,3.8319,3.9071,3.9271,3.9144,3.9144,3.9505,4.0001,4.0001,4.0229,4.0489,4.0489,4.0489,4.0489,4.0489,4.0489,4.0489,4.0489,4.0214,3.9814,3.9568,3.8676,3.7815,3.7569,3.6984,3.6507,3.6507,3.6507,3.6507,3.6507,3.6507,3.6507,3.6507,0.0,3.5922,3.643,3.6061,3.5937,3.6446,3.6507,3.6507,3.6507,3.6507,3.6507,3.6507,3.6507,3.6507,3.6507,3.6507,3.6662,3.7013,3.6861,3.7402,3.875,3.8371,3.8539,3.9299,3.9013,3.9026,3.9299,3.9299,3.9299,3.9299,3.9395,3.9445,3.9514,3.959,3.9716,3.9901,3.9901,3.9973,4.0096,4.0096,4.0096,4.0096,3.6998,3.6998,3.6998,3.6998,3.6998,3.6998,3.6998,3.6998,3.6998,3.6998,3.6998,3.6998,3.6998,3.6998,3.6998,3.6998,3.6998,3.6998,3.6998,3.6998,3.6998,3.6998,3.6998,3.6998,3.6998,3.6998,3.6998,3.6998,3.6998,3.6998,3.6998,3.6998,3.6998,3.6998,3.6998,3.6998,3.6998,3.6998,3.6998,3.7076,3.7905,3.8,3.7715,3.8542,3.8819,3.88,3.88,3.9307,3.9948,3.9948,4.0194,4.0489,4.0489,4.0489,4.0489,4.0489,4.0489,4.0443,4.0245,3.9707,3.9184,3.9184,3.8354,3.7446,3.723,3.683,3.6507,3.6507,3.6507,3.6507,3.6507,3.6507,3.6507,3.6507,3.6507,3.6507,3.6507,3.6507,3.6507,3.6507,3.6507,3.6507,3.6507,3.6507,3.6507,3.6507,3.6507,3.6507,3.6507,3.6507,3.6569,3.6723,3.6723,3.7476,3.9053,3.8159,3.8159,3.908,3.875,3.8862,3.9299,3.9299,3.9312,3.9365,3.9422,3.9498,3.9629,3.9677,3.9807,3.9961,3.9961,4.0024,4.0096,4.0096,4.0171,4.0246,3.6998,3.6998,3.6998,3.6998,3.6998,3.6998,3.6998,3.6998,3.6998,3.6998,3.6998,3.6998,3.6998,3.6998,3.6998,3.6998,3.6998,3.6998,3.6998,3.6998,3.6998,3.6998,3.6998,3.6998,3.6998,3.6998,3.6998,3.6998,3.6998,3.6998,3.6998,3.6998,3.6998,3.6998,3.6998,3.6998,3.6998,3.6998,3.6998,3.6998,3.6998,3.6998,3.6998,3.6998,3.7753,3.8797,3.8797,3.9526,4.0489,4.0489,4.0489,4.0489,4.0489,4.0489,4.0489,4.0489,4.0489,4.0336,3.9676,3.9014,3.8476,3.8476,3.8,3.7323,3.6645,3.6507,3.6507,3.6507,3.6507,3.6507,3.6507,3.6507,3.6507,3.6507,3.6507,3.6507,3.6507,3.6507,3.6507,3.6507,3.6507,3.6507,3.6507,3.6507,3.6507,3.6507,3.6507,3.6507,3.6507,3.6507,3.6708,3.7179,3.7209,3.7653,3.8583,3.7667,3.7682,3.8611,3.8611,3.8862,3.9299,3.9299,3.9365,3.9501,3.9352,3.9537,3.9888,3.9755,3.9871,4.0096,4.0096,4.0096,4.0096,4.0096,4.0303,4.0556,3.6998,3.6998,3.6998,3.6998,3.6998,3.6998,3.6998,3.6998,3.6998,3.6998,3.6998,3.6998,3.6998,3.6998,3.6998,3.6998,3.6998,3.6998,3.6998,3.6998,3.6998,3.6998,3.6998,3.6998,3.6998,3.6998,3.6998,3.6998,3.6998,3.6998,3.6998,3.6998,3.6998,3.6998,3.6998,3.6998,3.6998,3.6998,3.6998,3.7037,3.7448,3.7385,3.7051,3.7481,3.7582,3.7544,3.7544,3.8304,3.931,3.931,3.9844,4.0489,4.0489,4.0489,4.0489,4.0489,4.0168,3.9753,3.9553,3.8661,3.78,3.78,3.7292,3.6738,3.6538,3.6507,3.6507,3.6507,3.6507,3.6507,3.6507,3.6507,3.6507,3.6507,3.6507,3.6507,3.6507,3.6507,3.6507,3.6507,3.6507,3.6507,3.6507,3.6507,3.6507,3.6507,3.6507,3.6507,3.6507,3.6507,3.6569,3.6693,3.7028,3.7328,3.7609,3.7667,3.8159,3.908,3.875,3.8862,3.9299,3.9299,3.9312,3.9365,3.9524,3.9638,3.9768,3.9922,4.0037,4.0096,4.0096,4.0096,4.0096,4.0096,4.0159,4.0266,3.6998,3.6998,3.6998,3.6998,3.6998,3.6998,3.6998,3.6998,3.6998,3.6998,3.6998,3.6998,3.6998,3.6998,3.6998,3.6998,3.6998,3.6998,3.6998,3.6998,3.6998,3.6998,3.6998,3.6998,3.6998,3.6998,3.6998,3.6998,3.6998,3.6998,3.6998,3.6998,3.6998,3.6998,3.6998,3.6998,3.6998,3.6998,3.6998,3.7037,3.7404,3.7327,3.7037,3.7404,3.7481,3.7366,3.7366,3.7981,3.88,3.88,3.9415,4.0211,4.0437,4.0489,4.0443,4.0166,3.9814,3.9384,3.8845,3.8123,3.7446,3.7169,3.6799,3.6507,3.6507,3.6507,3.6507,3.6507,3.6507,3.6507,3.6507,3.6507,3.6507,3.6507,3.6507,3.6507,3.6507,3.6507,3.6507,3.6507,3.6507,3.6507,3.6507,3.6507,3.6507,3.6507,3.6507,3.6569,3.677,3.6785,3.6861,3.7043,3.7506,3.7755,3.7755,3.8215,3.8653,3.9026,3.8736,3.8862,3.9299,3.9352,3.9405,3.9471,3.9625,3.9768,3.9871,3.9986,4.0049,4.0096,4.0096,4.0096,4.0096,4.0096,4.0184,4.0328,3.6998,3.6998,3.6998,3.6998,3.6998,3.6998,3.6998,3.6998,3.6998,3.6998,3.6998,3.6998,3.6998,3.6998,3.6998,3.6998,3.6998,3.6998,3.6998,3.6998,3.6998,3.6998,3.6998,3.6998,3.6998,3.6998,3.6998,3.6998,3.6998,3.6998,3.6998,3.6998,3.6998,3.6998,3.6998,3.6998,3.6998,3.6998,3.6998,3.6998,3.6998,3.6998,3.6998,3.6998,3.7347,3.781,3.781,3.8244,3.8819,3.891,3.928,3.9768,4.0259,4.0366,4.0214,3.9599,3.9368,3.9045,3.7831,3.7461,3.7261,3.6645,3.6507,3.6507,3.6507,3.6507,3.6507,3.6507,3.6507,3.6507,3.6507,3.6507,3.6507,3.6507,3.6507,3.6507,3.6507,3.6507,3.6507,3.6507,3.6507,3.6507,3.6507,3.6507,3.6523,3.6554,3.6569,3.677,3.7239,3.7253,3.7461,3.7886,3.8357,3.8611,3.8611,3.9067,3.908,3.8667,3.8667,3.8887,3.9312,3.9432,3.9577,3.9703,3.9716,3.9858,4.0058,3.9961,3.9986,4.0096,4.0096,4.0096,4.0096,4.0096,4.0291,4.0551,3.6998,3.6998,3.6998,3.6998,3.6998,3.6998,3.6998,3.6998,3.6998,3.6998,3.6998,3.6998,3.6998,3.6998,3.6998,3.6998,3.6998,3.6998,3.6998,3.6998,3.6998,3.6998,3.6998,3.6998,3.6998,3.6998,3.6998,3.6998,3.6998,3.6998,3.6998,3.6998,3.6998,3.6998,3.6998,3.6998,3.6998,3.6998,3.6998,3.6998,3.6998,3.6998,3.6998,3.6998,3.7076,3.7192,3.7192,3.7886,3.8929,3.9826,3.9877,3.9569,3.9688,3.9368,3.8907,3.8753,3.8338,3.7877,3.7584,3.7107,3.6676,3.6553,3.6507,3.6507,3.6507,3.6507,3.6507,3.6507,3.6507,3.6507,3.6507,3.6507,3.6507,3.6507,3.6507,3.6507,3.6507,3.6507,3.6507,3.6507,3.6507,3.6507,3.6507,3.6507,3.6647,3.7013,3.7043,3.7253,3.7726,3.7755,3.7799,3.79,3.8357,3.8611,3.8611,3.9067,3.9258,3.9151,3.9151,3.9258,3.9461,3.9488,3.9577,3.9703,3.9807,3.9901,3.9948,4.0024,4.0058,4.0096,4.0096,4.0096,4.0096,4.0096,4.0146,4.0156,3.6998,3.6998,3.6998,3.6998,3.6998,3.6998,3.6998,3.6998,3.6998,3.6998,3.6998,3.6998,3.6998,3.6998,3.6998,3.6998,3.6998,3.6998,3.6998,3.6998,3.6998,3.6998,3.6998,3.6998,3.6998,3.6998,3.6998,3.6998,3.6998,3.6998,3.6998,3.6998,3.6998,3.6998,3.6998,3.6998,3.6998,3.6998,3.6998,3.6998,3.6998,3.6998,3.6998,3.6998,3.6998,3.6998,3.6998,3.7396,3.7974,3.8547,3.8682,3.8632,3.8931,3.8784,3.843,3.8123,3.7769,3.743,3.7107,3.6784,3.6507,3.6507,3.6507,3.6507,3.6507,3.6507,3.6507,3.6507,3.6507,3.6507,3.6507,3.6507,3.6507,3.6507,3.6507,3.6507,3.6507,3.6507,3.6507,3.6507,3.6507,3.66,3.6816,3.6631,3.6785,3.7476,3.7119,3.7179,3.7871,3.7697,3.777,3.8215,3.8469,3.8708,3.8931,3.8831,3.8788,3.8775,3.912,3.9339,3.9405,3.9174,3.9111,3.9167,3.9021,3.8944,3.8944,3.9014,3.9051,3.9051,3.9051,3.9271,3.9525,3.9186,3.9156,3.9252,3.6998,3.6998,3.6998,3.6998,3.6998,3.6998,3.6998,3.6998,3.6998,3.6998,3.6998,3.6998,3.6998,3.6998,3.6998,3.6998,3.6998,3.6998,3.6998,3.6998,3.6998,3.6998,3.6998,3.6998,3.6998,3.6998,3.6956,3.6857,3.6857,3.6787,3.6689,3.6689,3.6745,3.6857,3.6857,3.69,3.6998,3.6885,3.6914,3.6998,3.6885,3.6914,3.6998,3.6998,3.6942,3.6857,3.6857,3.6798,3.6764,3.6911,3.718,3.7563,3.8143,3.8262,3.8061,3.7492,3.7323,3.7215,3.6645,3.6507,3.6507,3.6507,3.6507,3.6507,3.6507,3.6507,3.6507,3.6507,3.6507,3.6507,3.6507,3.6507,3.6507,3.6507,3.6507,3.6507,3.6507,3.6507,3.6507,3.6507,3.6399,3.643,3.6699,3.6398,3.6504,3.7359,3.6823,3.6856,3.781,3.7478,3.7636,3.8501,3.8414,3.8526,3.8921,3.8328,3.8017,3.8017,3.8639,3.8947,3.898,3.8613,3.8459,3.8464,3.808,3.7893,3.7893,3.7893,3.7893,3.7893,3.7893,3.8278,3.8746,3.8197,3.8166,3.8385,3.6998,3.6998,3.6998,3.6998,3.6998,3.6998,3.6998,3.6998,3.6998,3.6998,3.6998,3.6998,3.6998,3.6998,3.6998,3.6998,3.6998,3.6998,3.6998,3.6998,3.6998,3.6998,3.6998,3.6998,3.6998,3.6998,3.6745,3.623,3.623,3.5949,3.5442,3.5442,3.5723,3.623,3.623,3.6506,3.697,3.6436,3.652,3.6956,3.6422,3.652,3.6998,3.6998,3.6675,3.623,3.623,3.6182,3.6269,3.725,3.7236,3.6918,3.7454,3.723,3.6738,3.6661,3.6646,3.663,3.6507,3.6507,3.6507,3.6507,3.6507,3.6507,3.6507,3.6507,3.6507,3.6507,3.6507,3.6507,3.6507,3.6507,3.6507,3.6507,3.6507,3.6507,3.6507,3.6507,3.6507,3.6507,3.5999,3.5429,3.4917,3.4796,3.5002,3.5518,3.5968,3.6646,3.7587,3.753,3.7709,3.8239,3.7641,3.7336,3.74,3.7301,3.7251,3.7255,3.735,3.7527,3.7748,3.7796,3.7884,3.7981,3.7932,3.7893,3.7893,3.7893,3.7893,3.7893,3.7893,3.7973,3.8077,3.8258,3.8357,3.8334,3.6998,3.6998,3.6998,3.6998,3.6998,3.6998,3.6998,3.6998,3.6998,3.6998,3.6998,3.6998,3.6998,3.6998,3.6998,3.6998,3.6998,3.6998,3.6998,3.6998,3.6998,3.6998,3.6998,3.6998,3.6998,3.6998,3.6534,3.5597,3.5934,3.5794,3.5203,3.5541,3.5836,3.6117,3.645,3.6745,3.697,3.6351,3.645,3.6956,3.6337,3.645,3.6998,3.6998,3.6632,3.6057,3.562,3.5665,3.5961,3.6419,3.6593,3.6622,3.6875,3.6738,3.6507,3.6507,3.6507,3.6507,3.6507,3.6507,3.6507,3.6507,3.6507,3.6507,3.6507,3.6507,3.6507,3.6507,3.6507,3.6507,3.6507,3.6507,3.6507,3.6507,3.6507,3.6507,3.6507,3.6507,3.6369,3.5999,3.5352,3.4932,3.4883,3.4852,3.5136,3.5874,3.5912,3.6212,3.6895,3.6651,3.6705,3.7177,3.6878,3.683,3.7089,3.6688,3.6489,3.6489,3.621,3.6504,3.7274,3.707,3.7007,3.705,3.6753,3.6625,3.6625,3.6625,3.6625,3.6625,3.6625,3.6735,3.6961,3.7518,3.7593,3.7357]}]]